[[{"header":{"parameterUnit":"m.s-1","parameterCategory":1,"la1":31.0,"la2":29.5877,"lo1":-88.7671,"lo2":-86.6584,"dy":0.0162,"dx":0.0185,"nx":115,"ny":88,"refTime":"2024-06-21T18:00:00:Z","depth":0,"parameterNumber":2,"parameterNumberName":"U-component_of_WINDS"},"data":[0.0,0.0,0.0,0.0,0.0,0.0,0.0,0.0,0.0,0.0,0.0,0.0,0.0,0.0,0.0,0.0,0.0,0.0,0.0,0.0,0.0,0.0,0.0,0.0,0.0,0.0,0.0,0.0,0.0,0.0,0.0,0.0,0.0,0.0,0.0,0.0,0.0,0.0,0.0,0.0,0.0,0.0,0.0,0.0,0.0,0.0,0.0,0.0,0.0,0.0,0.0,0.0,0.0,0.0,0.0,0.0,0.0,0.0,0.0,0.0,0.0,0.0,0.0,0.0,0.0,0.0,0.0,0.0,0.0,0.0,0.0,0.0,0.0,0.0,0.0,0.0,0.0,0.0,0.0,0.0,0.0,0.0,0.0,0.0,0.0,0.0,0.0,0.0,0.0,0.0,0.0,0.0,0.0,0.0,0.0,0.0,0.0,0.0,0.0,0.0,0.0,0.0,0.0,0.0,0.0,0.0,0.0,0.0,0.0,0.0,0.0,0.0,0.0,0.0,0.0,0.0,0.0,0.0,0.0,0.0,0.0,0.0,0.0,0.0,0.0,0.0,0.0,0.0,0.0,0.0,0.0,0.0,0.0,0.0,0.0,0.0,0.0,0.0,0.0,0.0,0.0,0.0,0.0,0.0,0.0,0.0,0.0,0.0,0.0,0.0,0.0,0.0,0.0,0.0,0.0,0.0,0.0,0.0,0.0,0.0,0.0,0.0,0.0,0.0,0.0,0.0,0.0,0.0,0.0,0.0,0.0,0.0,0.0,0.0,0.0,0.0,0.0,0.0,0.0,0.0,0.0,0.0,0.0,0.0,0.0,0.0,0.0,0.0,0.0,0.0,0.0,0.0,0.0,0.0,0.0,0.0,0.0,0.0,0.0,0.0,0.0,0.0,0.0,0.0,0.0,0.0,0.0,0.0,0.0,0.0,0.0,0.0,0.0,0.0,0.0,0.0,0.0,0.0,0.0,0.0,0.0,0.0,0.0,0.0,0.0,0.0,0.0,0.0,0.0,0.0,0.0,0.0,0.0,0.0,0.0,0.0,0.0,0.0,0.0,0.0,0.0,0.0,0.0,0.0,0.0,0.0,0.0,0.0,0.0,0.0,0.0,0.0,0.0,0.0,0.0,0.0,0.0,0.0,0.0,0.0,0.0,0.0,0.0,0.0,0.0,0.0,0.0,0.0,0.0,0.0,0.0,0.0,0.0,0.0,0.0,0.0,0.0,0.0,0.0,0.0,0.0,0.0,0.0,0.0,0.0,0.0,0.0,0.0,0.0,0.0,0.0,0.0,0.0,0.0,0.0,0.0,0.0,0.0,0.0,0.0,0.0,0.0,0.0,0.0,0.0,0.0,0.0,0.0,0.0,0.0,0.0,0.0,0.0,0.0,0.0,0.0,0.0,0.0,0.0,0.0,0.0,0.0,0.0,0.0,0.0,0.0,0.0,0.0,0.0,0.0,0.0,0.0,0.0,0.0,0.0,0.0,0.0,0.0,0.0,0.0,0.0,0.0,0.0,0.0,0.0,0.0,0.0,0.0,0.0,0.0,0.0,0.0,0.0,0.0,0.0,0.0,0.0,0.0,0.0,0.0,0.0,0.0,0.0,0.0,0.0,0.0,0.0,0.0,0.0,0.0,0.0,0.0,0.0,0.0,0.0,0.0,0.0,0.0,0.0,0.0,0.0,0.0,0.0,0.0,0.0,0.0,0.0,0.0,0.0,0.0,0.0,0.0,0.0,0.0,0.0,0.0,0.0,0.0,0.0,0.0,0.0,0.0,0.0,0.0,0.0,0.0,0.0,0.0,0.0,0.0,0.0,0.0,0.0,0.0,0.0,0.0,0.0,0.0,0.0,0.0,0.0,0.0,0.0,0.0,0.0,0.0,0.0,0.0,0.0,0.0,0.0,0.0,0.0,0.0,0.0,0.0,0.0,0.0,0.0,0.0,0.0,0.0,0.0,0.0,0.0,0.0,0.0,0.0,0.0,0.0,0.0,0.0,0.0,0.0,0.0,0.0,0.0,0.0,0.0,0.0,0.0,0.0,0.0,0.0,0.0,0.0,0.0,0.0,0.0,0.0,0.0,0.0,0.0,0.0,0.0,0.0,0.0,0.0,0.0,0.0,0.0,0.0,0.0,0.0,0.0,0.0,0.0,0.0,0.0,0.0,0.0,0.0,0.0,0.0,0.0,0.0,0.0,0.0,0.0,0.0,0.0,0.0,0.0,0.0,0.0,0.0,0.0,0.0,0.0,0.0,0.0,0.0,0.0,0.0,0.0,0.0,0.0,0.0,0.0,0.0,0.0,0.0,0.0,0.0,0.0,0.0,0.0,0.0,0.0,0.0,0.0,0.0,0.0,0.0,0.0,0.0,0.0,0.0,0.0,0.0,0.0,0.0,0.0,0.0,0.0,0.0,0.0,0.0,0.0,0.0,0.0,0.0,0.0,0.0,0.0,0.0,0.0,0.0,0.0,0.0,0.0,0.0,0.0,0.0,0.0,0.0,0.0,0.0,0.0,0.0,0.0,0.0,0.0,0.0,0.0,0.0,0.0,0.0,0.0,0.0,0.0,0.0,0.0,0.0,0.0,0.0,0.0,0.0,0.0,0.0,0.0,0.0,0.0,0.0,0.0,0.0,0.0,0.0,0.0,0.0,0.0,0.0,0.0,0.0,0.0,0.0,0.0,0.0,0.0,0.0,0.0,0.0,0.0,0.0,0.0,0.0,0.0,0.0,0.0,0.0,0.0,0.0,0.0,0.0,0.0,0.0,0.0,0.0,0.0,0.0,0.0,0.0,0.0,0.0,0.0,0.0,0.0,0.0,0.0,0.0,0.0,0.0,0.0,0.0,0.0,0.0,0.0,0.0,0.0,0.0,0.0,0.0,0.0,0.0,0.0,0.0,0.0,0.0,0.0,0.0,0.0,0.0,0.0,0.0,0.0,0.0,0.0,0.0,0.0,0.0,0.0,0.0,0.0,0.0,0.0,0.0,0.0,0.0,0.0,0.0,0.0,0.0,0.0,0.0,0.0,0.0,0.0,0.0,0.0,0.0,0.0,0.0,0.0,0.0,0.0,0.0,0.0,0.0,0.0,0.0,0.0,0.0,0.0,0.0,0.0,0.0,0.0,0.0,0.0,0.0,0.0,0.0,0.0,0.0,0.0,0.0,0.0,0.0,0.0,0.0,0.0,0.0,0.0,0.0,0.0,0.0,0.0,0.0,0.0,0.0,0.0,0.0,0.0,0.0,0.0,0.0,0.0,0.0,0.0,0.0,0.0,0.0,0.0,0.0,0.0,0.0,0.0,0.0,0.0,0.0,0.0,0.0,0.0,0.0,0.0,0.0,0.0,0.0,0.0,0.0,0.0,0.0,0.0,0.0,0.0,0.0,0.0,0.0,0.0,0.0,0.0,0.0,0.0,0.0,0.0,0.0,0.0,0.0,0.0,0.0,0.0,0.0,0.0,0.0,0.0,0.0,0.0,0.0,0.0,0.0,0.0,0.0,0.0,0.0,0.0,0.0,0.0,0.0,0.0,0.0,0.0,0.0,0.0,0.0,0.0,0.0,0.0,0.0,0.0,0.0,0.0,0.0,0.0,0.0,0.0,0.0,0.0,0.0,0.0,0.0,0.0,0.0,0.0,0.0,0.0,0.0,0.0,0.0,0.0,0.0,0.0,0.0,0.0,0.0,0.0,0.0,0.0,0.0,0.0,0.0,0.0,0.0,0.0,0.0,0.0,0.0,0.0,0.0,0.0,0.0,0.0,0.0,0.0,0.0,0.0,0.0,0.0,0.0,0.0,0.0,0.0,0.0,0.0,0.0,0.0,0.0,0.0,0.0,0.0,0.0,0.0,0.0,0.0,0.0,0.0,0.0,0.0,0.0,0.0,0.0,0.0,0.0,0.0,0.0,0.0,0.0,0.0,0.0,0.0,0.0,0.0,0.0,0.0,0.0,0.0,0.0,0.0,0.0,0.0,0.0,0.0,0.0,0.0,0.0,0.0,0.0,0.0,0.0,0.0,0.0,0.0,0.0,0.0,0.0,0.0,0.0,0.0,0.0,0.0,0.0,0.0,0.0,0.0,0.0,0.0,0.0,0.0,0.0,0.0,0.0,0.0,0.0,0.0,0.0,0.0,0.0,0.0,0.0,0.0,0.0,0.0,0.0,0.0,0.0,0.0,0.0,0.0,0.0,0.0,0.0,0.0,0.0,0.0,0.0,0.0,0.0,0.0,0.0,0.0,0.0,0.0,0.0,0.0,0.0,0.0,0.0,-0.0,0.0,0.0,0.0,0.0,0.0,0.0,0.0,0.0,0.0,0.0,0.0,0.0,0.0,0.0,0.0,0.0,0.0,0.0,0.0,0.0,0.0,0.0,0.0,0.0,0.0,0.0,0.0,0.0,0.0,0.0,0.0,0.0,0.0,0.0,0.0,0.0,0.0,0.0,0.0,0.0,0.0,0.0,0.0,0.0,0.0,0.0,0.0,0.0,0.0,0.0,0.0,0.0,0.0,0.0,0.0,0.0,0.0,0.0,0.0,0.0,0.0,0.0,0.0,0.0,0.0,0.0,0.0,0.0,0.0,0.0,0.0,0.0,0.0,0.0,0.0,0.0,0.0,0.0,0.0,0.0,0.0,0.0,0.0,0.0,0.0,0.0,0.0,0.0,0.0,0.0,0.0,0.0,0.0,0.0,0.0,0.0,0.0,0.0,0.0,0.0,0.0,0.0,0.0,0.0,0.0,0.0,0.0,0.0,0.0,0.0,-0.0303,-0.0403,-0.0403,-0.0336,-0.0168,0.0,0.0,0.0,0.0,0.0,0.0,0.0,0.0,0.0,0.0,0.0,0.0,0.0,0.0,0.0,0.0,0.0,0.0,0.0,0.0,0.0,0.0,0.0,0.0,0.0,0.0,0.0,0.0,0.0,0.0,0.0,0.0,0.0,0.0,0.0,0.0,0.0,0.0,0.0,0.0,0.0,0.0,0.0,0.0,0.0,0.0,0.0,0.0,0.0,0.0,0.0,0.0,0.0,0.0,0.0,0.0,0.0,0.0,0.0,0.0,0.0,0.0,0.0,0.0,0.0,0.0,0.0,0.0,0.0,0.0,0.0,0.0,0.0,0.0,0.0,0.0,0.0,0.0,0.0,0.0,0.0,0.0,0.0,0.0,0.0,0.0,0.0,0.0,0.0,0.0,0.0,0.0,0.0,0.0,0.0,0.0,0.0,0.0,0.0,0.0,0.0,0.0,0.0,0.0,0.0,0.0,0.0,0.0,0.0,0.0,0.0,0.0,-0.0365,-0.0332,-0.0235,0.0,0.0,0.0,0.0,0.0,0.0,0.0,0.0,0.0,0.0,0.0,0.0,0.0,0.0,0.0,0.0,0.0,0.0,0.0,0.0,0.0,0.0,0.0,0.0,0.0,0.0,0.0,0.0,0.0,0.0,0.0,0.0,0.0,0.0,0.0,0.0,0.0,0.0,0.0,0.0,0.0,0.0,0.0,0.0,0.0,0.0,0.0,0.0,0.0,0.0,0.0,0.0,0.0,0.0,0.0,0.0,0.0,0.0,0.0,0.0,0.0,0.0,0.0,0.0,0.0,0.0,0.0,0.0,0.0,0.0,0.0,0.0,0.0,0.0,0.0,0.0,0.0,0.0,0.0,0.0,0.0,0.0,0.0,0.0,0.0,0.0,0.0,0.0,0.0,0.0,0.0,0.0,0.0,0.0,0.0,0.0,0.0,0.0,0.0,0.0,0.0,0.0,0.0,0.0,0.0,0.0,0.0,0.0,0.0,0.0,-0.0477,-0.0301,-0.0479,0.0,-0.0033,0.0,0.0,0.0,0.0,0.0,0.0,0.0,0.0,0.0,0.0,0.0,0.0,0.0,0.0,0.0,0.0,0.0,0.0,0.0,0.0,0.0,0.0,0.0,0.0,0.0,0.0,0.0,0.0,0.0,0.0,0.0,0.0,0.0,0.0,0.0,0.0,0.0,0.0,0.0,0.0,0.0,0.0,0.0,0.0,0.0,0.0,0.0,0.0,0.0,0.0,0.0,0.0,0.0,0.0,0.0,0.0,0.0,0.0,0.0,0.0,0.0,0.0,0.0,0.0,0.0,0.0,0.0,0.0,0.0,0.0,0.0,0.0,0.0,0.0,0.0,0.0,0.0,0.0,0.0,0.0,0.0,0.0,0.0,0.0,0.0,0.0,0.0,0.0,0.0,0.0,0.0,0.0,0.0,0.0,0.0,0.0,0.0,0.0,0.0,0.0,0.0,0.0,0.0,0.0,0.0,0.0,0.0,0.0,0.0,0.0,-0.0775,-0.0479,-0.029,-0.0033,0.0,0.0,0.0,0.0,0.0,0.0,0.0,0.0,0.0,0.0,0.0,0.0,0.0,0.0,0.0,0.0,0.0,0.0,0.0,0.0,0.0,0.0,0.0,0.0,0.0,0.0,0.0,0.0,0.0,0.0,0.0,0.0,0.0,0.0,0.0,0.0,0.0,0.0,0.0,0.0,0.0,0.0,0.0,0.0,0.0,0.0,0.0,0.0,0.0,0.0,0.0,0.0,0.0,0.0,0.0,0.0,0.0,0.0,0.0,0.0,0.0,0.0,0.0,0.0,0.0,0.0,0.0,0.0,0.0,0.0,0.0,0.0,0.0,0.0,0.0,0.0,0.0,0.0,0.0,0.0,0.0,0.0,0.0,0.0,0.0,0.0,0.0,0.0,0.0,0.0,0.0,0.0,0.0,0.0,0.0,0.0,0.0,0.0,0.0,0.0,0.0,0.0,0.0,0.0,0.0,0.0,0.0,0.0,0.0,0.0,-0.1071,-0.0901,-0.0619,-0.0232,0.0102,0.037,0.0,0.0,0.0,0.0,0.0,0.0,0.0,0.0,0.0,0.0,0.0,0.0,0.0,0.0,0.0,0.0,0.0,0.0,0.0,0.0,0.0,0.0,0.0,0.0,0.0,0.0,0.0,0.0,0.0,0.0,0.0,0.0,0.0,0.0,0.0,0.0,0.0,0.0,0.0,0.0,0.0,0.0,0.0,0.0,0.0,0.0,0.0,0.0,0.0,0.0,0.0,0.0,0.0,0.0,0.0,0.0,0.0,0.0,0.0,0.0,0.0,0.0,0.0,0.0,0.0,0.0,0.0,0.0,0.0,0.0,0.0,0.0,0.0,0.0,0.0,0.0,0.0,0.0,0.0,0.0,0.0,0.0,0.0,0.0,0.0,0.0,0.0,0.0,0.0,0.0,0.0,0.0,0.0,0.0,0.0,0.0,0.0,0.0,0.0,0.0,0.0,0.0,0.0,0.0,0.0,0.0,0.0,0.0,0.0,-0.1048,-0.0864,-0.0616,-0.0447,-0.0212,0.0,0.0,0.0,0.0,0.0,0.0,0.0,0.0,0.0,0.0,0.0,0.0,0.0,0.0,0.0,0.0,0.0,0.0,0.0,0.0,0.0,0.0,0.0,0.0,0.0,0.0,0.0,0.0,0.0,0.0,0.0,0.0,0.0,0.0,0.0,0.0,0.0,0.0,0.0,0.0,0.0,0.0,0.0,0.0,0.0,0.0,0.0,0.0,0.0,0.0,0.0,0.0,0.0,0.0,0.0,0.0,0.0,0.0,0.0,0.0,0.0,0.0,0.0,0.0,0.0,0.0,0.0,0.0,0.0,0.0,0.0,0.0,0.0,0.0,0.0,0.0,0.0,0.0,0.0,0.0,0.0,0.0,0.0,0.0,0.0,0.0,0.0,0.0,0.0,0.0,0.0,0.0,0.0,0.0,0.0,0.0,0.0,0.0,0.0,0.0,0.0,0.0,0.0,0.0,0.0,0.0,0.0,0.0,0.0,-0.0962,-0.093,-0.0794,-0.0613,-0.0546,-0.0331,0.0,0.0,0.0,0.0,0.0,0.0,0.0,0.0,0.0,0.0,0.0,0.0,0.0,0.0,0.0,0.0,0.0,0.0,0.0,0.0,0.0,0.0,0.0,0.0,0.0,0.0,0.0,0.0,0.0,0.0,0.0,0.0,0.0,0.0,0.0,0.0,0.0,0.0,0.0,0.0,0.0,0.0,0.0,0.0,0.0,0.0,0.0,0.0,0.0,0.0,0.0,0.0,0.0,0.0,0.0,0.0,0.0,0.0,0.0,0.0,0.0,0.0,0.0,0.0,0.0,0.0,0.0,0.0,0.0,0.0,0.0,0.0,0.0,0.0,0.0,0.0,0.0,0.0,0.0,0.0,0.0,0.0,0.0,0.0,0.0,0.0,0.0,0.0,0.0,0.0,0.0,0.0,0.0,0.0,0.0,0.0,0.0,0.0,0.0,0.0,0.0,0.0,0.0,0.0,0.0,0.0,0.0,0.0,0.0,-0.0926,0.0,-0.0836,0.0,-0.0769,-0.0588,0.0,0.0,0.0,0.0,0.0,0.0,0.0,0.0,0.0,0.0,0.0,0.0,0.0,0.0,0.0,0.0,0.0,0.0,0.0,0.0,0.0,0.0,0.0,0.0,0.0,0.0,0.0,0.0,0.0,0.0,0.0,0.0,0.0,0.0,0.0,0.0,0.0,0.0,0.0,0.0,0.0,0.0,0.0,0.0,0.0,0.0,0.0,0.0,0.0,0.0,0.0,0.0,0.0,0.0,0.0,0.0,0.0,0.0,0.0,0.0,0.0,0.0,0.0,0.0,0.0,0.0,0.0,0.0,0.0,0.0,0.0,0.0,0.0,0.0,0.0,0.0,0.0,0.0,0.0,0.0,0.0,0.0,0.0,0.0,0.0,0.0,0.0,0.0,0.0,0.0,0.0,0.0,0.0,0.0,0.0,0.0,0.0,0.0,0.0,0.0,0.0,0.0,0.0,0.0,0.0,0.0,0.0,0.0,-0.1017,-0.1016,-0.1069,-0.1066,-0.1023,-0.113,-0.1001,0.0,0.0,0.0,0.0,0.0,0.0,0.0,0.0,0.0,0.0,0.0,0.0,0.0,0.0,0.0,0.0,0.0,0.0,0.0,0.0,0.0,0.0,0.0,0.0,0.0,0.0,0.0,0.0,0.0,0.0,0.0,0.0,0.0,0.0,0.0,0.0,0.0,0.0,0.0,0.0,0.0,0.0,0.0,0.0,0.0,0.0,0.0,0.0,0.0,0.0,0.0,0.0,0.0,0.0,0.0,0.0,0.0,0.0,0.0,0.0,0.0,0.0,0.0,0.0,0.0,0.0,0.0,0.0,0.0,0.0,0.0,0.0,0.0,0.0,0.0,0.0,0.0,0.0,0.0,0.0,0.0,0.0,0.0,0.0,0.0,0.0,0.0,0.0,0.0,0.0,0.0,0.0,0.0,0.0,0.0,0.0,0.0,0.0,0.0,0.0,0.0,0.0,0.0,0.0,0.0,0.0,0.0,0.0,0.0,-0.1275,-0.109,-0.1082,-0.1321,-0.1148,-0.0946,0.0,0.0,0.0,0.0,0.0,0.0,0.0,0.0,0.0,0.0,0.0,0.0,0.0,0.0,0.0,0.0,0.0,0.0,0.0,0.0,0.0,0.0,0.0,0.0,0.0,0.0,0.0,0.0,0.0,0.0,0.0,0.0,0.0,0.0,0.0,0.0,0.0,0.0,0.0,0.0,0.0,0.0,0.0,0.0,0.0,0.0,0.0,0.0,0.0,0.0,0.0,0.0,0.0,0.0,0.0,0.0,0.0,0.0,0.0,0.0,0.0,0.0,0.0,0.0,0.0,0.0,0.0,0.0,0.0,0.0,0.0,0.0,0.0,0.0,0.0,0.0,0.0,0.0,0.0,0.0,0.0,0.0,0.0,0.0,0.0,0.0,0.0,0.0,0.0,0.0,0.0,0.0,0.0,0.0,0.0,0.0,0.0,0.0,0.0,0.0,0.0,0.0,0.0,0.0,0.0,0.0,0.0,0.0,0.0,-0.1807,-0.1337,-0.1263,-0.1705,-0.1343,-0.0995,-0.079,0.0,0.0,0.0,0.0,0.0,0.0,0.0,0.0,0.0,0.0,0.0,0.0,0.0,0.0,0.0,0.0,0.0,0.0,0.0,0.0,0.0,0.0,0.0,0.0,0.0,0.0,0.0,0.0,0.0,0.0,0.0,0.0,0.0,0.0,0.0,0.0,0.0,0.0,0.0,0.0,0.0,0.0,0.0,0.0,0.0,0.0,0.0,0.0,0.0,0.0,0.0,0.0,0.0,0.0,0.0,0.0,0.0,0.0,0.0,0.0,0.0,0.0,0.0,0.0,0.0,0.0,0.0,0.0,0.0,0.0,0.0,0.0,0.0,0.0,0.0,0.0,0.0,0.0,0.0,0.0,0.0,0.0,0.0,0.0,0.0,0.0,0.0,0.0,0.0,0.0,0.0,0.0,0.0,0.0,0.0,0.0,0.0,0.0,0.0,0.0,0.0,0.0,0.0,0.0,0.0,0.0,0.0,0.0,-0.2634,-0.1823,-0.1635,-0.2144,-0.1575,-0.1187,0.0,0.0,0.0,0.0,0.0,0.0,0.0,0.0,0.0,0.0,0.0,0.0,0.0,0.0,0.0,0.0,0.0,0.0,0.0,0.0,0.0,0.0,0.0,0.0,0.0,0.0,0.0,0.0,0.0,0.0,0.0,0.0,0.0,0.0,0.0,0.0,0.0,0.0,0.0,0.0,0.0,0.0,0.0,0.0,0.0,0.0,0.0,0.0,0.0,0.0,0.0,0.0,0.0,0.0,0.0,0.0,0.0,0.0,0.0,0.0,0.0,0.0,0.0,0.0,0.0,0.0,0.0,0.0,0.0,0.0,0.0,0.0,0.0,0.0,0.0,0.0,0.0,0.0,0.0,0.0,0.0,0.0,0.0,0.0,0.0,0.0,0.0,0.0,0.0,0.0,0.0,0.0,0.0,0.0,0.0,0.0,0.0,0.0,0.0,0.0,0.0,0.0,0.0,0.0,0.0,0.0,0.0,0.0,0.0,-0.2903,-0.2476,-0.234,-0.2639,-0.1778,-0.1229,0.0,0.0,0.0,0.0,0.0,0.0,0.0,0.0,0.0,0.0,0.0,0.0,0.0,0.0,0.0,0.0,0.0,0.0,0.0,0.0,0.0,0.0,0.0,0.0,0.0,0.0,0.0,0.0,0.0,0.0,0.0,0.0,0.0,0.0,0.0,0.0,0.0,0.0,0.0,0.0,0.0,0.0,0.0,0.0,0.0,0.0,0.0,0.0,0.0,0.0,0.0,0.0,0.0,0.0,0.0,0.0,0.0,0.0,0.0,0.0,0.0,0.0,0.0,0.0,0.0,0.0,0.0,0.0,0.0,0.0,0.0,0.0,0.0,0.0,0.0,0.0,0.0,0.0,0.0,0.0,0.0,0.0,0.0,0.0,0.0,0.0,0.0,0.0,0.0,0.0,0.0,0.0,0.0,0.0,0.0,0.0,0.0,0.0,0.0,0.0,0.0,0.0,0.0,0.0,0.0,0.0,0.0,0.0,-0.2689,-0.3132,-0.3254,-0.3195,-0.296,-0.1938,-0.128,0.0,0.0,0.0,0.0,0.0,0.0,0.0,0.0,0.0,0.0,0.0,0.0,0.0,0.0,0.0,0.0,0.0,0.0,0.0,0.0,0.0,0.0,0.0,0.0,0.0,0.0,0.0,0.0,0.0,0.0,0.0,0.0,0.0,0.0,0.0,0.0,0.0,0.0,0.0,0.0,0.0,0.0,0.0,0.0,0.0,0.0,0.0,0.0,0.0,0.0,0.0,0.0,0.0,0.0,0.0,0.0,0.0,0.0,0.0,0.0,0.0,0.0,0.0,0.0,0.0,0.0,0.0,0.0,0.0,0.0,0.0,0.0,0.0,0.0,0.0,0.0,0.0,0.0,0.0,0.0,0.0,0.0,0.0,0.0,0.0,0.0,0.0,0.0,0.0,0.0,0.0,0.0,0.0,0.0,0.0,0.0,0.0,0.0,0.0,0.0,0.0,0.0,0.0,0.0,0.0,0.0,0.0,0.0,-0.3213,-0.3289,-0.401,-0.4012,-0.3166,-0.212,-0.1425,0.0,0.0,0.0,0.0,0.0,0.0,0.0,0.0,0.0,0.0,0.0,0.0,0.0,0.0,0.0,0.0,0.0,0.0,0.0,0.0,0.0,0.0,0.0,0.0,0.0,0.0,0.0,0.0,0.0,0.0,0.0,0.0,0.0,0.0,0.0,0.0,0.0,0.0,0.0,0.0,0.0,0.0,0.0,0.0,0.0,0.0,0.0,0.0,0.0,0.0,0.0,0.0,0.0,0.0,0.0,0.0,0.0,0.0,0.0,0.0,0.0,0.0,0.0,0.0,0.0,0.0,0.0,0.0,0.0,0.0,0.0,0.0,0.0,0.0,0.0,0.0,0.0,0.0,0.0,0.0,0.0,0.0,0.0,0.0,0.0,0.0,0.0,0.0,0.0,0.0,0.0,0.0,0.0,0.0,0.0,0.0,0.0,0.0,0.0,0.0,0.0,0.0,0.0,0.0,0.0,0.0,0.0,0.0,-0.3658,-0.3755,-0.3791,-0.3852,-0.391,-0.2828,-0.1921,0.0,0.0,0.0,0.0,0.0,0.0,0.0,0.0,0.0,0.0,0.0,0.0,0.0,0.0,0.0,0.0,0.0,0.0,0.0,0.0,0.0,0.0,0.0,0.0,0.0,0.0,0.0,0.0,0.0,0.0,0.0,0.0,0.0,0.0,0.0,0.0,0.0,0.0,0.0,0.0,0.0,0.0,0.0,0.0,0.0,0.0,0.0,0.0,0.041,0.0,0.0,0.0,0.0,0.0,0.0,0.0,0.0,0.0,0.0,0.0,0.0,0.0,0.0,0.0,0.0,0.0,0.0,0.0,0.0,0.0,0.0,0.0,0.0,0.0,0.0,0.0,0.0,0.0,0.0,0.0,0.0,0.0,0.0,0.0,0.0,0.0,0.0,0.0,0.0,0.0,0.0,0.0,0.0,0.0,0.0,0.0,0.0,0.0,0.0,0.0,0.0,0.0,0.0,0.0,0.0,0.0,0.0,0.0,-0.3805,-0.4087,-0.4031,-0.3732,-0.3111,-0.2711,-0.2173,0.0,0.0,0.0,0.0,0.0,0.0,0.0,0.0,0.0,0.0,0.0,0.0,0.0,0.0,0.0,0.0,0.0,0.0,0.0,0.0,0.0,0.0,0.0,0.0,0.0,0.0,0.0,0.0,0.0,0.0,0.0,0.0,0.0,0.0,0.0,0.0,0.0,0.0,0.0,0.0,0.0,0.0,0.0,0.0,0.0,0.0,0.0,0.0,0.0,0.0,0.0,0.0,0.0,0.0,0.0,0.0,0.0,0.0,0.0,0.0,0.0,0.0,0.0,0.0,0.0,0.0,0.0,0.0,0.0,0.0,0.0,0.0,0.0,0.0,0.0,0.0,0.0,0.0,0.0,0.0,0.0,0.0,0.0,0.0,0.0,0.0,0.0,0.0,0.0,0.0,0.0,0.0,0.0,0.0,0.0,0.0,0.0,0.0,0.0,0.0,0.0,0.0,0.0,0.0,0.0,0.0,0.0,-0.3276,-0.3932,-0.4411,-0.4328,-0.3453,-0.1777,-0.2162,-0.2111,-0.1383,0.0,0.0,0.0,0.0,0.0,0.0,0.0,0.0,0.0,0.0,0.0,0.0,0.0,0.0,0.0,0.0,0.0,0.0,0.0,0.0,0.0,0.0,0.0,0.0,0.0,0.0,0.0,0.0,0.0,0.0,0.0,0.0,0.0,0.0,0.0,0.0,0.0,0.0,0.0526,0.0193,0.0,0.0,0.0,0.0,0.0,0.0,0.0,0.0,-0.0148,0.0,0.0,0.0,0.0,0.0,0.0,0.0,0.0,0.0,0.0,0.0,0.0,0.0,0.0,0.0,0.0,0.0,0.0,0.0,0.0,0.0,0.0,0.0,0.0,0.0,0.0,0.0,0.0,0.0,0.0,0.0,0.0,0.0,0.0,0.0,0.0,0.0,0.0,0.0,0.0,0.0,0.0,0.0,0.0,0.0,0.0,0.0,0.0,0.0,0.0,0.0,0.0,0.0,0.0,0.0,0.0,-0.2737,-0.3368,-0.4169,-0.5073,-0.3938,-0.2676,-0.1446,-0.157,-0.1544,-0.1238,0.0,0.0,0.0,0.0,0.0,0.0,0.0,0.0,0.0,0.0,0.0,0.0,0.0,0.0,0.0,0.0,0.0,0.0,0.0,0.0,0.0,0.0,0.0,0.0,0.0,0.0,0.0,0.0,0.0,0.0,0.0,0.0,0.0,0.0,0.0,0.0,0.0,0.0,0.0,-0.0404,-0.0519,0.0,0.0,0.0,0.0,0.0,0.0,0.0,0.0,-0.0603,0.0,0.0,0.0,0.0,0.0,0.0,0.0,0.0,0.0,0.0,0.0,0.0,0.0,0.0,0.0,0.0,0.0,0.0,0.0,0.0,0.0,0.0,0.0,0.0,0.0,0.0,0.0,0.0,0.0,0.0,0.0,0.0,0.0,0.0,0.0,0.0,0.0,0.0,0.0,0.0,0.0,0.0,0.0,0.0,0.0,0.0,0.0,0.0,0.0,0.0,0.0,0.0,0.0,0.0,0.0,-0.3029,-0.3785,-0.4461,-0.5061,-0.3835,-0.2495,-0.1168,-0.1276,-0.1301,0.0,0.0,0.0,0.0,0.0,0.0,0.0,0.0,0.0,0.0,0.0,0.0,0.0,0.0,0.0,0.0,0.0,0.0,0.0,0.0,0.0,0.0,0.0,0.0,0.0,0.0,0.0,0.0,0.0,0.0,0.0,0.0,0.0,0.0,0.0,0.0,0.0,0.0,0.0,0.0,-0.0617,-0.0644,-0.0663,0.0,0.0,0.0,0.0,0.0,0.0,-0.0689,-0.0689,0.0,0.0,0.0,0.0,0.0,0.0,0.0,0.0,0.0,0.0,0.0,0.0,0.0,0.0,0.0,0.0,0.0,0.0,0.0,0.0,0.0,0.0,0.0,0.0,0.0,0.0,0.0,0.0,0.0,0.0,0.0,0.0,0.0,0.0,0.0,0.0,0.0,0.0,0.0,0.0,0.0,0.0,0.0,0.0,0.0,0.0,0.0,0.0,0.0,0.0,0.0,0.0,0.0,0.0,0.0,-0.3181,-0.4006,-0.4595,-0.4836,-0.3779,-0.247,-0.0956,-0.1146,-0.1159,0.0,0.0,0.0,0.0,0.0,0.0,0.0,0.0,0.0,0.0,0.0,0.0,0.0,0.0,0.0,0.0,0.0,0.0,0.0,0.0,0.0,0.0,0.0,0.0,0.0,0.0,0.0,0.0,0.0,0.0,0.0,0.0,0.0,0.0,0.0,0.0,0.0,0.0,0.0,0.0,0.0,-0.0905,-0.0839,-0.0792,0.0,0.0,0.0,0.0,-0.0696,-0.0702,0.0,0.0,0.0,0.0,0.0,0.0,0.0,0.0,0.0,0.0,0.0,0.0,0.0,0.0,0.0,0.0,0.0,0.0,0.0,0.0,0.0,0.0,0.0,0.0,0.0,0.0,0.0,0.0,0.0,0.0,0.0,0.0,0.0,0.0,0.0,0.0,0.0,0.0,0.0,0.0,0.0,0.0,0.0,0.0,0.0,0.0,0.0,0.0,0.0,0.0,0.0,0.0,0.0,0.0,0.0,0.0,-0.2878,-0.3564,-0.423,-0.4782,-0.3483,-0.2159,-0.0931,-0.0929,-0.0893,0.0,0.0,0.0,0.0,0.0,0.0,0.0,0.0,0.0,0.0,0.0,0.0,0.0,0.0,0.0,0.0,0.0,0.0,0.0,0.0,0.0,0.0,0.0,0.0,0.0,0.0,0.0,0.0,0.0,0.0,0.0,0.0,0.0,0.0,0.0,0.0,0.0,0.0,0.0,0.0,0.0,-0.1645,-0.129,-0.133,-0.1233,0.0,0.0,-0.0584,-0.0745,-0.077,0.0,0.0,0.0,0.0,0.0,0.0,0.0,0.0,0.0,0.0,0.0,0.0,0.0,0.0,0.0,0.0,0.0,0.0,0.0,0.0,0.0,0.0,0.0,0.0,0.0,0.0,0.0,0.0,0.0,0.0,0.0,0.0,0.0,0.0,0.0,0.0,0.0,0.0,0.0,0.0,0.0,0.0,0.0,0.0,0.0,0.0,0.0,0.0,0.0,0.0,0.0,0.0,0.0,0.0,0.0,-0.2046,-0.2896,-0.3156,-0.3657,-0.4274,-0.3011,-0.1894,-0.1085,-0.0899,-0.0769,0.0,0.0,0.0,0.0,0.0,0.0,0.0,0.0,0.0,0.0,0.0,0.0,0.0,0.0,0.0,0.0,0.0,0.0,0.0,0.0,0.0,0.0,0.0,0.0,0.0,0.0,0.0,0.0,0.0,0.0,0.0,0.0,0.0,0.0,0.0,0.0,0.0,0.0,0.0,0.0,0.0,0.0,-0.189,-0.1796,0.0,0.0,0.0,-0.0992,-0.0764,0.0,0.0,0.0,0.0,0.0,0.0,0.0,0.0,0.0,0.0,0.0,0.0,0.0,0.0,0.0,0.0,0.0,0.0,0.0,0.0,0.0,0.0,0.0,0.0,0.0,0.0,0.0,0.0,0.0,0.0,0.0,0.0,0.0,0.0,0.0,0.0,0.0,0.0,0.0,0.0,0.0,0.0,0.0,0.0,0.0,0.0,0.0,0.0,0.0,0.0,0.0,0.0,0.0,0.0,0.0,0.0,0.0,-0.3014,-0.3084,-0.3259,-0.3516,-0.2565,-0.1787,-0.1301,-0.0949,0.0,0.0,0.0,0.0,0.0,0.0,0.0,0.0,0.0,0.0,0.0,0.0,0.0,0.0,0.0,0.0,0.0,0.0,0.0,0.0,0.0,0.0,0.0,0.0,0.0,0.0,0.0,-0.0046,0.0,0.0,0.0,0.0,0.0,0.0,0.0,0.0,0.0,0.0,0.0,0.0,0.0,0.0,-0.1955,-0.2737,-0.2626,-0.2115,0.0,0.0,-0.1346,-0.0832,-0.0862,-0.0832,0.0,0.0,0.0,0.0,0.0,0.0,0.0,0.0,0.0,0.0,0.0,0.0,0.0,0.0,0.0,0.0,0.0,0.0,0.0,0.0,0.0,0.0,0.0,0.0,0.0,0.0,0.0,0.0,0.0,0.0,0.0,0.0,0.0,0.0,0.0,0.0,0.0,0.0,0.0,0.0,0.0,0.0,0.0,0.0,0.0,0.0,0.0,0.0,0.0,0.0,0.0,0.0,0.0,0.0,-0.2581,-0.3086,-0.3521,-0.33,-0.2516,-0.2281,-0.1995,-0.1464,-0.1169,-0.0951,0.0,0.0,0.0,0.0,0.0,0.0,0.0,0.0,0.0,0.0,0.0,0.0,0.0,0.0,0.0,0.0,0.0,0.0,0.0,0.0,0.0,0.0,0.0,0.0,0.0,0.0,0.0,0.0,0.0,0.0,0.0,0.0,0.0,0.0,0.0,0.0,0.0,0.0,0.0,0.0,0.0,-0.2896,-0.392,-0.424,-0.3726,0.0,-0.1764,-0.1495,-0.0988,-0.0912,-0.0887,-0.0879,0.0,0.0,0.0,0.0,0.0,0.0,0.0,0.0,0.0,0.0,0.0,0.0,0.0,0.0,0.0,0.0,0.0,0.0,0.0,0.0,0.0,0.0,0.0,0.0,0.0,0.0,0.0,0.0,0.0,0.0,0.0,0.0,0.0,0.0,0.0,0.0,0.0,0.0,0.0,0.0,0.0,0.0,0.0,0.0,0.0,0.0,0.0,0.0,0.0,0.0,0.0,0.0,0.0,-0.1997,-0.2865,-0.2309,-0.225,-0.2673,-0.1916,-0.1467,-0.1258,-0.1109,-0.0851,0.0,0.0,0.0,0.0,0.0,0.0,0.0,0.0,0.0,0.0,0.0,0.0,0.0,0.0,0.0,0.0,0.0,0.0,0.0,0.0,0.0,0.0,0.0,0.0,0.0,0.0,0.0,0.0,-0.061,-0.0662,-0.0482,0.0,0.0,0.0,0.0,0.0,0.0,0.0,0.0,0.0,0.0,-0.3706,-0.4457,-0.4657,0.0,0.0,-0.2456,-0.202,-0.1069,-0.0865,-0.0898,-0.0864,-0.0777,0.0,0.0,0.0,0.0,0.0,0.0,0.0,0.0,0.0,0.0,0.0,0.0,0.0,0.0,0.0,0.0,0.0,0.0,0.0,0.0,0.0,0.0,0.0,0.0,0.0,0.0,0.0,0.0,0.0,0.0,0.0,0.0,0.0,0.0,0.0,0.0,0.0,0.0,0.0,0.0,0.0,0.0,0.0,0.0,0.0,0.0,0.0,0.0,0.0,0.0,0.0,0.0,-0.1934,-0.2719,-0.192,-0.1847,-0.2571,-0.1681,-0.1178,-0.1176,-0.091,-0.0586,0.0,0.0,0.0,0.0,0.0,0.0,0.0,0.0,0.0,0.0,0.0,0.0,0.0,0.0,0.0,0.0,0.0,0.0,0.0,0.0,0.0,0.0,0.0,0.0,0.0,0.0,0.0,0.0,-0.0574,-0.0539,-0.0528,0.0,0.0,0.0,0.0,0.0,0.0,0.0,0.0,0.0,0.0,-0.3903,-0.4697,-0.4552,-0.3985,-0.3036,-0.2769,-0.2206,-0.1075,-0.0923,-0.0905,-0.0844,0.0,0.0,0.0,0.0,0.0,0.0,0.0,0.0,0.0,0.0,0.0,0.0,0.0,0.0,0.0,0.0,0.0,0.0,0.0,0.0,0.0,0.0,0.0,0.0,0.0,0.0,0.0,-0.0382,0.0,0.0,-0.0202,0.0,0.0,0.0,0.0,0.0,0.0,0.0,0.0,0.0,0.0,0.0,0.0,0.0,0.0,0.0,0.0,0.0,0.0,0.0,0.0,0.0,0.0,-0.2643,-0.2516,-0.2655,-0.2516,-0.2015,-0.1569,-0.129,-0.1234,-0.0615,-0.0213,-0.0095,0.0,0.0,0.0,0.0,0.0,0.0,0.0,0.0,0.0,0.0,0.0,0.0,0.0,0.0,0.0,0.0,0.0,0.0,0.0,0.0,0.0,0.0,0.0,0.0,0.0,0.0,-0.0619,-0.0555,-0.0495,0.0,0.0,0.0,0.0,0.0,0.0,0.0,0.0,0.0,-0.2979,-0.2904,-0.3254,-0.467,-0.3909,-0.3125,-0.3011,-0.2522,-0.1806,-0.1018,-0.0923,-0.0969,0.0,0.0,0.0,0.0,0.0,0.0,0.0,0.0,0.0,0.0,0.0,0.0,0.0,0.0,0.0,0.0,0.0,0.0,0.0,0.0,0.0,0.0,0.0,0.0,0.0,0.0,0.0,-0.0082,-0.0394,0.0,0.0,0.0,0.0,0.0,0.0,0.0,0.0,0.0,0.0,0.0,-0.0863,-0.0982,0.0,0.0,0.0,0.0,0.0,0.0,0.0,0.0,0.0,0.0,0.0,0.0,-0.1765,-0.2065,-0.174,-0.1736,-0.2015,-0.1513,-0.0897,-0.0224,-0.0224,0.0162,0.0942,0.0,0.0,0.0,0.0,0.0,0.0,0.0,0.0,0.0,0.0,0.0,0.0,0.0,0.0,0.0,0.0,0.0,0.0,0.0,0.0,0.0,0.0,0.0,0.0,0.0,-0.0661,0.0,0.0,0.0,0.0,0.0,0.0,0.0,0.0,0.0,0.0,-0.1838,-0.2534,-0.3338,-0.4037,-0.4615,-0.4869,-0.4027,-0.3342,0.0,0.0,0.0,0.0,0.0,0.0,0.0,0.0,0.0,0.0,0.0,0.0,0.0,0.0,-0.1029,-0.1017,-0.0851,-0.0576,-0.0394,0.0,0.0,0.0,0.0,0.0,0.0,0.0,0.0,0.0,0.0,0.0,0.0,0.0,0.0,-0.0364,-0.0545,-0.047,0.0,0.0,0.0,0.0,0.0,0.0,0.0,0.0,-0.0753,-0.0746,-0.099,-0.1307,-0.1351,-0.1078,-0.1034,-0.0884,0.0,0.0,0.0,0.0,0.0,0.0,0.0,0.0,-0.152,-0.1769,-0.1443,-0.1345,-0.14,-0.0952,-0.0336,0.0504,0.0504,0.0932,0.1889,0.2012,0.2019,0.0,0.0,0.0,0.0,0.0,0.0,0.0,0.0,0.0,0.0,0.0,0.0,0.0,0.0,0.0,0.0,0.0,0.0,0.0,0.0,0.0,0.0,0.0,-0.0537,0.0,0.0,0.0,0.0,0.0,0.0,0.0,0.0,0.0,-0.1922,-0.2325,-0.2842,-0.332,-0.4363,-0.4912,-0.4395,0.0,0.0,0.0,0.0,0.0,0.0,0.0,-0.0896,-0.0941,-0.0942,-0.1018,-0.113,-0.1073,-0.0981,-0.0776,0.0,0.0,-0.1125,-0.1046,-0.0947,-0.0741,-0.075,-0.0818,-0.0835,-0.0779,-0.0719,0.0,0.0,0.0,0.0,-0.0293,0.0,0.0,0.0,-0.0515,-0.0752,0.0,-0.06,0.0,0.0,0.0,0.0,-0.0448,-0.0674,0.0,0.0,-0.1034,-0.0866,-0.0762,-0.142,-0.1725,-0.1718,-0.1319,-0.1107,-0.1024,-0.0613,0.0,0.0,0.0,0.0,0.0,0.0,-0.1891,-0.1585,-0.1777,-0.1345,-0.0282,-0.0112,0.028,0.0894,0.1454,0.2071,0.2625,0.2434,0.2291,0.2324,0.1715,0.0,0.0,0.0,0.0,0.0,0.0,0.0,0.0,0.0,0.0,0.0,0.0,0.0,0.0,0.0,0.0,0.0,0.0,0.0,0.0,-0.0652,0.0,0.0,0.0,0.0,0.0,0.0,0.0,0.0,0.0,-0.2571,-0.3829,-0.3104,-0.2565,-0.2939,0.0,0.0,0.0,0.0,-0.2647,-0.2667,-0.1741,-0.1004,-0.092,-0.093,-0.0975,-0.089,0.0,0.0,-0.1082,-0.1082,-0.1146,-0.1113,-0.1161,-0.1186,-0.1156,-0.112,-0.1101,-0.1101,-0.1144,-0.1186,-0.1246,-0.126,-0.1193,0.1268,0.0,0.0,0.0,0.0,-0.0383,-0.0523,-0.0634,-0.0746,-0.0961,-0.1166,-0.1108,0.0,0.0,0.0,0.0,0.0,0.0,-0.147,-0.1406,-0.1499,-0.1294,-0.0847,-0.0791,-0.0781,-0.0763,-0.0553,-0.0496,-0.0433,-0.0494,-0.0624,-0.0914,0.0,0.0,0.0,0.0,-0.0879,-0.0812,-0.0651,-0.0459,-0.024,-0.0057,0.0392,0.1174,0.179,0.2296,0.2691,0.2615,0.2513,0.238,0.2163,0.0,0.0,0.0,0.0,0.0,0.0,0.0,0.0,0.0,0.0,0.0,0.0,0.0,0.0,0.0,0.0,0.0,0.0,0.0,-0.0751,-0.0693,-0.0597,0.0,0.0,0.0,0.0,0.0,0.0,0.0,0.0,0.0,-0.3078,-0.2123,-0.1583,0.0,0.0,-0.2055,-0.2379,-0.1922,-0.161,-0.2037,-0.1501,0.0,-0.098,-0.0967,-0.0967,-0.0939,-0.1089,-0.1151,-0.1142,-0.1176,-0.1203,-0.1267,-0.1282,-0.1291,-0.1206,-0.1164,-0.1201,-0.1199,-0.1209,-0.1219,-0.122,-0.122,-0.1218,0.1918,0.1834,0.0826,0.0531,0.0655,0.0303,-0.0258,-0.0958,-0.1034,-0.1019,-0.0926,-0.0963,-0.0926,-0.0918,-0.0976,0.0,0.0,0.0,-0.1845,-0.1679,-0.1883,-0.171,-0.12,-0.03,0.0178,0.0117,-0.0119,-0.024,-0.03,-0.0363,-0.0545,-0.0772,0.0,-0.0577,-0.0779,-0.045,-0.0347,-0.0379,-0.0169,-0.0,0.0185,0.0528,0.097,0.1483,0.186,0.2128,0.2352,0.2465,0.2473,0.2319,0.2369,0.224,0.0,0.0,0.0,0.0,0.0,0.0,0.0,0.0,0.0,0.0,0.0,-0.0421,-0.0471,0.0,0.0,0.0,-0.0523,-0.0632,-0.0742,-0.0738,0.0,0.0,0.0,0.0,0.0,0.0,0.0,-0.1582,-0.1885,-0.2079,-0.2099,-0.1454,-0.1281,-0.2013,-0.1657,-0.1529,-0.1979,0.0,-0.1221,-0.1784,-0.1357,-0.0994,-0.1012,-0.1005,-0.102,-0.1024,-0.1148,-0.1188,-0.1202,-0.1312,-0.1335,-0.1336,-0.1336,-0.1336,-0.1336,-0.1304,-0.1203,-0.1202,-0.1217,-0.1229,-0.123,-0.123,-0.123,0.265,0.3747,0.2311,0.1898,0.2133,0.1365,0.0301,-0.0923,-0.1113,-0.0866,-0.0308,-0.03,-0.0407,-0.062,-0.1062,0.0,-0.2047,-0.2167,-0.2121,-0.1986,-0.1986,-0.1798,-0.1488,0.0186,0.0991,0.0988,0.0124,-0.031,-0.0248,-0.0242,-0.0234,-0.0283,0.0274,0.0312,-0.0097,-0.005,-0.0105,-0.0169,-0.0116,0.0179,0.08,0.144,0.1714,0.1763,0.1771,0.1796,0.179,0.2071,0.2184,0.2178,0.2245,0.2307,0.2276,0.0,0.0,0.0,0.0,0.0,0.0,0.0,0.0,0.0,0.0,0.0,0.0,0.0,0.0,0.0,-0.0732,0.0,-0.0818,-0.0721,0.0,0.0,0.0,-0.0874,-0.1273,-0.1113,-0.1239,-0.1774,0.0,0.0,-0.1187,-0.1093,-0.1312,-0.1933,-0.1994,-0.1967,-0.1856,-0.1322,-0.1209,-0.1616,-0.1242,-0.0871,-0.0691,-0.0718,-0.0761,-0.0815,-0.0985,-0.0918,-0.0935,-0.102,-0.11,-0.1021,-0.1099,-0.11,-0.1099,-0.1097,-0.1258,-0.1175,-0.1252,-0.1252,-0.1249,-0.1245,-0.1243,0.4566,0.4392,0.4251,0.3339,0.1894,0.1073,0.0375,-0.0123,-0.0252,0.0063,0.0741,0.0736,0.0304,-0.0483,-0.1401,-0.1478,-0.0874,-0.1791,-0.215,-0.2045,-0.0461,0.0326,0.0446,0.0894,0.1074,0.1053,0.0822,0.0639,0.064,0.0713,0.0763,0.0726,0.0839,0.0799,0.0626,0.043,0.0227,0.0181,0.0475,0.0718,0.0925,0.1129,0.1299,0.1475,0.1463,0.1611,0.1793,0.1846,0.1903,0.1902,0.2078,0.2162,0.2096,0.2096,0.0,0.0,0.0,0.0,0.0,0.0,0.0,0.0,0.0,-0.0543,-0.0734,0.0,-0.0535,0.0,-0.0777,-0.0875,-0.0883,-0.0869,0.0,0.0,-0.0865,-0.0925,-0.1225,-0.1086,-0.1064,-0.1152,-0.1335,-0.145,-0.1449,-0.1268,-0.1224,-0.1457,-0.1347,-0.1244,-0.1174,-0.1077,-0.0836,-0.0511,-0.0324,-0.0,0.0463,0.0621,0.065,0.0676,0.0691,0.0701,0.0705,0.0706,0.0706,0.0627,0.0157,-0.0,0.047,-0.0314,-0.0942,-0.0548,-0.0773,-0.1222,-0.1223,-0.1206,-0.1196,0.5103,0.4634,0.4827,0.4088,0.2834,0.2345,0.1685,0.1024,0.065,0.0714,0.109,0.0834,0.0449,-0.0129,-0.0978,-0.0984,-0.046,-0.0667,-0.1008,-0.1344,0.0336,0.1067,0.1117,0.1117,0.1109,0.1092,0.1044,0.1052,0.1053,0.1068,0.1125,0.1092,0.1091,0.0996,0.0935,0.0739,0.0637,0.0617,0.08,0.0998,0.1026,0.1018,0.1053,0.1181,0.1146,0.1212,0.1361,0.1462,0.1514,0.1514,0.1828,0.1951,0.1871,0.1886,0.1815,0.0,0.0,0.0,0.0,0.0,0.0,0.0,0.0,0.0,0.0,0.0,-0.0629,-0.0643,-0.0795,-0.0881,-0.0907,-0.0864,-0.0932,-0.1003,-0.1075,-0.1155,-0.1371,-0.1311,-0.1212,-0.1003,-0.1159,-0.1444,-0.1771,-0.1707,-0.1519,-0.1476,-0.1245,-0.1091,-0.1028,-0.0781,-0.0394,-0.0066,0.0266,0.0608,0.1093,0.1204,0.1246,0.1279,0.1311,0.1332,0.1332,0.1332,0.1332,0.1254,0.0861,0.0705,0.1175,0.0549,0.0078,0.0312,0.023,-0.0304,-0.1075,-0.1219,-0.1213,0.5024,0.4691,0.4761,0.4563,0.4212,0.4177,0.3531,0.2451,0.172,0.126,0.1067,0.0603,0.0403,0.0336,-0.0067,-0.0336,-0.0269,0.0672,0.0605,-0.0202,0.0672,0.1076,0.1076,0.1076,0.1076,0.1076,0.1076,0.1076,0.1076,0.1076,0.1074,0.107,0.1071,0.1056,0.1026,0.0949,0.0935,0.0988,0.1018,0.1046,0.1068,0.1016,0.0972,0.0879,0.0885,0.0879,0.0813,0.1005,0.1149,0.1143,0.1476,0.1676,0.1638,0.1548,0.1425,0.0,0.0819,0.0,0.0,0.0,0.0,0.0,0.0,0.0,0.0,-0.0717,-0.0753,-0.074,-0.0864,-0.0924,-0.0934,-0.0955,-0.1043,-0.1255,-0.1292,-0.1451,-0.1615,-0.1589,-0.1547,-0.1277,-0.1479,-0.1748,-0.2084,-0.2221,-0.2018,-0.1681,-0.1342,-0.1137,-0.1007,-0.0469,-0.0,0.0201,0.0876,0.1367,0.1402,0.1366,0.1476,0.1512,0.1623,0.1567,0.1724,0.1724,0.1646,0.1646,0.1567,0.1488,0.1567,0.1488,0.1332,0.141,0.1311,0.0764,-0.0465,-0.0774,-0.0935,0.5822,0.5292,0.5752,0.5404,0.4728,0.5077,0.4767,0.3825,0.3134,0.2161,0.1107,0.0999,0.0941,0.0941,0.0806,0.0806,0.0806,0.1008,0.1008,0.0806,0.1008,0.1076,0.1076,0.1076,0.1076,0.1076,0.1076,0.1076,0.1076,0.1076,0.113,0.1107,0.1042,0.1027,0.106,0.0,0.0,0.0,0.1018,0.1036,0.0975,0.1007,0.0962,0.0909,0.0895,0.0,0.0818,0.0835,0.0886,0.0909,0.1239,0.0,0.0,0.0,0.0,0.0,0.0,0.0,0.0,0.0,0.0,0.0,-0.0928,-0.0885,-0.0793,-0.0822,-0.0935,-0.1078,-0.097,-0.0958,-0.1179,-0.1252,-0.1335,-0.1506,-0.1517,-0.1593,-0.1802,-0.1676,-0.1681,-0.1951,-0.1748,-0.1748,-0.2153,-0.2221,-0.2085,-0.1816,-0.1277,-0.0941,-0.0806,-0.0336,0.047,0.1545,0.2052,0.2311,0.2087,0.2066,0.2189,0.2633,0.2734,0.2823,0.3136,0.3212,0.329,0.3212,0.2744,0.2508,0.3136,0.2272,0.1567,0.2117,0.1717,0.124,0.0916,0.0823,0.0816,0.6097,0.5693,0.5815,0.5508,0.0,0.5182,0.4998,0.4571,0.4195,0.3505,0.264,0.1606,0.1078,0.1076,0.1128,0.1055,0.1054,0.1104,0.1106,0.1121,0.1121,0.1129,0.1076,0.1076,0.1076,0.1076,0.1076,0.1076,0.1076,0.1076,0.1068,0.112,0.1054,0.1046,0.1096,0.1096,0.1025,0.1011,0.1026,0.0976,0.1052,0.1026,0.0989,0.0943,0.0913,0.0,0.0,0.0,0.0,0.0,0.0,0.0,0.0,0.0,0.0,0.1222,0.0973,0.0684,0.0379,-0.0238,-0.0689,-0.0899,-0.1152,-0.125,-0.1065,-0.1166,-0.1302,-0.1383,-0.1301,-0.1276,-0.1442,-0.1448,-0.1523,-0.1745,-0.1748,-0.1816,-0.2018,-0.1951,-0.1951,-0.2153,-0.2018,-0.2018,-0.2154,-0.2221,-0.2018,-0.1681,-0.121,-0.074,-0.0134,0.0336,0.0944,0.2052,0.2356,0.2416,0.2354,0.2397,0.244,0.2728,0.2824,0.2902,0.3137,0.3294,0.3452,0.3452,0.3059,0.2981,0.3215,0.2588,0.2037,0.2353,0.2195,0.1876,0.185,0.1599,0.1288,0.6423,0.6133,0.5926,0.5647,0.5274,0.5087,0.496,0.4862,0.4841,0.0,0.0,0.2014,0.128,0.1279,0.1183,0.1042,0.0975,0.1015,0.1081,0.1106,0.1107,0.112,0.1075,0.1076,0.1076,0.1076,0.1076,0.1076,0.1076,0.1076,0.1076,0.1144,0.121,0.1277,0.1344,0.121,0.1131,0.1238,0.1102,0.1044,0.1066,0.117,0.1199,0.1225,0.1106,0.1041,0.1021,0.0896,0.0833,0.0829,0.078,0.0746,0.0827,0.0877,0.0983,0.1046,0.0918,0.0783,0.0624,-0.0224,-0.0746,-0.0936,-0.1409,-0.1634,-0.139,-0.149,-0.1623,-0.1623,-0.1659,-0.1613,-0.1614,-0.1614,-0.1748,-0.1951,-0.1951,-0.2018,-0.2154,-0.2085,-0.2018,-0.2154,-0.2154,-0.2085,-0.1884,-0.2018,-0.1956,-0.1286,-0.095,-0.0475,0.0613,0.1091,0.1509,0.1967,0.2136,0.2099,0.2167,0.213,0.2225,0.2344,0.2431,0.2431,0.251,0.2746,0.2982,0.2982,0.2982,0.2982,0.2982,0.2668,0.251,0.251,0.251,0.251,0.2431,0.1959,0.1564,0.7433,0.698,0.6907,0.6619,0.6128,0.5518,0.5099,0.4792,0.4549,0.3623,0.2397,0.2121,0.2013,0.2018,0.1407,0.1071,0.1005,0.0933,0.0932,0.1003,0.1069,0.1072,0.1076,0.1076,0.1076,0.1076,0.1076,0.1077,0.1079,0.1079,0.1078,0.1146,0.1683,0.2151,0.2351,0.1549,0.1412,0.2007,0.1372,0.1035,0.1036,0.1638,0.2016,0.2189,0.182,0.1641,0.1746,0.1191,0.0867,0.0894,0.0892,0.0865,0.0919,0.0956,0.1022,0.1017,0.0959,0.0781,0.0365,-0.0248,-0.1022,-0.192,-0.207,-0.1975,-0.1654,-0.1636,-0.1672,-0.1805,-0.1744,-0.1681,-0.1816,-0.1883,-0.1951,-0.2085,-0.2153,-0.2153,-0.2153,-0.1681,-0.1614,-0.2018,-0.2221,-0.1748,-0.1008,-0.1481,-0.1631,-0.083,-0.0348,0.0211,0.0998,0.1697,0.1908,0.1807,0.1776,0.1651,0.1517,0.1467,0.1638,0.1958,0.196,0.2038,0.2353,0.251,0.2588,0.2588,0.2588,0.2588,0.2588,0.2588,0.2431,0.2431,0.2431,0.2431,0.2431,0.2275,0.2273,0.7633,0.732,0.7581,0.7449,0.6945,0.5758,0.496,0.452,0.4365,0.3917,0.3298,0.327,0.3023,0.242,0.1323,0.0855,0.1054,0.1036,0.0972,0.0986,0.1053,0.1128,0.1074,0.1076,0.1076,0.1078,0.1078,0.1078,0.1079,0.0945,0.0877,0.0877,0.2429,0.3103,0.2686,0.2224,0.2158,0.2487,0.1928,0.1452,0.1054,0.1952,0.2761,0.3421,0.262,0.2257,0.243,0.1773,0.1409,0.1561,0.1156,0.0946,0.0988,0.1041,0.1053,0.1031,0.1021,0.0955,0.0776,0.0196,-0.0729,-0.2017,-0.1884,-0.1808,-0.1983,-0.1936,-0.1951,-0.2018,-0.1951,-0.1951,-0.2085,-0.2085,-0.2085,-0.2221,-0.1951,-0.1681,-0.1614,-0.121,-0.1008,-0.121,-0.1277,-0.0873,0.0269,-0.0,-0.0345,-0.0,0.0354,0.0795,0.1113,0.1475,0.1616,0.1487,0.1429,0.137,0.1233,0.1247,0.1335,0.157,0.157,0.1649,0.1884,0.1962,0.2195,0.2195,0.2195,0.2195,0.2195,0.1962,0.1884,0.1884,0.1805,0.1805,0.1884,0.1884,0.1962,0.8198,0.7932,0.8065,0.776,0.6999,0.6069,0.5422,0.5075,0.5444,0.5112,0.4532,0.436,0.3806,0.2913,0.1513,0.1105,0.1494,0.1209,0.1085,0.1042,0.1109,0.1121,0.1075,0.1076,0.1078,0.1079,0.1012,0.1012,0.108,0.0877,0.0876,0.1212,0.3242,0.3782,0.2751,0.2965,0.2898,0.2619,0.2637,0.2301,0.1545,0.2567,0.3515,0.4167,0.3377,0.295,0.3081,0.2314,0.1969,0.2099,0.1408,0.1034,0.1043,0.105,0.1127,0.1073,0.1055,0.1053,0.1073,0.0605,-0.0336,-0.1681,-0.1412,-0.1412,-0.2085,-0.2085,-0.2085,-0.2154,-0.2154,-0.2221,-0.2221,-0.2221,-0.2153,-0.2018,-0.1614,-0.1277,-0.1076,-0.0672,-0.0403,-0.047,-0.0336,0.0202,0.0878,0.124,0.1056,0.0643,0.0876,0.1122,0.1217,0.1222,0.1222,0.1222,0.1222,0.1231,0.1333,0.1335,0.1415,0.1492,0.1414,0.1649,0.1804,0.2117,0.2038,0.2117,0.2117,0.196,0.1804,0.157,0.1414,0.1415,0.1415,0.1336,0.1415,0.1335,0.1414,0.9813,0.94,0.8641,0.7086,0.568,0.6689,0.7166,0.7327,0.8646,0.7627,0.4976,0.4504,0.425,0.3961,0.2567,0.2336,0.2813,0.1668,0.1134,0.107,0.1072,0.1075,0.1078,0.1078,0.1078,0.1079,0.0809,0.0809,0.1214,0.1079,0.155,0.2487,0.3703,0.3835,0.3084,0.3701,0.35,0.2216,0.358,0.3717,0.2688,0.3714,0.434,0.4295,0.3842,0.368,0.3811,0.2704,0.2149,0.2293,0.1557,0.1125,0.1085,0.1099,0.1102,0.1081,0.1074,0.1074,0.1076,0.0605,0.0067,-0.0538,-0.0605,-0.0941,-0.1951,-0.1681,-0.1614,-0.2085,-0.2221,-0.2153,-0.2221,-0.2153,-0.1884,-0.1479,-0.1277,-0.1143,-0.0605,-0.0134,0.0067,-0.047,0.0336,0.1008,0.1082,0.1247,0.1217,0.1118,0.1143,0.124,0.1246,0.1326,0.1327,0.1251,0.1331,0.133,0.1336,0.1336,0.1649,0.2119,0.1806,0.204,0.2741,0.282,0.2431,0.2586,0.2508,0.2275,0.1805,0.1336,0.1414,0.1649,0.157,0.1335,0.1336,0.1336,0.1335,1.0007,0.9686,0.9755,0.8851,0.7497,0.7253,0.7285,0.7466,0.7112,0.6231,0.5136,0.4806,0.4579,0.4367,0.3689,0.3438,0.3372,0.3117,0.2285,0.1141,0.0671,0.0671,0.1008,0.0605,0.1279,0.2762,0.155,0.1347,0.202,0.1546,0.1812,0.3155,0.3971,0.4102,0.3751,0.4105,0.3999,0.3573,0.4173,0.4276,0.4012,0.4341,0.4632,0.4658,0.4412,0.4369,0.4375,0.3516,0.2798,0.2512,0.145,0.0723,0.0778,0.0714,0.0851,0.1037,0.1087,0.1078,0.1078,0.0876,0.0673,0.047,0.047,0.0202,-0.0269,-0.121,-0.1951,-0.2085,-0.1883,-0.1547,-0.1277,-0.121,-0.1076,-0.0806,-0.0538,-0.0269,-0.0067,0.047,0.0672,0.0538,0.0806,0.1083,0.1174,0.1216,0.1264,0.1307,0.133,0.1335,0.1336,0.1336,0.1336,0.1336,0.1336,0.1336,0.1336,0.1728,0.2119,0.2433,0.2743,0.3209,0.3519,0.3597,0.3288,0.3288,0.3288,0.321,0.2974,0.2818,0.274,0.2663,0.2196,0.1884,0.1415,0.1336,0.1336,1.0137,0.99,0.9976,0.9145,0.7838,0.6768,0.6489,0.6689,0.5529,0.4985,0.498,0.4994,0.4819,0.4624,0.448,0.4186,0.3804,0.4144,0.3493,0.2011,0.1407,0.1475,0.1878,0.1478,0.2016,0.3297,0.256,0.2424,0.3092,0.2684,0.2748,0.3487,0.41,0.437,0.4295,0.4306,0.4349,0.4425,0.449,0.4649,0.4729,0.4795,0.4871,0.4957,0.4837,0.4784,0.4865,0.413,0.3611,0.3314,0.1482,0.037,0.0365,0.0367,0.0581,0.0984,0.0895,0.0815,0.081,0.0877,0.1011,0.1077,0.101,0.0875,0.0605,-0.0605,-0.1547,-0.1883,-0.1479,-0.1076,-0.0605,-0.0403,-0.0403,-0.0336,0.0067,0.0336,0.0538,0.0873,0.1076,0.1076,0.1076,0.1159,0.12,0.1243,0.1208,0.1324,0.1335,0.1336,0.1336,0.1336,0.1335,0.1571,0.1649,0.1649,0.1649,0.2041,0.251,0.3134,0.3677,0.383,0.4222,0.4377,0.4144,0.4146,0.4144,0.3908,0.3519,0.3597,0.383,0.3677,0.3132,0.2431,0.1885,0.1571,0.1336,1.0663,1.0207,0.8675,0.7003,0.5246,0.5234,0.516,0.5323,0.5012,0.5015,0.5012,0.5007,0.4939,0.4726,0.4722,0.4554,0.4258,0.4308,0.4233,0.3964,0.3971,0.4043,0.4177,0.411,0.3431,0.2753,0.35,0.3703,0.3362,0.4442,0.4506,0.3353,0.4225,0.4567,0.4364,0.43,0.4311,0.436,0.4604,0.4809,0.4927,0.4963,0.4871,0.5003,0.4853,0.4763,0.4766,0.4473,0.4402,0.4777,0.1697,-0.0,-0.0,-0.0,0.0369,0.0919,0.042,-0.0,-0.0,0.0337,0.0674,0.0944,0.0741,0.0404,0.0202,0.0134,-0.0336,-0.1076,-0.121,-0.0941,-0.0471,-0.0134,-0.0,0.0067,0.0202,0.0538,0.1008,0.1009,0.1076,0.1076,0.1081,0.1175,0.13,0.1239,0.1202,0.1319,0.1336,0.1336,0.1336,0.1336,0.1571,0.2041,0.2276,0.2431,0.2433,0.2823,0.3446,0.399,0.4302,0.438,0.5162,0.5634,0.524,0.4927,0.4927,0.4691,0.4066,0.391,0.3988,0.3832,0.3366,0.2821,0.2588,0.1805,0.1571,0.9755,0.9377,0.8147,0.7153,0.6626,0.6574,0.6035,0.5018,0.5018,0.5018,0.5018,0.5018,0.4906,0.4713,0.4701,0.4593,0.4409,0.4333,0.4303,0.4303,0.4303,0.4306,0.4306,0.4306,0.4102,0.3694,0.4038,0.4244,0.4236,0.4567,0.4564,0.4289,0.4359,0.4425,0.4292,0.4298,0.4338,0.4423,0.445,0.4632,0.4845,0.3949,0.3893,0.4901,0.4939,0.4966,0.4974,0.4822,0.3885,0.1938,-0.0,-0.0,-0.0,-0.0,0.0075,0.0361,0.0142,-0.0,-0.0,0.0067,0.0202,0.0337,0.027,-0.0,0.0067,0.0067,-0.0202,-0.0876,-0.1078,-0.0808,-0.0067,0.0269,0.0404,0.0674,0.0741,0.0876,0.101,0.1078,0.1077,0.1082,0.1106,0.1216,0.1238,0.1275,0.1232,0.133,0.1336,0.1336,0.1336,0.1336,0.1414,0.1649,0.1727,0.2118,0.3288,0.3834,0.438,0.4849,0.516,0.5473,0.6025,0.6025,0.5709,0.5631,0.5709,0.5631,0.5082,0.5082,0.5004,0.4535,0.4068,0.36,0.3444,0.2665,0.2196,0.8694,0.8003,0.7387,0.693,0.6703,0.6729,0.6032,0.5018,0.5018,0.5018,0.5018,0.5018,0.4904,0.4727,0.467,0.466,0.4535,0.4355,0.4303,0.4303,0.4303,0.4303,0.4303,0.4303,0.4303,0.4303,0.4306,0.4375,0.4506,0.4361,0.4425,0.4564,0.4425,0.4289,0.4292,0.4298,0.4346,0.4423,0.4405,0.4583,0.4651,0.3799,0.3251,0.3554,0.4431,0.5004,0.4961,0.4012,0.2435,-0.0,-0.0,-0.0,-0.0,-0.0,-0.0,-0.0,-0.0,-0.0,-0.0,-0.0,-0.0,-0.0,-0.0,-0.0,-0.0,-0.0,-0.0,-0.0607,-0.0742,-0.0405,0.0135,0.0337,0.0472,0.0742,0.0809,0.0877,0.0945,0.1012,0.1083,0.1095,0.1123,0.1154,0.1254,0.1217,0.1241,0.1333,0.1336,0.1336,0.1336,0.1336,0.1414,0.1649,0.2118,0.2898,0.391,0.4771,0.5162,0.5553,0.5631,0.6103,0.6261,0.6261,0.6261,0.6261,0.6261,0.6261,0.6261,0.6261,0.5944,0.5473,0.4927,0.438,0.399,0.3522,0.2976,0.7702,0.6395,0.624,0.586,0.5401,0.5249,0.5096,0.5018,0.5018,0.5018,0.5018,0.5018,0.4944,0.4822,0.4789,0.4668,0.4485,0.4371,0.4311,0.4303,0.4303,0.4303,0.4303,0.4303,0.4303,0.4303,0.4303,0.4303,0.43,0.43,0.43,0.43,0.43,0.43,0.4303,0.4303,0.4308,0.4276,0.429,0.4217,0.431,0.4198,0.3031,0.0981,0.3114,0.4545,0.4633,0.1884,-0.0,-0.0,-0.0,-0.0,-0.0,-0.0,-0.0,-0.0,-0.0,-0.0,-0.0,-0.0,-0.0,-0.0,-0.0,-0.0,-0.0,-0.0,-0.0,-0.0,-0.0,-0.0,-0.0,-0.0,-0.0,0.0067,0.0337,0.0472,0.0607,0.0878,0.109,0.1112,0.106,0.115,0.1267,0.1219,0.1234,0.1251,0.1336,0.1336,0.1336,0.1336,0.1649,0.2276,0.2743,0.3365,0.4535,0.5631,0.5944,0.6257,0.618,0.6261,0.6261,0.6261,0.6261,0.6261,0.6261,0.6261,0.6261,0.6261,0.6261,0.5867,0.5476,0.5162,0.4849,0.4382,0.3522,0.6703,0.6167,0.5631,0.5553,0.5705,0.5246,0.5018,0.5018,0.5018,0.5018,0.5018,0.5018,0.4947,0.4849,0.4864,0.4784,0.4591,0.4402,0.4306,0.4311,0.4303,0.4303,0.4303,0.4303,0.4303,0.4303,0.4303,0.4303,0.4303,0.4303,0.4303,0.4303,0.43,0.4306,0.4172,0.4317,0.4322,0.4056,0.2378,0.1445,0.1331,-0.0,-0.0,0.0295,0.105,0.1597,0.1532,0.0545,-0.0,-0.0,-0.0,-0.0,-0.0,-0.0,-0.0,-0.0,-0.0,-0.0,-0.0,-0.0,-0.0,-0.0,-0.0,-0.0,-0.0,-0.0,-0.0,-0.0,-0.0,-0.0,-0.0,-0.0,-0.0,-0.0,0.0067,-0.0,0.0203,0.0479,0.0763,0.0983,0.0868,0.0893,0.121,0.1226,0.1245,0.1332,0.1336,0.1336,0.1336,0.1336,0.1336,0.1728,0.2586,0.3522,0.4302,0.5318,0.6103,0.6261,0.6261,0.6261,0.6261,0.6261,0.6261,0.6261,0.6261,0.6261,0.6261,0.6261,0.6261,0.6261,0.5944,0.5789,0.5789,0.524,0.438,0.5851,0.547,0.5087,0.5168,0.5625,0.5171,0.5018,0.5018,0.5018,0.5018,0.5018,0.5018,0.4974,0.4904,0.4936,0.4919,0.472,0.4596,0.4477,0.4314,0.4303,0.4303,0.4167,0.3692,0.3151,0.3017,0.3763,0.4306,0.4306,0.4306,0.4306,0.4236,0.3288,0.2681,0.282,0.323,0.371,0.3919,0.2563,0.1087,-0.0,-0.0,-0.0,-0.0,-0.0,-0.0,-0.0,-0.0,-0.0,-0.0,-0.0,-0.0,-0.0,-0.0,-0.0,-0.0,-0.0,-0.0,-0.0,-0.0,-0.0,-0.0,-0.0,-0.0,-0.0,-0.0,-0.0,-0.0,-0.0,-0.0,-0.0,-0.0,-0.0,-0.0,-0.0,-0.0,-0.0,0.0207,0.0352,0.0572,0.0443,0.0529,0.0692,0.1009,0.11,0.1258,0.1336,0.1336,0.1336,0.1336,0.1258,0.1649,0.2665,0.3365,0.383,0.4927,0.6106,0.6261,0.6261,0.6261,0.6261,0.6261,0.6261,0.6261,0.6261,0.6261,0.6261,0.6261,0.6261,0.6261,0.6261,0.618,0.6025,0.5867,0.524,0.5231,0.4462,0.4621,0.4701,0.4779,0.494,0.5018,0.5018,0.5018,0.5018,0.5018,0.5018,0.5004,0.4974,0.5028,0.4919,0.472,0.4812,0.4634,0.4414,0.4314,0.4236,0.3825,0.2616,0.1475,0.0871,0.2686,0.3837,0.3904,0.4177,0.4317,0.411,0.1744,-0.0,-0.0,0.1409,0.2557,0.3442,0.3578,0.2228,-0.0,-0.0,-0.0,-0.0,-0.0,-0.0,-0.0,-0.0,-0.0,-0.0,-0.0,-0.0,-0.0,-0.0,-0.0,-0.0,-0.0,-0.0,-0.0,-0.0,-0.0,-0.0,-0.0,-0.0,-0.0,-0.0,-0.0,-0.0,-0.0,-0.0,-0.0,-0.0,-0.0,-0.0,-0.0,-0.0,-0.0,-0.0,-0.0,-0.0,-0.0,-0.0,-0.0,0.0392,0.0707,0.1022,0.1179,0.1258,0.1179,0.11,0.1179,0.1727,0.243,0.3288,0.3832,0.5165,0.619,0.587,0.6022,0.6257,0.6257,0.6261,0.6261,0.6261,0.6261,0.6261,0.6261,0.6261,0.6261,0.6261,0.6261,0.6261,0.618,0.6103,0.5709,0.4774,0.4462,0.4621,0.4701,0.4701,0.4937,0.5015,0.5015,0.5012,0.4999,0.5012,0.5018,0.4955,0.4882,0.5003,0.4919,0.4715,0.4531,0.4544,0.4568,0.4422,0.3636,0.2613,0.1274,0.047,0.0201,-0.0,0.1679,0.2686,0.3634,0.4115,0.4188,-0.0,-0.0,-0.0,-0.0,0.0673,0.1078,-0.0,-0.0,-0.0,-0.0,-0.0,-0.0,-0.0,-0.0,-0.0,-0.0,-0.0,-0.0,-0.0,-0.0,-0.0,-0.0,-0.0,-0.0,-0.0,-0.0,-0.0,-0.0,-0.0,-0.0,-0.0,-0.0,-0.0,-0.0,-0.0,-0.0,-0.0,-0.0,-0.0,-0.0,-0.0,-0.0,-0.0,-0.0,-0.0,-0.0,-0.0,-0.0,-0.0,-0.0,-0.0,-0.0,-0.0,-0.0,0.0786,0.11,0.0864,0.0629,0.0629,0.1099,0.1882,0.2898,0.3992,0.5404,0.6032,0.5553,0.5709,0.6257,0.6257,0.6261,0.6261,0.6261,0.6261,0.6261,0.6261,0.6261,0.6261,0.6261,0.6261,0.6261,0.6261,0.618,0.5789,0.4358,0.4162,0.4351,0.4483,0.4485,0.4787,0.4941,0.5017,0.5019,0.4941,0.4863,0.4866,0.4825,0.4762,0.4831,0.4764,0.4575,0.4364,0.403,0.3635,0.4069,0.3842,0.3025,0.2084,0.1209,-0.0,-0.0,-0.0,0.1209,0.2153,0.2424,0.2155,0.0808,-0.0,-0.0,-0.0,-0.0,-0.0,-0.0,-0.0,-0.0,-0.0,-0.0,-0.0,-0.0,-0.0,-0.0,-0.0,-0.0,-0.0,-0.0,-0.0,-0.0,-0.0,-0.0,-0.0,-0.0,-0.0,-0.0,-0.0,-0.0,-0.0,-0.0,-0.0,-0.0,-0.0,-0.0,-0.0,-0.0,-0.0,-0.0,-0.0,-0.0,-0.0,-0.0,-0.0,-0.0,-0.0,-0.0,-0.0,-0.0,-0.0,-0.0,-0.0,-0.0,-0.0,-0.0,0.0471,0.0393,-0.0,-0.0,-0.0,-0.0,0.188,0.321,0.4621,0.5326,0.5004,0.516,0.5709,0.6257,0.6261,0.6261,0.6261,0.6261,0.6261,0.6261,0.6261,0.6261,0.6261,0.6261,0.6261,0.6261,0.6261,0.5944,0.4056,0.3907,0.404,0.4077,0.4232,0.4587,0.4829,0.4957,0.4974,0.4823,0.4675,0.4662,0.4667,0.4709,0.4706,0.464,0.4455,0.4375,0.3219,0.2707,0.2958,0.3504,0.4051,0.3847,0.2695,-0.0,-0.0,-0.0,-0.0,-0.0,-0.0,-0.0,-0.0,-0.0,-0.0,-0.0,-0.0,-0.0,-0.0,-0.0,-0.0,-0.0,-0.0,-0.0,-0.0,-0.0,-0.0,-0.0,-0.0,-0.0,-0.0,-0.0,-0.0,-0.0,-0.0,-0.0,-0.0,-0.0,-0.0,-0.0,-0.0,-0.0,-0.0,-0.0,-0.0,-0.0,-0.0,-0.0,-0.0,-0.0,-0.0,-0.0,-0.0,-0.0,-0.0,-0.0,-0.0,-0.0,-0.0,-0.0,-0.0,-0.0,-0.0,-0.0,-0.0,-0.0,-0.0,-0.0,-0.0,-0.0,-0.0,-0.0,-0.0,0.0784,0.2193,0.3679,0.4224,0.438,0.4535,0.5082,0.6103,0.6261,0.6261,0.6261,0.6261,0.6261,0.6261,0.6261,0.6261,0.6261,0.6261,0.6261,0.6261,0.6261,0.6103,0.4092,0.3962,0.4087,0.415,0.4297,0.4584,0.4723,0.472,0.472,0.4632,0.4426,0.4354,0.4451,0.4518,0.4658,0.4596,0.4298,0.4157,0.2976,0.0674,0.0673,0.2359,0.3715,0.4056,0.3782,0.2627,0.0876,-0.0,-0.0,-0.0,-0.0,-0.0,-0.0,-0.0,-0.0,-0.0,-0.0,-0.0,-0.0,-0.0,-0.0,-0.0,-0.0,-0.0,-0.0,-0.0,-0.0,-0.0,-0.0,-0.0,-0.0,-0.0,-0.0,-0.0,-0.0,-0.0,-0.0,-0.0,-0.0,-0.0,-0.0,-0.0,-0.0,-0.0,-0.0,-0.0,-0.0,-0.0,-0.0,-0.0,-0.0,-0.0,-0.0,-0.0,-0.0,-0.0,-0.0,-0.0,-0.0,-0.0,-0.0,-0.0,-0.0,-0.0,-0.0,-0.0,-0.0,-0.0,-0.0,-0.0,-0.0,-0.0,-0.0,-0.0,0.1175,0.2584,0.3288,0.3834,0.4146,0.4377,0.5395,0.6103,0.6103,0.618,0.6261,0.6261,0.6261,0.6261,0.6261,0.6261,0.6261,0.6261,0.6261,0.6261,0.6261,0.4029,0.407,0.4019,0.4067,0.4209,0.4418,0.4488,0.4488,0.4488,0.4415,0.4346,0.4281,0.4389,0.4409,0.4404,0.4092,0.3578,0.3984,0.2764,-0.0,-0.0,0.0876,0.182,0.2293,0.229,0.2221,0.2357,0.1414,-0.0,-0.0,-0.0,-0.0,-0.0,-0.0,-0.0,-0.0,-0.0,-0.0,-0.0,-0.0,-0.0,-0.0,-0.0,-0.0,-0.0,-0.0,-0.0,-0.0,-0.0,-0.0,-0.0,-0.0,-0.0,-0.0,-0.0,-0.0,-0.0,-0.0,-0.0,-0.0,-0.0,-0.0,-0.0,-0.0,-0.0,-0.0,-0.0,-0.0,-0.0,-0.0,-0.0,-0.0,-0.0,-0.0,-0.0,-0.0,-0.0,-0.0,-0.0,-0.0,-0.0,-0.0,-0.0,-0.0,-0.0,-0.0,-0.0,-0.0,-0.0,-0.0,-0.0,-0.0,-0.0,-0.0,-0.0,0.1411,0.2507,0.321,0.3759,0.399,0.4535,0.524,0.5789,0.5944,0.6025,0.6257,0.6261,0.6261,0.6261,0.6261,0.6261,0.6261,0.6261,0.6261,0.6261,0.4016,0.4168,0.3934,0.3894,0.403,0.4241,0.4319,0.4311,0.4303,0.3924,0.3629,0.3632,0.352,0.4185,0.4327,0.3366,0.242,0.2693,0.1752,-0.0,-0.0,-0.0,-0.0,-0.0,-0.0,-0.0,0.1885,0.1684,-0.0,-0.0,-0.0,-0.0,-0.0,-0.0,-0.0,-0.0,-0.0,-0.0,-0.0,-0.0,-0.0,-0.0,-0.0,-0.0,-0.0,-0.0,-0.0,-0.0,-0.0,-0.0,-0.0,-0.0,-0.0,-0.0,-0.0,-0.0,-0.0,-0.0,-0.0,-0.0,-0.0,-0.0,-0.0,-0.0,-0.0,-0.0,-0.0,-0.0,-0.0,-0.0,-0.0,-0.0,-0.0,-0.0,-0.0,-0.0,-0.0,-0.0,-0.0,-0.0,-0.0,-0.0,-0.0,-0.0,-0.0,-0.0,-0.0,-0.0,-0.0,-0.0,-0.0,-0.0,-0.0,-0.0,-0.0,-0.0,-0.0,0.2194,0.3056,0.3524,0.3599,0.3675,0.4222,0.5473,0.5789,0.6022,0.618,0.618,0.618,0.6257,0.6261,0.6261,0.6261,0.6261,0.6261,0.4108,0.426,0.3979,0.4036,0.4233,0.4306,0.4244,0.4314,0.4311,0.2887,-0.0,0.0804,0.2217,0.3574,0.4258,0.2831,0.1078,-0.0,-0.0,-0.0,-0.0,-0.0,-0.0,-0.0,-0.0,-0.0,0.0808,0.0539,-0.0,-0.0,-0.0,-0.0,-0.2223,-0.3305,-0.2894,-0.2487,-0.1746,-0.1747,-0.1746,-0.1344,-0.0,-0.0,-0.0,-0.0,-0.0,-0.0,-0.0,-0.0,-0.0,-0.0,-0.0,-0.0,-0.0,-0.0,-0.0,-0.0,-0.0,-0.0,-0.0,-0.0,-0.0,-0.0,-0.0,-0.0,-0.0,-0.0,-0.0,-0.0,-0.0,-0.0,-0.0,-0.0,-0.0,-0.0,-0.0,-0.0,-0.0,-0.0,-0.0,-0.0,-0.0,-0.0,-0.0,-0.0,-0.0,-0.0,-0.0,-0.0,-0.0,-0.0,-0.0,-0.0,-0.0,-0.0,-0.0,-0.0,-0.0,-0.0,0.188,0.2821,0.274,0.2113,0.2581,0.3832,0.5085,0.5789,0.5867,0.5948,0.618,0.6261,0.6261,0.6261,0.6261,0.6261,0.6261,0.4097,0.43,0.4038,0.3629,0.3224,0.3157,0.3634,0.4247,0.4252,0.2691,-0.0,-0.0,0.0673,0.1819,0.2089,0.1146,-0.0,-0.0,-0.0,-0.0,-0.0,-0.0,-0.0,-0.0,-0.0,-0.0,-0.0,-0.0876,-0.0,-0.0,-0.1412,-0.0872,-0.2893,-0.4319,-0.418,-0.3567,-0.3228,-0.3226,-0.3159,-0.2889,-0.2083,-0.1544,-0.0873,-0.0,-0.0,-0.0,-0.0,-0.0,-0.0,-0.0,-0.0,-0.0,-0.0,-0.0,-0.0,-0.0,-0.0,-0.0,-0.0,-0.0,-0.0,-0.0,-0.0,-0.0,-0.0,-0.0,-0.0,-0.0,-0.0,-0.0,-0.0,-0.0,-0.0,-0.0,-0.0,-0.0,-0.0,-0.0,-0.0,-0.0,-0.0,-0.0,-0.0,-0.0,-0.0,-0.0,-0.0,-0.0,-0.0,-0.0,-0.0,-0.0,-0.0,-0.0,-0.0,-0.0,-0.0,-0.0,0.0784,0.1724,0.1959,0.141,0.1568,0.2272,0.3522,0.5085,0.5553,0.5634,0.5944,0.6257,0.618,0.618,0.6257,0.6261,0.6261,0.4167,0.4303,0.4108,0.3431,0.2554,0.188,0.2284,0.3301,0.3307,0.2087,-0.0,-0.0,-0.0,-0.0,-0.0,-0.0,-0.0,-0.0,-0.0,-0.0,-0.0,-0.0,-0.0,-0.0,-0.0,-0.0,-0.0,-0.0,-0.2496,-0.3583,-0.2829,-0.2284,-0.3498,-0.4314,-0.4244,-0.4175,-0.4311,-0.4311,-0.4314,-0.4314,-0.3971,-0.3159,-0.208,-0.0873,-0.0605,-0.0,-0.0,-0.0,-0.0,-0.0,-0.0,-0.0,-0.0,-0.0,-0.0,-0.0,-0.0,-0.0,-0.0,-0.0,-0.0,-0.0,-0.0,-0.0,-0.0,-0.0,-0.0,-0.0,-0.0,-0.0,-0.0,-0.0,-0.0,-0.0,-0.0,-0.0,-0.0,-0.0,-0.0,-0.0,-0.0,-0.0,-0.0,-0.0,-0.0,-0.0,-0.0,-0.0,-0.0,-0.0,-0.0,-0.0,-0.0,-0.0,-0.0,-0.0,-0.0,-0.0,-0.0,0.0706,0.0941,0.0863,0.1176,0.1569,0.2821,0.4226,0.4771,0.5162,0.5318,0.555,0.5867,0.6103,0.6257,0.6257,0.6261,0.4311,0.4314,0.4255,0.419,0.3509,-0.0,-0.0,-0.0,-0.0,0.0404,-0.0,-0.0,-0.0,-0.0,-0.0,-0.0,-0.0,-0.0,-0.0,-0.0,-0.0,-0.0,-0.0,-0.0,-0.0,-0.0,-0.0,-0.0,-0.1483,-0.3313,-0.3989,-0.3569,-0.3632,-0.4308,-0.4306,-0.4306,-0.4303,-0.4303,-0.4303,-0.4303,-0.4236,-0.4038,-0.3768,-0.3297,-0.2552,-0.1879,-0.188,-0.188,-0.188,-0.1745,-0.0739,-0.0,-0.0,-0.0,-0.0,-0.0,-0.0,-0.0,-0.0,-0.0,-0.0,-0.0,-0.0,-0.0,-0.0,-0.0,-0.0,-0.0,-0.0,-0.0,-0.0,-0.0,-0.0,-0.0,-0.0,-0.0,-0.0,-0.0,-0.0,-0.0,-0.0,-0.0,-0.0,-0.0,-0.0,-0.0,-0.0,-0.0,-0.0,-0.0,-0.0,-0.0,-0.0,-0.0,-0.0,-0.0,-0.0,-0.0,-0.0,-0.0,0.0236,0.0549,0.0864,0.1492,0.2508,0.2978,0.329,0.3756,0.43,0.4924,0.5395,0.5789,0.618,0.6257,0.6261,0.3509,0.4322,0.4327,0.3307,0.182,0.0472,-0.0,-0.0,-0.0,-0.0,-0.0,-0.0,-0.0,-0.0,-0.0,-0.0,-0.0,-0.0,-0.0,-0.1551,-0.0,-0.0,-0.0,-0.0,-0.0,-0.0,-0.0,-0.0,-0.1416,-0.2223,-0.3094,-0.3291,-0.3897,-0.4306,-0.4303,-0.4303,-0.4303,-0.4303,-0.4303,-0.4303,-0.4303,-0.4303,-0.4306,-0.4306,-0.3627,-0.3357,-0.3293,-0.3362,-0.3362,-0.3228,-0.2621,-0.0,-0.0,-0.0,-0.0,-0.0,-0.0,-0.0,-0.0,-0.0,-0.0,-0.0,-0.0,-0.0,-0.0,-0.0,-0.0,-0.0,-0.0,-0.0,-0.0,-0.0,-0.0,-0.0,-0.0,-0.0,-0.0,-0.0,-0.0,-0.0,-0.0,-0.0,-0.0,-0.0,-0.0,-0.0,-0.0,-0.0,-0.0,-0.0,-0.0,-0.0,-0.0,-0.0,-0.0,-0.0,-0.0,-0.0,-0.0,-0.0,-0.0,0.0314,0.0629,0.0943,0.1649,0.1962,0.1961,0.2741,0.3832,0.4377,0.4927,0.5395,0.5867,0.6257,0.6261,0.2225,0.324,0.3238,0.1955,-0.0,-0.0,-0.0,-0.0,-0.0,-0.0,-0.0,-0.0,-0.0,-0.0,-0.0,-0.0,-0.0,-0.0202,-0.1549,-0.2224,-0.2089,-0.0,-0.0,-0.0,-0.0,-0.101,-0.0,-0.1078,-0.2223,-0.2827,-0.2958,-0.2679,-0.3894,-0.4233,-0.4303,-0.4303,-0.4303,-0.4303,-0.4303,-0.4303,-0.4303,-0.4303,-0.4303,-0.4303,-0.4303,-0.4303,-0.4311,-0.4241,-0.4241,-0.4175,-0.4105,-0.3429,-0.2618,-0.0,-0.0,-0.0,-0.0,-0.0,-0.0,-0.0,-0.0,-0.0,-0.0,-0.0,-0.0,-0.0,-0.0,-0.0,-0.0,-0.0,-0.0,-0.0,-0.0,-0.0,-0.0,-0.0,-0.0,-0.0,-0.0,-0.0,-0.0,-0.0,-0.0,-0.0,-0.0,-0.0,-0.0,-0.0,-0.0,-0.0,-0.0,-0.0,-0.0,-0.0,-0.0,-0.0,-0.0,-0.0,-0.0,-0.0,-0.0,-0.0,0.0314,0.0707,0.1022,0.1178,0.1335,0.235,0.3287,0.3207,0.3441,0.4696,0.5401,0.5948,0.6103,0.0202,0.0269,-0.0,-0.0,-0.0,-0.0,-0.0,-0.0,-0.0,-0.0,-0.0,-0.2495,-0.3645,-0.3509,-0.2488,-0.1947,-0.1879,-0.0602,-0.1474,-0.2618,-0.3086,-0.2214,-0.1544,-0.1612,-0.2487,-0.3029,-0.1884,-0.2087,-0.3366,-0.3437,-0.3773,-0.4177,-0.4167,-0.4233,-0.4303,-0.4303,-0.4303,-0.4303,-0.4303,-0.4303,-0.4303,-0.4303,-0.4303,-0.4303,-0.4303,-0.4303,-0.4303,-0.4303,-0.4303,-0.4306,-0.4306,-0.4306,-0.3694,-0.3496,-0.282,-0.2014,-0.121,-0.0,-0.0,-0.0,-0.0,-0.0,-0.0,-0.0,-0.0,-0.0,-0.0,-0.0,-0.0,-0.0,-0.0,-0.0,-0.0,-0.0,-0.0,-0.0,-0.0,-0.0,-0.0,-0.0,-0.0,-0.0,-0.0,-0.0,-0.0,-0.0,-0.0,-0.0,-0.0,-0.0,-0.0,-0.0,-0.0,-0.0,-0.0,-0.0,-0.0,-0.0,-0.0,-0.0,-0.0,-0.0,-0.0,0.0236,0.055,0.0629,0.0786,0.1569,0.1959,0.1567,0.1957,0.3443,0.4851,0.5715,0.5712,-0.0,-0.0,-0.0,-0.0,-0.0,-0.0,-0.0,-0.0,-0.0,-0.1078,-0.2629,-0.378,-0.4319,-0.4113,-0.3907,-0.3431,-0.3429,-0.2954,-0.3021,-0.336,-0.3768,-0.3565,-0.296,-0.3029,-0.3713,-0.3919,-0.2971,-0.2904,-0.3994,-0.3507,-0.3773,-0.3971,-0.4306,-0.4303,-0.4303,-0.4303,-0.4303,-0.4303,-0.4303,-0.4303,-0.4303,-0.4303,-0.4303,-0.4303,-0.4303,-0.4303,-0.4303,-0.4303,-0.4303,-0.4303,-0.4303,-0.4303,-0.4303,-0.4306,-0.3966,-0.3426,-0.2622,-0.1681,-0.0,-0.0,-0.0,-0.0,-0.0,-0.0,-0.0,-0.0,-0.0,-0.0,-0.0,-0.0,-0.0,-0.0,-0.0,-0.0,-0.0,-0.0,-0.0,-0.0,-0.0,-0.0,-0.0,-0.0,-0.0,-0.0,-0.0,-0.0,-0.0,-0.0,-0.0,-0.0,-0.0,-0.0,-0.0,-0.0,-0.0,-0.0,-0.0,-0.0,-0.0,-0.0,-0.0,-0.0,-0.0,-0.0,-0.0,0.0314,0.055,0.0707,0.0864,0.0942,0.1489,0.2426,0.3832,0.5165,0.5165,0.0741,-0.0,-0.0,-0.0,-0.0,-0.0,-0.0,-0.0,-0.0,-0.0,-0.4263,-0.4319,-0.4314,-0.4314,-0.4244,-0.4241,-0.4175,-0.4105,-0.4175,-0.4241,-0.4241,-0.4314,-0.4317,-0.4182,-0.3909,-0.3852,-0.365,-0.3578,-0.3442,-0.2557,-0.3167,-0.3912,-0.4314,-0.4308,-0.4303,-0.4303,-0.4303,-0.4303,-0.4306,-0.4306,-0.4306,-0.4306,-0.4306,-0.4306,-0.4306,-0.4306,-0.4308,-0.4308,-0.4306,-0.4306,-0.4306,-0.4303,-0.4303,-0.4303,-0.4303,-0.4306,-0.4041,-0.3032,-0.1344,-0.0,-0.0,-0.0,-0.0,-0.0,-0.0,-0.0,-0.0,-0.0,-0.0,-0.0,-0.0,-0.0,-0.0,-0.0,-0.0,-0.0,-0.0,-0.0,-0.0,-0.0,-0.0,-0.0,-0.0,-0.0,-0.0,-0.0,-0.0,-0.0,-0.0,-0.0,-0.0,-0.0,-0.0,-0.0,-0.0,-0.0,-0.0,-0.0,-0.0,-0.0,-0.0,-0.0,-0.0,-0.0,-0.0,-0.0,-0.0,-0.0,-0.0,0.0786,-0.0,-0.0,0.2349,0.3522,0.4226,0.2629,-0.0,-0.0,-0.0,-0.0,-0.0,-0.0,-0.0,-0.0,-0.1416,-0.3652,-0.3912,-0.4177,-0.4244,-0.4308,-0.4306,-0.4306,-0.4306,-0.4169,-0.4033,-0.4236,-0.4236,-0.4306,-0.4172,-0.384,-0.2547,-0.2621,-0.2896,-0.215,-0.2491,-0.3175,-0.3787,-0.4121,-0.4314,-0.4303,-0.4303,-0.4303,-0.4236,-0.4172,-0.4108,-0.4311,-0.4175,-0.3904,-0.3563,-0.3835,-0.3835,-0.3835,-0.3835,-0.3835,-0.3835,-0.4175,-0.4172,-0.3964,-0.4167,-0.4303,-0.4303,-0.4311,-0.3498,-0.2013,-0.074,-0.0,-0.0,-0.0,-0.0,-0.0,-0.0,-0.0,-0.0,-0.0,-0.0,-0.0,-0.0,-0.0,-0.0,-0.0,-0.0,-0.0,-0.0,-0.0,-0.0,-0.0,-0.0,-0.0,-0.0,-0.0,-0.0,-0.0,-0.0,-0.0,-0.0,-0.0,-0.0,-0.0,-0.0,-0.0,-0.0,-0.0,-0.0,-0.0,-0.0,-0.0,-0.0,-0.0,-0.0,-0.0,-0.0,-0.0,-0.0,-0.0,-0.0,-0.0,-0.0,-0.0,-0.0,-0.0,0.5215,0.6184,0.1824,-0.0,-0.0,-0.0,-0.0,-0.0,-0.0,-0.0,-0.1279,-0.1476,-0.2753,-0.3701,-0.4311,-0.4241,-0.4241,-0.4244,-0.4038,-0.3088,-0.3696,-0.4244,-0.4247,-0.3976,-0.3842,-0.3713,-0.3444,-0.2291,-0.074,-0.2089,-0.2698,-0.3173,-0.3576,-0.425,-0.4311,-0.4239,-0.3961,-0.3019,-0.2887,-0.3226,-0.4041,-0.3362,-0.2484,-0.1744,-0.2417,-0.2822,-0.2822,-0.2822,-0.2824,-0.2958,-0.3364,-0.3634,-0.3291,-0.3424,-0.4172,-0.4241,-0.4182,-0.31,-0.148,-0.0,-0.0,-0.0,-0.0,-0.0,-0.0,-0.0,-0.0,-0.0,-0.0,-0.0,-0.0,-0.0,-0.0,-0.0,-0.0,-0.0,-0.0,-0.0,-0.0,-0.0,-0.0,-0.0,-0.0,-0.0,-0.0,-0.0,-0.0,-0.0,-0.0,-0.0,-0.0,-0.0,-0.0,-0.0,-0.0,-0.0,-0.0,-0.0,-0.0,-0.0,-0.0,-0.0,-0.0,-0.0,-0.0,-0.0,-0.0,-0.0,-0.0,-0.0,-0.0,-0.0,-0.0,-0.0,-0.0,0.6823,0.8843,0.5138,0.1971,-0.0,-0.0,-0.0,-0.0,-0.0,-0.0,-0.0,-0.0,-0.0939,-0.2622,-0.384,-0.377,-0.3567,-0.2891,-0.377,-0.2552,-0.2552,-0.2621,-0.2691,-0.3236,-0.2825,-0.324,-0.3789,-0.3175,-0.1887,-0.2359,-0.2495,-0.2359,-0.2624,-0.3301,-0.3775,-0.418,-0.3971,-0.296,-0.2557,-0.1748,-0.2085,-0.1748,-0.1008,-0.0604,-0.0873,-0.1412,-0.1344,-0.0,-0.0,-0.0,-0.0,-0.0,-0.0,-0.2554,-0.3433,-0.3569,-0.3912,-0.2696,-0.0876,-0.0,-0.0,-0.0,-0.0,-0.0,-0.0,-0.0,-0.0,-0.0,-0.0,-0.0,-0.0,-0.0,-0.0,-0.0,-0.0,-0.0,-0.0,-0.0,-0.0,-0.0,-0.0,-0.0,-0.0,-0.0,-0.0,-0.0,-0.0,-0.0,-0.0,-0.0,-0.0,-0.0,-0.0,-0.0,-0.0,-0.0,-0.0,-0.0,-0.0,-0.0,-0.0,-0.0,-0.0,-0.0,-0.0,-0.0,-0.0,-0.0,-0.0,-0.0,-0.0,-0.0,-0.0,-0.0,-0.0,0.7688,0.8727,0.9451,0.5837,-0.0,-0.0,-0.0,-0.0,-0.0,-0.0,-0.0,-0.0,-0.0,-0.0,-0.2825,-0.3161,-0.2149,-0.0873,-0.1747,-0.2421,-0.1546,-0.0,-0.0,-0.1477,-0.1478,-0.1613,-0.2085,-0.2971,-0.0,-0.1886,-0.1213,-0.1416,-0.1009,-0.1886,-0.2969,-0.3989,-0.3713,-0.2627,-0.1414,-0.0,-0.0,-0.0,-0.0,-0.0,-0.0,-0.0,-0.0,-0.0,-0.0,-0.0,-0.0,-0.0,-0.0,-0.0,-0.1814,-0.242,-0.3303,-0.1954,-0.0,-0.0,-0.0,-0.0,-0.0,-0.0,-0.0,-0.0,-0.0,-0.0,-0.0,-0.0,-0.0,-0.0,-0.0,-0.0,-0.0,-0.0,-0.0,-0.0,-0.0,-0.0,-0.0,-0.0,-0.0,-0.0,-0.0,-0.0,-0.0,-0.0,-0.0,-0.0,-0.0,-0.0,-0.0,-0.0,-0.0,-0.0,-0.0,-0.0,-0.0,-0.0,-0.0,-0.0,-0.0,-0.0,-0.0,-0.0,-0.0,-0.0,-0.0,-0.0,-0.0,-0.0,-0.0,-0.0,-0.0,1.3092,1.3059,0.8084,0.5564,0.4704,0.1524,-0.0,-0.0,-0.0,-0.0,-0.0,-0.0,-0.0,-0.0,-0.0875,-0.0,-0.0,-0.0337,-0.0472,-0.0,-0.0,-0.0,-0.0,-0.0,-0.0,-0.0,-0.0,-0.0,-0.0,-0.0,-0.0,-0.0404,-0.0,-0.0,-0.0,-0.3246,-0.2565,-0.0,-0.0,-0.0,-0.0,-0.0,-0.0,-0.0,-0.0,-0.0,-0.0,-0.0,-0.0,-0.0,-0.0,-0.0,-0.0,-0.0404,-0.0606,-0.0606,-0.0943,-0.0,-0.0,-0.0,-0.0,-0.0,-0.0,-0.0,-0.0,-0.0,-0.0,-0.0,-0.0,-0.0,-0.0,-0.0,-0.0,-0.0,-0.0,-0.0,-0.0,-0.0,-0.0,-0.0,-0.0,-0.0,-0.0,-0.0,-0.0,-0.0,-0.0,-0.0,-0.0,-0.0,-0.0,-0.0,-0.0,-0.0,-0.0,-0.0,-0.0,-0.0,-0.0,-0.0,-0.0,-0.0,-0.0,-0.0,-0.0,-0.0,-0.0,-0.0,-0.0,-0.0,-0.0,-0.0,-0.0,-0.0,-0.0,1.6256,1.5417,1.0954,1.0026,1.0855,0.6677,0.3138,-0.0,-0.0,-0.0,-0.0,-0.0,-0.0,-0.0,-0.0,-0.0,-0.0,-0.0,-0.0,-0.0,-0.0,-0.0,-0.0,-0.0,-0.0,-0.0,-0.0,-0.0,-0.0,-0.0,-0.0,-0.0,-0.0,-0.0,-0.0,-0.1484,-0.1417,-0.0,-0.0,-0.0,-0.0,-0.0,-0.0,-0.0,-0.0,0.0337,-0.0,-0.0,-0.0,-0.0,-0.0,0.0472,0.0404,0.0337,0.0067,0.0067,0.0539,0.0202,-0.0,-0.0,-0.0,0.1347,0.155,-0.0,-0.0,-0.0,-0.0,-0.0,-0.0,-0.0,-0.0,-0.0,-0.0,-0.0,-0.0,-0.0,-0.0,-0.0,-0.0,-0.0,-0.0,-0.0,-0.0,-0.0,-0.0,-0.0,-0.0,-0.0,-0.0,-0.0,-0.0,-0.0,-0.0,-0.0,-0.0,-0.0,-0.0,-0.0,-0.0,-0.0,-0.0,-0.0,-0.0,-0.0,-0.0,-0.0,-0.0,-0.0,-0.0,-0.0,-0.0,-0.0,-0.0,-0.0,-0.0,1.8178,1.7251,1.6517,1.6777,1.8006,1.3378,0.767,0.1313,-0.0,-0.0,-0.0,-0.0,-0.0,-0.0,-0.0,-0.0,-0.0,-0.0,-0.0,-0.0,-0.0,-0.0,-0.0,-0.0,-0.0,-0.0,-0.0,-0.0,-0.0,-0.0,-0.0,-0.0,-0.0,-0.0,-0.0,0.0674,0.0539,-0.0,-0.0,-0.0,-0.0,-0.0,0.0404,-0.0,0.0943,0.0943,0.0337,-0.0,0.0067,0.027,0.0741,0.1213,0.128,0.0808,0.0471,0.0941,0.1748,0.168,0.1142,-0.0,-0.0,0.2896,0.419,0.3301,0.296,0.2961,0.276,0.242,0.1883,0.1344,0.1679,0.249,0.2693,0.2488,0.2353,0.2285,0.2285,0.2218,-0.0,-0.0,-0.0,-0.0,-0.0,-0.0,-0.0,-0.0,-0.0,-0.0,-0.0,-0.0,-0.0,-0.0,-0.0,-0.0,-0.0,-0.0,-0.0,-0.0,-0.0,-0.0,-0.0,-0.0,-0.0,-0.0,-0.0,-0.0,-0.0,-0.0,-0.0,-0.0,-0.0,-0.0,-0.0,-0.0,-0.0,2.2406,2.1689,2.0577,1.9521,1.8063,1.5519,1.2386,0.8936,0.8824,0.8725,0.8781,0.8549,0.6967,0.4415,0.1975,0.178,0.285,-0.0,-0.0,-0.0,-0.0,-0.0,-0.0,-0.0,-0.0,-0.0,-0.0,-0.0,-0.0,-0.0,-0.0,-0.0,-0.0,-0.0,0.2765,0.2833,0.2491,0.168,0.1613,0.1144,0.0606,0.2359,0.3444,0.3303,0.3232,0.1949,0.1209,0.0604,0.0471,0.0539,0.1747,0.2351,0.2684,0.1544,0.1543,0.2347,0.3023,0.3092,0.2891,0.2216,0.2485,0.3027,0.384,0.4105,0.4172,0.4247,0.4113,0.3703,0.3295,0.2753,0.2686,0.3567,0.418,0.3907,0.3634,0.3634,0.3634,0.3565,0.3431,0.2822,0.2082,-0.0,-0.0,-0.0,-0.0,-0.0,-0.0,-0.0,-0.0,-0.0,-0.0,-0.0,-0.0,-0.0,-0.0,-0.0,-0.0,-0.0,-0.0,-0.0,-0.0,-0.0,-0.0,-0.0,-0.0,-0.0,-0.0,-0.0,-0.0,-0.0,-0.0,-0.0,-0.0,-0.0,-0.0,2.4484,2.3485,2.2617,2.1858,2.0724,1.7917,1.5853,1.5029,1.4904,1.4898,1.4894,1.4577,1.2492,0.8833,0.6041,0.5019,0.6392,0.4832,-0.0,-0.0,0.3385,-0.0,0.4143,0.2601,-0.0,-0.0,-0.0,-0.0,-0.0,-0.0,-0.0,-0.0,0.0944,0.2562,0.4327,0.4255,0.3912,0.3092,0.3023,0.2554,0.1615,0.2963,0.4048,0.3974,0.377,0.2889,0.282,0.2146,0.1609,0.1813,0.2753,0.3155,0.3153,0.2345,0.2345,0.295,0.3625,0.4306,0.4308,0.3899,0.3288,0.3763,0.4036,0.4576,0.45,0.4576,0.4375,0.4033,0.3966,0.3491,0.3491,0.4105,0.4241,0.4102,0.4036,0.4036,0.4036,0.3966,0.3966,0.3763,0.3291,-0.0,-0.0,-0.0,-0.0,-0.0,-0.0,-0.0,-0.0,-0.0,-0.0,-0.0,-0.0,-0.0,-0.0,-0.0,-0.0,-0.0,-0.0,-0.0,-0.0,-0.0,-0.0,-0.0,-0.0,-0.0,-0.0,-0.0,-0.0,-0.0,-0.0,-0.0,-0.0,-0.0,-0.0,2.5422,2.411,2.3899,2.4264,2.4575,2.1198,1.946,1.9377,1.9039,1.9138,1.9335,1.9136,1.6338,1.3447,1.1578,1.1087,1.0161,0.854,0.5417,0.4807,0.827,0.8549,0.7807,0.6567,0.5508,0.3914,-0.0,-0.0,-0.0,-0.0,-0.0,-0.0,0.2357,0.4392,0.4392,0.4386,0.4244,0.4102,0.4102,0.4175,0.3701,0.3159,0.3632,0.3904,0.4108,0.4378,0.4375,0.3966,0.3082,0.3015,0.3353,0.3823,0.3754,0.3211,0.3278,0.3682,0.4159,0.4703,0.4979,0.4773,0.4703,0.484,0.4979,0.4909,0.4834,0.4697,0.4567,0.45,0.4434,0.43,0.43,0.4233,0.43,0.4303,0.4303,0.43,0.43,0.43,0.4367,0.4367,0.43,0.4233,0.3157,0.1546,0.0966,0.0573,0.0147,0.0076,-0.0,-0.0,-0.0,-0.0,-0.0,-0.0,-0.0,-0.0,-0.0,-0.0,-0.0,-0.0,0.0943,0.0943,0.0864,-0.0,-0.0,-0.0,-0.0,-0.0,-0.0,-0.0,-0.0,-0.0,-0.0,-0.0,-0.0,2.6447,2.618,2.6751,2.6403,2.5479,2.5808,2.491,2.2346,2.0121,2.0316,2.199,2.1138,1.8526,1.4508,1.2327,1.1964,1.3101,1.1994,1.0623,0.9488,1.0857,1.1256,1.0786,0.925,0.8333,0.6785,0.5035,0.3777,0.3266,-0.0,-0.0,-0.0,0.3754,0.5046,0.4782,0.4846,0.484,0.47,0.4631,0.4567,0.4364,0.4095,0.4236,0.4506,0.4637,0.4567,0.4428,0.4156,0.3685,0.3418,0.3485,0.4154,0.422,0.4015,0.3946,0.435,0.4827,0.503,0.5236,0.5036,0.5036,0.5096,0.51,0.5033,0.4897,0.4894,0.4761,0.4697,0.4631,0.4495,0.4428,0.4364,0.4367,0.43,0.4303,0.43,0.43,0.4431,0.4561,0.4561,0.4631,0.4498,0.4167,0.3181,0.2962,0.2274,0.1088,0.1044,0.1472,0.1249,0.1098,0.0941,0.0785,-0.0,-0.0,-0.0,-0.0,-0.0,0.0943,0.1022,0.1022,0.11,0.11,0.1022,0.0943,-0.0,-0.0,-0.0,-0.0,-0.0,-0.0,-0.0,-0.0,-0.0,-0.0]},{"header":{"parameterUnit":"m.s-1","parameterCategory":1,"la1":31.0,"la2":29.5877,"lo1":-88.7671,"lo2":-86.6584,"dy":0.0162,"dx":0.0185,"nx":115,"ny":88,"refTime":"2024-06-21T18:00:00:Z","depth":0,"parameterNumber":3,"parameterNumberName":"V-component_of_WINDS"},"data":[0.0,0.0,0.0,0.0,0.0,0.0,0.0,0.0,0.0,0.0,0.0,0.0,0.0,0.0,0.0,0.0,0.0,0.0,0.0,0.0,0.0,0.0,0.0,0.0,0.0,0.0,0.0,0.0,0.0,0.0,0.0,0.0,0.0,0.0,0.0,0.0,0.0,0.0,0.0,0.0,0.0,0.0,0.0,0.0,0.0,0.0,0.0,0.0,0.0,0.0,0.0,0.0,0.0,0.0,0.0,0.0,0.0,0.0,0.0,0.0,0.0,0.0,0.0,0.0,0.0,0.0,0.0,0.0,0.0,0.0,0.0,0.0,0.0,0.0,0.0,0.0,0.0,0.0,0.0,0.0,0.0,0.0,0.0,0.0,0.0,0.0,0.0,0.0,0.0,0.0,0.0,0.0,0.0,0.0,0.0,0.0,0.0,0.0,0.0,0.0,0.0,0.0,0.0,0.0,0.0,0.0,0.0,0.0,0.0,0.0,0.0,0.0,0.0,0.0,0.0,0.0,0.0,0.0,0.0,0.0,0.0,0.0,0.0,0.0,0.0,0.0,0.0,0.0,0.0,0.0,0.0,0.0,0.0,0.0,0.0,0.0,0.0,0.0,0.0,0.0,0.0,0.0,0.0,0.0,0.0,0.0,0.0,0.0,0.0,0.0,0.0,0.0,0.0,0.0,0.0,0.0,0.0,0.0,0.0,0.0,0.0,0.0,0.0,0.0,0.0,0.0,0.0,0.0,0.0,0.0,0.0,0.0,0.0,0.0,0.0,0.0,0.0,0.0,0.0,0.0,0.0,0.0,0.0,0.0,0.0,0.0,0.0,0.0,0.0,0.0,0.0,0.0,0.0,0.0,0.0,0.0,0.0,0.0,0.0,0.0,0.0,0.0,0.0,0.0,0.0,0.0,0.0,0.0,0.0,0.0,0.0,0.0,0.0,0.0,0.0,0.0,0.0,0.0,0.0,0.0,0.0,0.0,0.0,0.0,0.0,0.0,0.0,0.0,0.0,0.0,0.0,0.0,0.0,0.0,0.0,0.0,0.0,0.0,0.0,0.0,0.0,0.0,0.0,0.0,0.0,0.0,0.0,0.0,0.0,0.0,0.0,0.0,0.0,0.0,0.0,0.0,0.0,0.0,0.0,0.0,0.0,0.0,0.0,0.0,0.0,0.0,0.0,0.0,0.0,0.0,0.0,0.0,0.0,0.0,0.0,0.0,0.0,0.0,0.0,0.0,0.0,0.0,0.0,0.0,0.0,0.0,0.0,0.0,0.0,0.0,0.0,0.0,0.0,0.0,0.0,0.0,0.0,0.0,0.0,0.0,0.0,0.0,0.0,0.0,0.0,0.0,0.0,0.0,0.0,0.0,0.0,0.0,0.0,0.0,0.0,0.0,0.0,0.0,0.0,0.0,0.0,0.0,0.0,0.0,0.0,0.0,0.0,0.0,0.0,0.0,0.0,0.0,0.0,0.0,0.0,0.0,0.0,0.0,0.0,0.0,0.0,0.0,0.0,0.0,0.0,0.0,0.0,0.0,0.0,0.0,0.0,0.0,0.0,0.0,0.0,0.0,0.0,0.0,0.0,0.0,0.0,0.0,0.0,0.0,0.0,0.0,0.0,0.0,0.0,0.0,0.0,0.0,0.0,0.0,0.0,0.0,0.0,0.0,0.0,0.0,0.0,0.0,0.0,0.0,0.0,0.0,0.0,0.0,0.0,0.0,0.0,0.0,0.0,0.0,0.0,0.0,0.0,0.0,0.0,0.0,0.0,0.0,0.0,0.0,0.0,0.0,0.0,0.0,0.0,0.0,0.0,0.0,0.0,0.0,0.0,0.0,0.0,0.0,0.0,0.0,0.0,0.0,0.0,0.0,0.0,0.0,0.0,0.0,0.0,0.0,0.0,0.0,0.0,0.0,0.0,0.0,0.0,0.0,0.0,0.0,0.0,0.0,0.0,0.0,0.0,0.0,0.0,0.0,0.0,0.0,0.0,0.0,0.0,0.0,0.0,0.0,0.0,0.0,0.0,0.0,0.0,0.0,0.0,0.0,0.0,0.0,0.0,0.0,0.0,0.0,0.0,0.0,0.0,0.0,0.0,0.0,0.0,0.0,0.0,0.0,0.0,0.0,0.0,0.0,0.0,0.0,0.0,0.0,0.0,0.0,0.0,0.0,0.0,0.0,0.0,0.0,0.0,0.0,0.0,0.0,0.0,0.0,0.0,0.0,0.0,0.0,0.0,0.0,0.0,0.0,0.0,0.0,0.0,0.0,0.0,0.0,0.0,0.0,0.0,0.0,0.0,0.0,0.0,0.0,0.0,0.0,0.0,0.0,0.0,0.0,0.0,0.0,0.0,0.0,0.0,0.0,0.0,0.0,0.0,0.0,0.0,0.0,0.0,0.0,0.0,0.0,0.0,0.0,0.0,0.0,0.0,0.0,0.0,0.0,0.0,0.0,0.0,0.0,0.0,0.0,0.0,0.0,0.0,0.0,0.0,0.0,0.0,0.0,0.0,0.0,0.0,0.0,0.0,0.0,0.0,0.0,0.0,0.0,0.0,0.0,0.0,0.0,0.0,0.0,0.0,0.0,0.0,0.0,0.0,0.0,0.0,0.0,0.0,0.0,0.0,0.0,0.0,0.0,0.0,0.0,0.0,0.0,0.0,0.0,0.0,0.0,0.0,0.0,0.0,0.0,0.0,0.0,0.0,0.0,0.0,0.0,0.0,0.0,0.0,0.0,0.0,0.0,0.0,0.0,0.0,0.0,0.0,0.0,0.0,0.0,0.0,0.0,0.0,0.0,0.0,0.0,0.0,0.0,0.0,0.0,0.0,0.0,0.0,0.0,0.0,0.0,0.0,0.0,0.0,0.0,0.0,0.0,0.0,0.0,0.0,0.0,0.0,0.0,0.0,0.0,0.0,0.0,0.0,0.0,0.0,0.0,0.0,0.0,0.0,0.0,0.0,0.0,0.0,0.0,0.0,0.0,0.0,0.0,0.0,0.0,0.0,0.0,0.0,0.0,0.0,0.0,0.0,0.0,0.0,0.0,0.0,0.0,0.0,0.0,0.0,0.0,0.0,0.0,0.0,0.0,0.0,0.0,0.0,0.0,0.0,0.0,0.0,0.0,0.0,0.0,0.0,0.0,0.0,0.0,0.0,0.0,0.0,0.0,0.0,0.0,0.0,0.0,0.0,0.0,0.0,0.0,0.0,0.0,0.0,0.0,0.0,0.0,0.0,0.0,0.0,0.0,0.0,0.0,0.0,0.0,0.0,0.0,0.0,0.0,0.0,0.0,0.0,0.0,0.0,0.0,0.0,0.0,0.0,0.0,0.0,0.0,0.0,0.0,0.0,0.0,0.0,0.0,0.0,0.0,0.0,0.0,0.0,0.0,0.0,0.0,0.0,0.0,0.0,0.0,0.0,0.0,0.0,0.0,0.0,0.0,0.0,0.0,0.0,0.0,0.0,0.0,0.0,0.0,0.0,0.0,0.0,0.0,0.0,0.0,0.0,0.0,0.0,0.0,0.0,0.0,0.0,0.0,0.0,0.0,0.0,0.0,0.0,0.0,0.0,0.0,0.0,0.0,0.0,0.0,0.0,0.0,0.0,0.0,0.0,0.0,0.0,0.0,0.0,0.0,0.0,0.0,0.0,0.0,0.0,0.0,0.0,0.0,0.0,0.0,0.0,0.0,0.0,0.0,0.0,0.0,0.0,0.0,0.0,0.0,0.0,0.0,0.0,0.0,0.0,0.0,0.0,0.0,0.0,0.0,0.0,0.0,0.0,0.0,0.0,0.0,0.0,0.0,0.0,0.0,0.0,0.0,0.0,0.0,0.0,0.0,0.0,0.0,0.0,0.0,0.0,0.0,0.0,0.0,0.0,0.0,0.0,0.0,0.0,0.0,0.0,0.0,0.0,0.0,0.0,0.0,0.0,0.0,0.0,0.0,0.0,0.0,0.0,0.0,0.0,0.0,0.0,0.0,0.0,0.0,0.0,0.0,0.0,0.0,0.0,0.0,0.0,0.0,0.0,0.0,0.0,0.0,0.0,0.0,0.0,0.0,0.0,0.0,0.0,0.0,0.0,0.0,0.0,0.0,0.0,0.0,0.0,0.0,0.0,0.0,0.0,0.0,0.0,0.0,0.0,0.0,0.0,0.0,0.0,0.0,0.0,0.0,0.0,0.0,0.0,0.0,0.0,0.0,0.0,0.0,0.0,0.0,0.0,0.0,0.0,0.0,0.0,0.0,0.0,0.0,0.0,0.0,-1.5234,0.0,0.0,0.0,0.0,0.0,0.0,0.0,0.0,0.0,0.0,0.0,0.0,0.0,0.0,0.0,0.0,0.0,0.0,0.0,0.0,0.0,0.0,0.0,0.0,0.0,0.0,0.0,0.0,0.0,0.0,0.0,0.0,0.0,0.0,0.0,0.0,0.0,0.0,0.0,0.0,0.0,0.0,0.0,0.0,0.0,0.0,0.0,0.0,0.0,0.0,0.0,0.0,0.0,0.0,0.0,0.0,0.0,0.0,0.0,0.0,0.0,0.0,0.0,0.0,0.0,0.0,0.0,0.0,0.0,0.0,0.0,0.0,0.0,0.0,0.0,0.0,0.0,0.0,0.0,0.0,0.0,0.0,0.0,0.0,0.0,0.0,0.0,0.0,0.0,0.0,0.0,0.0,0.0,0.0,0.0,0.0,0.0,0.0,0.0,0.0,0.0,0.0,0.0,0.0,0.0,0.0,0.0,0.0,0.0,0.0,-1.5407,-1.5405,-1.5405,-1.5406,-1.5409,0.0,0.0,0.0,0.0,0.0,0.0,0.0,0.0,0.0,0.0,0.0,0.0,0.0,0.0,0.0,0.0,0.0,0.0,0.0,0.0,0.0,0.0,0.0,0.0,0.0,0.0,0.0,0.0,0.0,0.0,0.0,0.0,0.0,0.0,0.0,0.0,0.0,0.0,0.0,0.0,0.0,0.0,0.0,0.0,0.0,0.0,0.0,0.0,0.0,0.0,0.0,0.0,0.0,0.0,0.0,0.0,0.0,0.0,0.0,0.0,0.0,0.0,0.0,0.0,0.0,0.0,0.0,0.0,0.0,0.0,0.0,0.0,0.0,0.0,0.0,0.0,0.0,0.0,0.0,0.0,0.0,0.0,0.0,0.0,0.0,0.0,0.0,0.0,0.0,0.0,0.0,0.0,0.0,0.0,0.0,0.0,0.0,0.0,0.0,0.0,0.0,0.0,0.0,0.0,0.0,0.0,0.0,0.0,0.0,0.0,0.0,0.0,-1.521,-1.5211,-1.5408,0.0,0.0,0.0,0.0,0.0,0.0,0.0,0.0,0.0,0.0,0.0,0.0,0.0,0.0,0.0,0.0,0.0,0.0,0.0,0.0,0.0,0.0,0.0,0.0,0.0,0.0,0.0,0.0,0.0,0.0,0.0,0.0,0.0,0.0,0.0,0.0,0.0,0.0,0.0,0.0,0.0,0.0,0.0,0.0,0.0,0.0,0.0,0.0,0.0,0.0,0.0,0.0,0.0,0.0,0.0,0.0,0.0,0.0,0.0,0.0,0.0,0.0,0.0,0.0,0.0,0.0,0.0,0.0,0.0,0.0,0.0,0.0,0.0,0.0,0.0,0.0,0.0,0.0,0.0,0.0,0.0,0.0,0.0,0.0,0.0,0.0,0.0,0.0,0.0,0.0,0.0,0.0,0.0,0.0,0.0,0.0,0.0,0.0,0.0,0.0,0.0,0.0,0.0,0.0,0.0,0.0,0.0,0.0,0.0,0.0,-1.4582,-1.5349,-1.4641,0.0,-1.5332,0.0,0.0,0.0,0.0,0.0,0.0,0.0,0.0,0.0,0.0,0.0,0.0,0.0,0.0,0.0,0.0,0.0,0.0,0.0,0.0,0.0,0.0,0.0,0.0,0.0,0.0,0.0,0.0,0.0,0.0,0.0,0.0,0.0,0.0,0.0,0.0,0.0,0.0,0.0,0.0,0.0,0.0,0.0,0.0,0.0,0.0,0.0,0.0,0.0,0.0,0.0,0.0,0.0,0.0,0.0,0.0,0.0,0.0,0.0,0.0,0.0,0.0,0.0,0.0,0.0,0.0,0.0,0.0,0.0,0.0,0.0,0.0,0.0,0.0,0.0,0.0,0.0,0.0,0.0,0.0,0.0,0.0,0.0,0.0,0.0,0.0,0.0,0.0,0.0,0.0,0.0,0.0,0.0,0.0,0.0,0.0,0.0,0.0,0.0,0.0,0.0,0.0,0.0,0.0,0.0,0.0,0.0,0.0,0.0,0.0,-1.4784,-1.4621,-1.4782,-1.5039,0.0,0.0,0.0,0.0,0.0,0.0,0.0,0.0,0.0,0.0,0.0,0.0,0.0,0.0,0.0,0.0,0.0,0.0,0.0,0.0,0.0,0.0,0.0,0.0,0.0,0.0,0.0,0.0,0.0,0.0,0.0,0.0,0.0,0.0,0.0,0.0,0.0,0.0,0.0,0.0,0.0,0.0,0.0,0.0,0.0,0.0,0.0,0.0,0.0,0.0,0.0,0.0,0.0,0.0,0.0,0.0,0.0,0.0,0.0,0.0,0.0,0.0,0.0,0.0,0.0,0.0,0.0,0.0,0.0,0.0,0.0,0.0,0.0,0.0,0.0,0.0,0.0,0.0,0.0,0.0,0.0,0.0,0.0,0.0,0.0,0.0,0.0,0.0,0.0,0.0,0.0,0.0,0.0,0.0,0.0,0.0,0.0,0.0,0.0,0.0,0.0,0.0,0.0,0.0,0.0,0.0,0.0,0.0,0.0,0.0,-1.4844,-1.4738,-1.4186,-1.5174,-1.5644,-1.5425,0.0,0.0,0.0,0.0,0.0,0.0,0.0,0.0,0.0,0.0,0.0,0.0,0.0,0.0,0.0,0.0,0.0,0.0,0.0,0.0,0.0,0.0,0.0,0.0,0.0,0.0,0.0,0.0,0.0,0.0,0.0,0.0,0.0,0.0,0.0,0.0,0.0,0.0,0.0,0.0,0.0,0.0,0.0,0.0,0.0,0.0,0.0,0.0,0.0,0.0,0.0,0.0,0.0,0.0,0.0,0.0,0.0,0.0,0.0,0.0,0.0,0.0,0.0,0.0,0.0,0.0,0.0,0.0,0.0,0.0,0.0,0.0,0.0,0.0,0.0,0.0,0.0,0.0,0.0,0.0,0.0,0.0,0.0,0.0,0.0,0.0,0.0,0.0,0.0,0.0,0.0,0.0,0.0,0.0,0.0,0.0,0.0,0.0,0.0,0.0,0.0,0.0,0.0,0.0,0.0,0.0,0.0,0.0,0.0,-1.4533,-1.4134,-1.4108,-1.5755,-1.6229,0.0,0.0,0.0,0.0,0.0,0.0,0.0,0.0,0.0,0.0,0.0,0.0,0.0,0.0,0.0,0.0,0.0,0.0,0.0,0.0,0.0,0.0,0.0,0.0,0.0,0.0,0.0,0.0,0.0,0.0,0.0,0.0,0.0,0.0,0.0,0.0,0.0,0.0,0.0,0.0,0.0,0.0,0.0,0.0,0.0,0.0,0.0,0.0,0.0,0.0,0.0,0.0,0.0,0.0,0.0,0.0,0.0,0.0,0.0,0.0,0.0,0.0,0.0,0.0,0.0,0.0,0.0,0.0,0.0,0.0,0.0,0.0,0.0,0.0,0.0,0.0,0.0,0.0,0.0,0.0,0.0,0.0,0.0,0.0,0.0,0.0,0.0,0.0,0.0,0.0,0.0,0.0,0.0,0.0,0.0,0.0,0.0,0.0,0.0,0.0,0.0,0.0,0.0,0.0,0.0,0.0,0.0,0.0,0.0,-1.3755,-1.2896,-1.2984,-1.4049,-1.4716,-1.5153,0.0,0.0,0.0,0.0,0.0,0.0,0.0,0.0,0.0,0.0,0.0,0.0,0.0,0.0,0.0,0.0,0.0,0.0,0.0,0.0,0.0,0.0,0.0,0.0,0.0,0.0,0.0,0.0,0.0,0.0,0.0,0.0,0.0,0.0,0.0,0.0,0.0,0.0,0.0,0.0,0.0,0.0,0.0,0.0,0.0,0.0,0.0,0.0,0.0,0.0,0.0,0.0,0.0,0.0,0.0,0.0,0.0,0.0,0.0,0.0,0.0,0.0,0.0,0.0,0.0,0.0,0.0,0.0,0.0,0.0,0.0,0.0,0.0,0.0,0.0,0.0,0.0,0.0,0.0,0.0,0.0,0.0,0.0,0.0,0.0,0.0,0.0,0.0,0.0,0.0,0.0,0.0,0.0,0.0,0.0,0.0,0.0,0.0,0.0,0.0,0.0,0.0,0.0,0.0,0.0,0.0,0.0,0.0,0.0,-1.3249,0.0,-1.3196,0.0,-1.4667,-1.4969,0.0,0.0,0.0,0.0,0.0,0.0,0.0,0.0,0.0,0.0,0.0,0.0,0.0,0.0,0.0,0.0,0.0,0.0,0.0,0.0,0.0,0.0,0.0,0.0,0.0,0.0,0.0,0.0,0.0,0.0,0.0,0.0,0.0,0.0,0.0,0.0,0.0,0.0,0.0,0.0,0.0,0.0,0.0,0.0,0.0,0.0,0.0,0.0,0.0,0.0,0.0,0.0,0.0,0.0,0.0,0.0,0.0,0.0,0.0,0.0,0.0,0.0,0.0,0.0,0.0,0.0,0.0,0.0,0.0,0.0,0.0,0.0,0.0,0.0,0.0,0.0,0.0,0.0,0.0,0.0,0.0,0.0,0.0,0.0,0.0,0.0,0.0,0.0,0.0,0.0,0.0,0.0,0.0,0.0,0.0,0.0,0.0,0.0,0.0,0.0,0.0,0.0,0.0,0.0,0.0,0.0,0.0,0.0,-1.4104,-1.4084,-1.4825,-1.4786,-1.4182,-1.5662,-1.5808,0.0,0.0,0.0,0.0,0.0,0.0,0.0,0.0,0.0,0.0,0.0,0.0,0.0,0.0,0.0,0.0,0.0,0.0,0.0,0.0,0.0,0.0,0.0,0.0,0.0,0.0,0.0,0.0,0.0,0.0,0.0,0.0,0.0,0.0,0.0,0.0,0.0,0.0,0.0,0.0,0.0,0.0,0.0,0.0,0.0,0.0,0.0,0.0,0.0,0.0,0.0,0.0,0.0,0.0,0.0,0.0,0.0,0.0,0.0,0.0,0.0,0.0,0.0,0.0,0.0,0.0,0.0,0.0,0.0,0.0,0.0,0.0,0.0,0.0,0.0,0.0,0.0,0.0,0.0,0.0,0.0,0.0,0.0,0.0,0.0,0.0,0.0,0.0,0.0,0.0,0.0,0.0,0.0,0.0,0.0,0.0,0.0,0.0,0.0,0.0,0.0,0.0,0.0,0.0,0.0,0.0,0.0,0.0,0.0,-1.324,-1.3472,-1.3747,-1.404,-1.4584,-1.4931,0.0,0.0,0.0,0.0,0.0,0.0,0.0,0.0,0.0,0.0,0.0,0.0,0.0,0.0,0.0,0.0,0.0,0.0,0.0,0.0,0.0,0.0,0.0,0.0,0.0,0.0,0.0,0.0,0.0,0.0,0.0,0.0,0.0,0.0,0.0,0.0,0.0,0.0,0.0,0.0,0.0,0.0,0.0,0.0,0.0,0.0,0.0,0.0,0.0,0.0,0.0,0.0,0.0,0.0,0.0,0.0,0.0,0.0,0.0,0.0,0.0,0.0,0.0,0.0,0.0,0.0,0.0,0.0,0.0,0.0,0.0,0.0,0.0,0.0,0.0,0.0,0.0,0.0,0.0,0.0,0.0,0.0,0.0,0.0,0.0,0.0,0.0,0.0,0.0,0.0,0.0,0.0,0.0,0.0,0.0,0.0,0.0,0.0,0.0,0.0,0.0,0.0,0.0,0.0,0.0,0.0,0.0,0.0,0.0,-1.4202,-1.4548,-1.4809,-1.4962,-1.5351,-1.5182,-1.4471,0.0,0.0,0.0,0.0,0.0,0.0,0.0,0.0,0.0,0.0,0.0,0.0,0.0,0.0,0.0,0.0,0.0,0.0,0.0,0.0,0.0,0.0,0.0,0.0,0.0,0.0,0.0,0.0,0.0,0.0,0.0,0.0,0.0,0.0,0.0,0.0,0.0,0.0,0.0,0.0,0.0,0.0,0.0,0.0,0.0,0.0,0.0,0.0,0.0,0.0,0.0,0.0,0.0,0.0,0.0,0.0,0.0,0.0,0.0,0.0,0.0,0.0,0.0,0.0,0.0,0.0,0.0,0.0,0.0,0.0,0.0,0.0,0.0,0.0,0.0,0.0,0.0,0.0,0.0,0.0,0.0,0.0,0.0,0.0,0.0,0.0,0.0,0.0,0.0,0.0,0.0,0.0,0.0,0.0,0.0,0.0,0.0,0.0,0.0,0.0,0.0,0.0,0.0,0.0,0.0,0.0,0.0,0.0,-1.6629,-1.7719,-1.7796,-1.6856,-1.7566,-1.6461,0.0,0.0,0.0,0.0,0.0,0.0,0.0,0.0,0.0,0.0,0.0,0.0,0.0,0.0,0.0,0.0,0.0,0.0,0.0,0.0,0.0,0.0,0.0,0.0,0.0,0.0,0.0,0.0,0.0,0.0,0.0,0.0,0.0,0.0,0.0,0.0,0.0,0.0,0.0,0.0,0.0,0.0,0.0,0.0,0.0,0.0,0.0,0.0,0.0,0.0,0.0,0.0,0.0,0.0,0.0,0.0,0.0,0.0,0.0,0.0,0.0,0.0,0.0,0.0,0.0,0.0,0.0,0.0,0.0,0.0,0.0,0.0,0.0,0.0,0.0,0.0,0.0,0.0,0.0,0.0,0.0,0.0,0.0,0.0,0.0,0.0,0.0,0.0,0.0,0.0,0.0,0.0,0.0,0.0,0.0,0.0,0.0,0.0,0.0,0.0,0.0,0.0,0.0,0.0,0.0,0.0,0.0,0.0,0.0,-1.8326,-2.0535,-2.0944,-1.9392,-1.8469,-1.7574,0.0,0.0,0.0,0.0,0.0,0.0,0.0,0.0,0.0,0.0,0.0,0.0,0.0,0.0,0.0,0.0,0.0,0.0,0.0,0.0,0.0,0.0,0.0,0.0,0.0,0.0,0.0,0.0,0.0,0.0,0.0,0.0,0.0,0.0,0.0,0.0,0.0,0.0,0.0,0.0,0.0,0.0,0.0,0.0,0.0,0.0,0.0,0.0,0.0,0.0,0.0,0.0,0.0,0.0,0.0,0.0,0.0,0.0,0.0,0.0,0.0,0.0,0.0,0.0,0.0,0.0,0.0,0.0,0.0,0.0,0.0,0.0,0.0,0.0,0.0,0.0,0.0,0.0,0.0,0.0,0.0,0.0,0.0,0.0,0.0,0.0,0.0,0.0,0.0,0.0,0.0,0.0,0.0,0.0,0.0,0.0,0.0,0.0,0.0,0.0,0.0,0.0,0.0,0.0,0.0,0.0,0.0,0.0,-1.7727,-1.9496,-2.2441,-2.3475,-2.2482,-2.0593,-1.8902,0.0,0.0,0.0,0.0,0.0,0.0,0.0,0.0,0.0,0.0,0.0,0.0,0.0,0.0,0.0,0.0,0.0,0.0,0.0,0.0,0.0,0.0,0.0,0.0,0.0,0.0,0.0,0.0,0.0,0.0,0.0,0.0,0.0,0.0,0.0,0.0,0.0,0.0,0.0,0.0,0.0,0.0,0.0,0.0,0.0,0.0,0.0,0.0,0.0,0.0,0.0,0.0,0.0,0.0,0.0,0.0,0.0,0.0,0.0,0.0,0.0,0.0,0.0,0.0,0.0,0.0,0.0,0.0,0.0,0.0,0.0,0.0,0.0,0.0,0.0,0.0,0.0,0.0,0.0,0.0,0.0,0.0,0.0,0.0,0.0,0.0,0.0,0.0,0.0,0.0,0.0,0.0,0.0,0.0,0.0,0.0,0.0,0.0,0.0,0.0,0.0,0.0,0.0,0.0,0.0,0.0,0.0,0.0,-1.9463,-2.048,-2.3647,-2.5329,-2.533,-2.3067,-2.038,0.0,0.0,0.0,0.0,0.0,0.0,0.0,0.0,0.0,0.0,0.0,0.0,0.0,0.0,0.0,0.0,0.0,0.0,0.0,0.0,0.0,0.0,0.0,0.0,0.0,0.0,0.0,0.0,0.0,0.0,0.0,0.0,0.0,0.0,0.0,0.0,0.0,0.0,0.0,0.0,0.0,0.0,0.0,0.0,0.0,0.0,0.0,0.0,0.0,0.0,0.0,0.0,0.0,0.0,0.0,0.0,0.0,0.0,0.0,0.0,0.0,0.0,0.0,0.0,0.0,0.0,0.0,0.0,0.0,0.0,0.0,0.0,0.0,0.0,0.0,0.0,0.0,0.0,0.0,0.0,0.0,0.0,0.0,0.0,0.0,0.0,0.0,0.0,0.0,0.0,0.0,0.0,0.0,0.0,0.0,0.0,0.0,0.0,0.0,0.0,0.0,0.0,0.0,0.0,0.0,0.0,0.0,0.0,-1.998,-2.2145,-2.4276,-2.5393,-2.5404,-2.303,-2.1418,0.0,0.0,0.0,0.0,0.0,0.0,0.0,0.0,0.0,0.0,0.0,0.0,0.0,0.0,0.0,0.0,0.0,0.0,0.0,0.0,0.0,0.0,0.0,0.0,0.0,0.0,0.0,0.0,0.0,0.0,0.0,0.0,0.0,0.0,0.0,0.0,0.0,0.0,0.0,0.0,0.0,0.0,0.0,0.0,0.0,0.0,0.0,0.0,-1.5639,0.0,0.0,0.0,0.0,0.0,0.0,0.0,0.0,0.0,0.0,0.0,0.0,0.0,0.0,0.0,0.0,0.0,0.0,0.0,0.0,0.0,0.0,0.0,0.0,0.0,0.0,0.0,0.0,0.0,0.0,0.0,0.0,0.0,0.0,0.0,0.0,0.0,0.0,0.0,0.0,0.0,0.0,0.0,0.0,0.0,0.0,0.0,0.0,0.0,0.0,0.0,0.0,0.0,0.0,0.0,0.0,0.0,0.0,0.0,-2.0529,-2.2602,-2.4416,-2.5352,-2.5337,-2.3791,-2.2571,0.0,0.0,0.0,0.0,0.0,0.0,0.0,0.0,0.0,0.0,0.0,0.0,0.0,0.0,0.0,0.0,0.0,0.0,0.0,0.0,0.0,0.0,0.0,0.0,0.0,0.0,0.0,0.0,0.0,0.0,0.0,0.0,0.0,0.0,0.0,0.0,0.0,0.0,0.0,0.0,0.0,0.0,0.0,0.0,0.0,0.0,0.0,0.0,0.0,0.0,0.0,0.0,0.0,0.0,0.0,0.0,0.0,0.0,0.0,0.0,0.0,0.0,0.0,0.0,0.0,0.0,0.0,0.0,0.0,0.0,0.0,0.0,0.0,0.0,0.0,0.0,0.0,0.0,0.0,0.0,0.0,0.0,0.0,0.0,0.0,0.0,0.0,0.0,0.0,0.0,0.0,0.0,0.0,0.0,0.0,0.0,0.0,0.0,0.0,0.0,0.0,0.0,0.0,0.0,0.0,0.0,0.0,-1.8581,-2.0962,-2.2959,-2.4543,-2.5372,-2.5407,-2.471,-2.3538,-2.1831,0.0,0.0,0.0,0.0,0.0,0.0,0.0,0.0,0.0,0.0,0.0,0.0,0.0,0.0,0.0,0.0,0.0,0.0,0.0,0.0,0.0,0.0,0.0,0.0,0.0,0.0,0.0,0.0,0.0,0.0,0.0,0.0,0.0,0.0,0.0,0.0,0.0,0.0,-1.2039,-1.2635,0.0,0.0,0.0,0.0,0.0,0.0,0.0,0.0,-1.6933,0.0,0.0,0.0,0.0,0.0,0.0,0.0,0.0,0.0,0.0,0.0,0.0,0.0,0.0,0.0,0.0,0.0,0.0,0.0,0.0,0.0,0.0,0.0,0.0,0.0,0.0,0.0,0.0,0.0,0.0,0.0,0.0,0.0,0.0,0.0,0.0,0.0,0.0,0.0,0.0,0.0,0.0,0.0,0.0,0.0,0.0,0.0,0.0,0.0,0.0,0.0,0.0,0.0,0.0,0.0,0.0,-1.8312,-1.8862,-2.0957,-2.4659,-2.5222,-2.5465,-2.5467,-2.4774,-2.3563,-2.1801,0.0,0.0,0.0,0.0,0.0,0.0,0.0,0.0,0.0,0.0,0.0,0.0,0.0,0.0,0.0,0.0,0.0,0.0,0.0,0.0,0.0,0.0,0.0,0.0,0.0,0.0,0.0,0.0,0.0,0.0,0.0,0.0,0.0,0.0,0.0,0.0,0.0,0.0,0.0,-1.4252,-1.4874,0.0,0.0,0.0,0.0,0.0,0.0,0.0,0.0,-1.8408,0.0,0.0,0.0,0.0,0.0,0.0,0.0,0.0,0.0,0.0,0.0,0.0,0.0,0.0,0.0,0.0,0.0,0.0,0.0,0.0,0.0,0.0,0.0,0.0,0.0,0.0,0.0,0.0,0.0,0.0,0.0,0.0,0.0,0.0,0.0,0.0,0.0,0.0,0.0,0.0,0.0,0.0,0.0,0.0,0.0,0.0,0.0,0.0,0.0,0.0,0.0,0.0,0.0,0.0,0.0,-1.886,-2.0672,-2.2949,-2.5738,-2.6047,-2.5915,-2.5481,-2.4342,-2.2912,0.0,0.0,0.0,0.0,0.0,0.0,0.0,0.0,0.0,0.0,0.0,0.0,0.0,0.0,0.0,0.0,0.0,0.0,0.0,0.0,0.0,0.0,0.0,0.0,0.0,0.0,0.0,0.0,0.0,0.0,0.0,0.0,0.0,0.0,0.0,0.0,0.0,0.0,0.0,0.0,-1.571,-1.6394,-1.8992,0.0,0.0,0.0,0.0,0.0,0.0,-1.8561,-1.8581,0.0,0.0,0.0,0.0,0.0,0.0,0.0,0.0,0.0,0.0,0.0,0.0,0.0,0.0,0.0,0.0,0.0,0.0,0.0,0.0,0.0,0.0,0.0,0.0,0.0,0.0,0.0,0.0,0.0,0.0,0.0,0.0,0.0,0.0,0.0,0.0,0.0,0.0,0.0,0.0,0.0,0.0,0.0,0.0,0.0,0.0,0.0,0.0,0.0,0.0,0.0,0.0,0.0,0.0,0.0,-1.8756,-2.1882,-2.4495,-2.6416,-2.647,-2.6251,-2.5763,-2.3859,-2.2118,0.0,0.0,0.0,0.0,0.0,0.0,0.0,0.0,0.0,0.0,0.0,0.0,0.0,0.0,0.0,0.0,0.0,0.0,0.0,0.0,0.0,0.0,0.0,0.0,0.0,0.0,0.0,0.0,0.0,0.0,0.0,0.0,0.0,0.0,0.0,0.0,0.0,0.0,0.0,0.0,0.0,-1.8024,-2.0236,-1.9105,0.0,0.0,0.0,0.0,-1.8757,-1.8932,0.0,0.0,0.0,0.0,0.0,0.0,0.0,0.0,0.0,0.0,0.0,0.0,0.0,0.0,0.0,0.0,0.0,0.0,0.0,0.0,0.0,0.0,0.0,0.0,0.0,0.0,0.0,0.0,0.0,0.0,0.0,0.0,0.0,0.0,0.0,0.0,0.0,0.0,0.0,0.0,0.0,0.0,0.0,0.0,0.0,0.0,0.0,0.0,0.0,0.0,0.0,0.0,0.0,0.0,0.0,0.0,-1.7915,-2.0473,-2.339,-2.6446,-2.6018,-2.5985,-2.6663,-2.3634,-2.1524,0.0,0.0,0.0,0.0,0.0,0.0,0.0,0.0,0.0,0.0,0.0,0.0,0.0,0.0,0.0,0.0,0.0,0.0,0.0,0.0,0.0,0.0,0.0,0.0,0.0,0.0,0.0,0.0,0.0,0.0,0.0,0.0,0.0,0.0,0.0,0.0,0.0,0.0,0.0,0.0,0.0,-1.9285,-2.0369,-1.9016,-1.82,0.0,0.0,-2.0578,-2.1335,-2.2037,0.0,0.0,0.0,0.0,0.0,0.0,0.0,0.0,0.0,0.0,0.0,0.0,0.0,0.0,0.0,0.0,0.0,0.0,0.0,0.0,0.0,0.0,0.0,0.0,0.0,0.0,0.0,0.0,0.0,0.0,0.0,0.0,0.0,0.0,0.0,0.0,0.0,0.0,0.0,0.0,0.0,0.0,0.0,0.0,0.0,0.0,0.0,0.0,0.0,0.0,0.0,0.0,0.0,0.0,0.0,-1.6967,-1.8545,-2.2455,-2.5224,-2.6612,-2.6431,-2.626,-2.6169,-2.2892,-2.0728,0.0,0.0,0.0,0.0,0.0,0.0,0.0,0.0,0.0,0.0,0.0,0.0,0.0,0.0,0.0,0.0,0.0,0.0,0.0,0.0,0.0,0.0,0.0,0.0,0.0,0.0,0.0,0.0,0.0,0.0,0.0,0.0,0.0,0.0,0.0,0.0,0.0,0.0,0.0,0.0,0.0,0.0,-2.1068,-2.0527,0.0,0.0,0.0,-2.1637,-2.0591,0.0,0.0,0.0,0.0,0.0,0.0,0.0,0.0,0.0,0.0,0.0,0.0,0.0,0.0,0.0,0.0,0.0,0.0,0.0,0.0,0.0,0.0,0.0,0.0,0.0,0.0,0.0,0.0,0.0,0.0,0.0,0.0,0.0,0.0,0.0,0.0,0.0,0.0,0.0,0.0,0.0,0.0,0.0,0.0,0.0,0.0,0.0,0.0,0.0,0.0,0.0,0.0,0.0,0.0,0.0,0.0,0.0,-1.8763,-2.3825,-2.6539,-2.6703,-2.6635,-2.6385,-2.5905,-2.289,0.0,0.0,0.0,0.0,0.0,0.0,0.0,0.0,0.0,0.0,0.0,0.0,0.0,0.0,0.0,0.0,0.0,0.0,0.0,0.0,0.0,0.0,0.0,0.0,0.0,0.0,0.0,-0.7031,0.0,0.0,0.0,0.0,0.0,0.0,0.0,0.0,0.0,0.0,0.0,0.0,0.0,0.0,-2.1278,-2.19,-2.2189,-2.2479,0.0,0.0,-2.2831,-2.1175,-2.3226,-2.3833,0.0,0.0,0.0,0.0,0.0,0.0,0.0,0.0,0.0,0.0,0.0,0.0,0.0,0.0,0.0,0.0,0.0,0.0,0.0,0.0,0.0,0.0,0.0,0.0,0.0,0.0,0.0,0.0,0.0,0.0,0.0,0.0,0.0,0.0,0.0,0.0,0.0,0.0,0.0,0.0,0.0,0.0,0.0,0.0,0.0,0.0,0.0,0.0,0.0,0.0,0.0,0.0,0.0,0.0,-1.7802,-1.7959,-2.2875,-2.5943,-2.6737,-2.6072,-2.6076,-2.6815,-2.4327,-2.1776,0.0,0.0,0.0,0.0,0.0,0.0,0.0,0.0,0.0,0.0,0.0,0.0,0.0,0.0,0.0,0.0,0.0,0.0,0.0,0.0,0.0,0.0,0.0,0.0,0.0,0.0,0.0,0.0,0.0,0.0,0.0,0.0,0.0,0.0,0.0,0.0,0.0,0.0,0.0,0.0,0.0,-2.2766,-2.281,-2.3448,-2.4563,0.0,-2.5231,-2.4446,-2.5137,-2.6117,-2.5395,-2.1193,0.0,0.0,0.0,0.0,0.0,0.0,0.0,0.0,0.0,0.0,0.0,0.0,0.0,0.0,0.0,0.0,0.0,0.0,0.0,0.0,0.0,0.0,0.0,0.0,0.0,0.0,0.0,0.0,0.0,0.0,0.0,0.0,0.0,0.0,0.0,0.0,0.0,0.0,0.0,0.0,0.0,0.0,0.0,0.0,0.0,0.0,0.0,0.0,0.0,0.0,0.0,0.0,0.0,-1.7877,-1.7838,-2.2931,-2.5722,-2.5976,-2.5788,-2.5837,-2.6181,-2.4193,-2.1663,0.0,0.0,0.0,0.0,0.0,0.0,0.0,0.0,0.0,0.0,0.0,0.0,0.0,0.0,0.0,0.0,0.0,0.0,0.0,0.0,0.0,0.0,0.0,0.0,0.0,0.0,0.0,0.0,-1.4714,-1.5161,-1.38,0.0,0.0,0.0,0.0,0.0,0.0,0.0,0.0,0.0,0.0,-2.34,-2.4957,-2.5437,0.0,0.0,-2.6723,-2.6407,-2.5779,-2.6431,-2.5707,-2.1995,-2.0943,0.0,0.0,0.0,0.0,0.0,0.0,0.0,0.0,0.0,0.0,0.0,0.0,0.0,0.0,0.0,0.0,0.0,0.0,0.0,0.0,0.0,0.0,0.0,0.0,0.0,0.0,0.0,0.0,0.0,0.0,0.0,0.0,0.0,0.0,0.0,0.0,0.0,0.0,0.0,0.0,0.0,0.0,0.0,0.0,0.0,0.0,0.0,0.0,0.0,0.0,0.0,0.0,-1.8021,-1.8196,-2.3104,-2.5617,-2.5535,-2.5648,-2.5696,-2.5657,-2.4514,-2.2395,0.0,0.0,0.0,0.0,0.0,0.0,0.0,0.0,0.0,0.0,0.0,0.0,0.0,0.0,0.0,0.0,0.0,0.0,0.0,0.0,0.0,0.0,0.0,0.0,0.0,0.0,0.0,0.0,-1.5478,-1.544,-1.4228,0.0,0.0,0.0,0.0,0.0,0.0,0.0,0.0,0.0,0.0,-2.4298,-2.6303,-2.6843,-2.7071,-2.7175,-2.7498,-2.7274,-2.5915,-2.6429,-2.5922,-2.2758,0.0,0.0,0.0,0.0,0.0,0.0,0.0,0.0,0.0,0.0,0.0,0.0,0.0,0.0,0.0,0.0,0.0,0.0,0.0,0.0,0.0,0.0,0.0,0.0,0.0,0.0,0.0,-1.0286,0.0,0.0,-1.031,0.0,0.0,0.0,0.0,0.0,0.0,0.0,0.0,0.0,0.0,0.0,0.0,0.0,0.0,0.0,0.0,0.0,0.0,0.0,0.0,0.0,0.0,-1.8227,-1.9112,-2.3306,-2.554,-2.5604,-2.5655,-2.569,-2.5693,-2.5637,-2.4394,-2.1758,0.0,0.0,0.0,0.0,0.0,0.0,0.0,0.0,0.0,0.0,0.0,0.0,0.0,0.0,0.0,0.0,0.0,0.0,0.0,0.0,0.0,0.0,0.0,0.0,0.0,0.0,-1.09,-1.2703,-1.4171,0.0,0.0,0.0,0.0,0.0,0.0,0.0,0.0,0.0,-2.1198,-2.365,-2.5575,-2.6486,-2.7379,-2.797,-2.8061,-2.7443,-2.6658,-2.5898,-2.6429,-2.6115,0.0,0.0,0.0,0.0,0.0,0.0,0.0,0.0,0.0,0.0,0.0,0.0,0.0,0.0,0.0,0.0,0.0,0.0,0.0,0.0,0.0,0.0,0.0,0.0,0.0,0.0,0.0,-1.2519,-1.2044,0.0,0.0,0.0,0.0,0.0,0.0,0.0,0.0,0.0,0.0,0.0,-1.7968,-1.7981,0.0,0.0,0.0,0.0,0.0,0.0,0.0,0.0,0.0,0.0,0.0,0.0,-1.8333,-1.9245,-2.3412,-2.5625,-2.5604,-2.5658,-2.5687,-2.5702,-2.5702,-2.4746,-2.2715,0.0,0.0,0.0,0.0,0.0,0.0,0.0,0.0,0.0,0.0,0.0,0.0,0.0,0.0,0.0,0.0,0.0,0.0,0.0,0.0,0.0,0.0,0.0,0.0,0.0,-1.3754,0.0,0.0,0.0,0.0,0.0,0.0,0.0,0.0,0.0,0.0,-1.9091,-2.102,-2.3021,-2.4454,-2.5841,-2.7264,-2.7776,-2.824,0.0,0.0,0.0,0.0,0.0,0.0,0.0,0.0,0.0,0.0,0.0,0.0,0.0,0.0,-2.6191,-2.2184,-2.1663,-2.2004,-2.2575,0.0,0.0,0.0,0.0,0.0,0.0,0.0,0.0,0.0,0.0,0.0,0.0,0.0,0.0,-1.5152,-1.4677,-1.4348,0.0,0.0,0.0,0.0,0.0,0.0,0.0,0.0,-1.9165,-2.0103,-2.0621,-2.0623,-2.062,-2.0577,-1.9738,-1.7595,0.0,0.0,0.0,0.0,0.0,0.0,0.0,0.0,-1.8786,-1.9725,-2.3589,-2.5668,-2.5645,-2.5666,-2.5701,-2.5659,-2.5659,-2.5119,-2.4008,-2.0899,-1.9211,0.0,0.0,0.0,0.0,0.0,0.0,0.0,0.0,0.0,0.0,0.0,0.0,0.0,0.0,0.0,0.0,0.0,0.0,0.0,0.0,0.0,0.0,0.0,-1.4463,0.0,0.0,0.0,0.0,0.0,0.0,0.0,0.0,0.0,-1.9083,-2.0808,-2.2733,-2.4798,-2.5726,-2.6502,-2.7364,0.0,0.0,0.0,0.0,0.0,0.0,0.0,-2.5668,-2.5354,-2.5393,-2.5898,-2.7242,-2.8906,-2.9964,-2.9638,0.0,0.0,-2.5776,-2.5213,-2.5529,-2.6103,-2.6435,-2.6765,-2.7331,-2.745,-2.7451,0.0,0.0,0.0,0.0,-1.6794,0.0,0.0,0.0,-1.8157,-1.8129,0.0,-1.7177,0.0,0.0,0.0,0.0,-1.5775,-1.8171,0.0,0.0,-2.3688,-2.4809,-2.3288,-2.3218,-2.3217,-2.312,-2.2363,-2.1123,-1.9543,-1.874,0.0,0.0,0.0,0.0,0.0,0.0,-1.9636,-2.0721,-2.3918,-2.5668,-2.5819,-2.5742,-2.5662,-2.5609,-2.5603,-2.56,-2.551,-2.3154,-2.1794,-2.1653,-1.6316,0.0,0.0,0.0,0.0,0.0,0.0,0.0,0.0,0.0,0.0,0.0,0.0,0.0,0.0,0.0,0.0,0.0,0.0,0.0,0.0,-1.4223,0.0,0.0,0.0,0.0,0.0,0.0,0.0,0.0,0.0,-2.1723,-2.1716,-2.2443,-2.3906,-2.6301,0.0,0.0,0.0,0.0,-2.749,-2.5918,-2.5703,-2.5566,-2.4807,-2.6644,-2.7932,-2.7192,0.0,0.0,-3.0997,-3.0977,-3.0877,-2.9999,-3.1287,-3.197,-3.115,-3.0174,-2.9667,-2.9667,-2.9118,-2.8589,-2.8547,-2.8859,-2.8764,-2.3227,0.0,0.0,0.0,0.0,-1.9488,-1.9954,-2.0752,-2.1374,-2.0955,-1.977,-1.9519,0.0,0.0,0.0,0.0,0.0,0.0,-2.2432,-2.4765,-2.5425,-2.5768,-2.5885,-2.5886,-2.5554,-2.4988,-2.5326,-2.5269,-2.482,-2.5171,-2.1983,-1.55,0.0,0.0,0.0,0.0,-2.1193,-2.3247,-2.4855,-2.6285,-2.7538,-2.6328,-2.5661,-2.5598,-2.5601,-2.56,-2.5601,-2.4882,-2.3911,-2.2649,-2.1022,0.0,0.0,0.0,0.0,0.0,0.0,0.0,0.0,0.0,0.0,0.0,0.0,0.0,0.0,0.0,0.0,0.0,0.0,0.0,-1.4962,-1.6704,-1.7099,0.0,0.0,0.0,0.0,0.0,0.0,0.0,0.0,0.0,-2.5066,-2.489,-2.4989,0.0,0.0,-2.6111,-2.5887,-2.6649,-2.7296,-2.7405,-2.7498,0.0,-2.8069,-2.7698,-2.7698,-2.8676,-3.1192,-3.2949,-3.2695,-3.369,-3.4452,-3.4156,-3.4546,-3.48,-3.453,-3.3319,-3.238,-3.2321,-3.2595,-3.2848,-3.2868,-3.2868,-3.2829,-2.6591,-2.3973,-2.225,-2.2122,-2.3077,-2.3123,-2.3612,-2.4376,-2.492,-2.4569,-2.3556,-2.3222,-2.2325,-2.1015,-2.0328,0.0,0.0,0.0,-2.4834,-2.7449,-2.6926,-2.6997,-2.7493,-2.7518,-2.7245,-2.6777,-2.7265,-2.7518,-2.7518,-2.7693,-2.4994,-1.9653,0.0,-1.8878,-1.8773,-2.062,-2.2693,-2.4841,-2.5781,-2.6875,-2.8202,-2.6889,-2.6154,-2.611,-2.5792,-2.5615,-2.5595,-2.5604,-2.5113,-2.4088,-2.3023,-2.1308,0.0,0.0,0.0,0.0,0.0,0.0,0.0,0.0,0.0,0.0,0.0,-1.0148,-0.862,0.0,0.0,0.0,-1.5987,-1.7019,-1.7895,-1.8775,0.0,0.0,0.0,0.0,0.0,0.0,0.0,-2.1935,-2.3949,-2.5697,-2.6675,-2.664,-2.6668,-2.7093,-2.7098,-2.6929,-2.6626,0.0,-2.7962,-2.8166,-2.8249,-2.8479,-2.8986,-2.8771,-2.9201,-3.1292,-3.2871,-3.4022,-3.4413,-3.5347,-3.5971,-3.601,-3.601,-3.601,-3.601,-3.5132,-3.4452,-3.4432,-3.4842,-3.5193,-3.5213,-3.5232,-3.5213,-2.8843,-2.945,-2.7814,-2.7141,-2.7104,-2.7173,-2.7576,-2.8188,-2.8318,-2.8346,-2.824,-2.7459,-2.6657,-2.5813,-2.4313,0.0,-2.6013,-2.6082,-2.6948,-2.8407,-2.8407,-2.8381,-2.8398,-2.8398,-2.8381,-2.8283,-2.8379,-2.8416,-2.8378,-2.7675,-2.6835,-2.5897,-2.5116,-2.3807,-2.2148,-2.2851,-2.416,-2.5878,-2.6621,-2.7382,-2.8192,-2.7482,-2.7055,-2.6895,-2.6151,-2.5679,-2.5601,-2.56,-2.561,-2.5532,-2.331,-2.1949,-2.1658,0.0,0.0,0.0,0.0,0.0,0.0,0.0,0.0,0.0,0.0,0.0,0.0,0.0,0.0,0.0,-1.9732,0.0,-2.2036,-2.0651,0.0,0.0,0.0,-2.002,-2.082,-2.3176,-2.4676,-2.4604,0.0,0.0,-2.7181,-2.783,-2.8622,-2.9487,-2.9444,-2.9035,-2.8318,-2.8837,-2.9155,-2.845,-2.8449,-2.8522,-2.88,-2.9933,-3.169,-3.3935,-3.4732,-3.5066,-3.571,-3.5942,-3.5999,-3.5982,-3.5979,-3.5999,-3.5979,-3.5901,-3.6013,-3.5899,-3.5857,-3.5857,-3.5779,-3.5642,-3.5584,-3.0105,-3.0289,-2.9776,-2.9303,-2.8903,-2.8906,-2.865,-2.8281,-2.8925,-2.8867,-2.8291,-2.8096,-2.7869,-2.7691,-2.7894,-2.8203,-2.8619,-2.9281,-2.9805,-3.0185,-3.0192,-2.9842,-2.9235,-2.9264,-2.8945,-2.8379,-2.8973,-2.929,-2.9309,-2.9698,-2.915,-2.7725,-2.7468,-2.616,-2.3898,-2.4645,-2.5956,-2.7675,-2.7222,-2.7432,-2.8247,-2.8728,-2.833,-2.701,-2.6796,-2.6337,-2.564,-2.5598,-2.5613,-2.5593,-2.5011,-2.4102,-2.2814,-1.9536,0.0,0.0,0.0,0.0,0.0,0.0,0.0,0.0,0.0,-1.3094,-0.9875,0.0,-1.6339,0.0,-2.0943,-2.3577,-2.3792,-2.3421,0.0,0.0,-2.3304,-2.3536,-2.4383,-2.6188,-2.7088,-2.6381,-2.78,-2.887,-2.885,-2.9035,-2.9506,-3.0336,-2.9383,-2.8488,-2.8315,-2.9023,-2.948,-2.9292,-2.9744,-3.0195,-3.0289,-3.1615,-3.3099,-3.4427,-3.5169,-3.5696,-3.5891,-3.593,-3.593,-3.5932,-3.5937,-3.5918,-3.5915,-3.5956,-3.5964,-3.5894,-3.5441,-3.4998,-3.5018,-3.453,-3.4237,-3.0494,-3.0549,-3.0479,-3.0036,-2.9434,-2.9791,-2.9679,-2.9318,-2.9778,-2.9757,-2.9374,-2.9402,-2.9411,-2.9453,-2.9886,-3.0062,-3.0133,-3.0579,-3.0784,-3.0791,-3.0799,-3.0548,-3.0096,-3.0116,-2.9882,-2.9433,-2.9904,-3.0138,-3.0157,-3.0587,-3.0311,-2.9433,-2.9413,-2.8518,-2.6761,-2.6044,-2.6555,-2.8255,-2.8211,-2.8576,-2.9377,-2.9142,-2.8379,-2.7044,-2.6244,-2.5225,-2.3965,-2.3901,-2.3897,-2.3897,-2.3895,-2.3474,-2.252,-2.0048,-1.7641,0.0,0.0,0.0,0.0,0.0,0.0,0.0,0.0,0.0,0.0,0.0,-1.8016,-1.8426,-2.276,-2.5238,-2.4456,-2.475,-2.5119,-2.5527,-2.5915,-2.6459,-2.7309,-2.8603,-2.9213,-2.8713,-2.9489,-3.0063,-3.0026,-3.0069,-3.0255,-3.0726,-3.0013,-2.9413,-2.9435,-2.9833,-3.0134,-3.0098,-3.0487,-3.0951,-3.1289,-3.2458,-3.359,-3.4468,-3.5327,-3.5893,-3.5893,-3.5893,-3.5893,-3.5896,-3.5888,-3.5891,-3.5899,-3.5933,-3.5937,-3.5799,-3.5214,-3.4881,-3.5179,-3.4901,-3.4744,-3.0428,-3.0481,-3.049,-3.0085,-2.9505,-3.0201,-3.0401,-3.0292,-3.0283,-3.0384,-3.0567,-3.0717,-3.0798,-3.0799,-3.0801,-3.0799,-3.08,-3.0793,-3.0795,-3.08,-3.0793,-3.0801,-3.0801,-3.0801,-3.0801,-3.0801,-3.0801,-3.0801,-3.0801,-3.0801,-3.0762,-3.0645,-3.0665,-3.0235,-2.9377,-2.7171,-2.678,-2.8283,-2.9162,-2.9962,-3.0587,-2.9103,-2.7835,-2.6841,-2.5356,-2.3695,-2.1918,-2.1911,-2.1923,-2.1806,-2.1786,-2.1909,-2.2049,-1.9666,-1.7618,0.0,-1.3882,0.0,0.0,0.0,0.0,0.0,0.0,0.0,0.0,-1.9323,-2.0298,-2.1198,-2.4731,-2.6468,-2.5178,-2.5744,-2.6542,-2.7374,-2.8173,-2.8889,-2.9585,-3.0329,-3.0801,-3.0794,-3.0785,-3.079,-3.0769,-3.0799,-3.0793,-3.0794,-3.0732,-3.0643,-3.0765,-3.0719,-3.0742,-3.0781,-3.0886,-3.1318,-3.2118,-3.294,-3.3796,-3.4635,-3.5392,-3.5884,-3.5896,-3.5896,-3.59,-3.59,-3.5884,-3.5887,-3.5884,-3.5887,-3.5893,-3.589,-3.5327,-3.5031,-3.5485,-3.546,-3.5691,-3.0305,-3.0402,-3.0299,-3.0263,-3.0278,-3.034,-2.9678,-2.8573,-2.8618,-2.908,-2.9843,-3.0511,-3.0786,-3.0786,-3.079,-3.079,-3.079,-3.0784,-3.0784,-3.079,-3.0784,-3.0801,-3.0801,-3.0801,-3.0801,-3.0801,-3.0801,-3.0801,-3.0801,-3.0801,-3.0448,-2.9843,-2.9826,-2.9396,-2.8574,0.0,0.0,0.0,-2.9142,-2.9669,-2.9789,-2.883,-2.7561,-2.6019,-2.5629,0.0,-2.2055,-2.2504,-2.2541,-2.1915,-2.182,0.0,0.0,0.0,0.0,0.0,0.0,0.0,0.0,0.0,0.0,0.0,-2.0233,-2.0274,-2.018,-2.2153,-2.379,-2.4683,-2.6134,-2.7425,-2.8433,-2.8684,-2.9129,-2.9982,-3.0216,-3.0388,-3.0552,-3.0696,-3.0794,-3.0798,-3.079,-3.079,-3.0784,-3.0799,-3.0789,-3.0786,-3.0794,-3.0786,-3.079,-3.0799,-3.0758,-3.0762,-3.13,-3.2046,-3.2942,-3.3784,-3.456,-3.543,-3.5735,-3.5866,-3.584,-3.5813,-3.5806,-3.5813,-3.5872,-3.5869,-3.584,-3.5866,-3.5884,-3.5895,-3.574,-3.5506,-3.4968,-3.4306,-3.4014,-3.0649,-3.0349,-3.0267,-3.0086,0.0,-2.9767,-2.9085,-2.8068,-2.8936,-2.9617,-3.0178,-3.0641,-3.086,-3.0821,-3.0389,-3.0216,-3.0196,-2.9765,-2.9804,-3.0214,-3.0214,-3.0428,-3.0801,-3.0801,-3.0801,-3.0801,-3.0801,-3.0801,-3.0801,-3.0801,-3.0587,-3.0194,-3.0196,-2.9962,-2.955,-2.953,-2.9357,-2.8947,-2.9377,-2.9808,-3.0138,-2.9377,-2.8323,-2.7015,-2.6156,0.0,0.0,0.0,0.0,0.0,0.0,0.0,0.0,0.0,0.0,-2.2388,-2.1228,-2.0907,-2.1715,-2.1815,-2.2548,-2.4222,-2.513,-2.489,-2.3237,-2.5442,-2.7098,-2.7543,-2.8369,-2.923,-3.0024,-3.0141,-3.0333,-3.0732,-3.079,-3.0786,-3.0793,-3.0798,-3.0798,-3.0784,-3.0793,-3.0793,-3.0804,-3.0799,-3.0793,-3.0794,-3.0796,-3.0811,-3.08,-3.0799,-3.0903,-3.13,-3.1709,-3.2508,-3.3668,-3.4272,-3.4895,-3.5657,-3.5885,-3.5879,-3.5859,-3.5845,-3.585,-3.585,-3.5866,-3.5872,-3.5852,-3.5883,-3.588,-3.5899,-3.589,-3.5791,-3.5303,-3.4885,-3.4703,-3.1221,-3.0483,-3.0484,-3.01,-2.9533,-2.9605,-2.925,-2.8673,-2.9725,0.0,0.0,-3.0735,-3.0852,-3.0833,-3.0113,-2.9826,-2.9789,-2.9064,-2.914,-2.9804,-2.9823,-3.0174,-3.0782,-3.0801,-3.0801,-3.0801,-3.0801,-3.0801,-3.0821,-3.0821,-3.0821,-3.0819,-3.0796,-3.0794,-3.0791,-3.0796,-3.0487,-2.9838,-2.9687,-2.9904,-3.0528,-2.9782,-2.892,-2.8059,-2.6657,-2.5096,-2.3376,-2.2795,-2.2445,-2.2348,-2.233,-2.2781,-2.3696,-2.3636,-2.3691,-2.3961,-2.3361,-2.3913,-2.5989,-2.5624,-2.6298,-2.8578,-2.9341,-2.8782,-2.6526,-2.8437,-2.9721,-2.9721,-3.0384,-3.0778,-3.0798,-3.0798,-3.079,-3.0798,-3.0798,-3.0793,-3.0804,-3.0789,-3.0793,-3.0804,-3.0804,-3.0789,-3.0802,-3.0793,-3.0876,-3.1008,-3.1099,-3.1129,-3.1205,-3.1231,-3.1409,-3.2166,-3.2586,-3.3137,-3.4209,-3.4818,-3.5125,-3.5763,-3.5894,-3.5894,-3.5889,-3.5891,-3.5892,-3.5892,-3.5892,-3.5892,-3.5892,-3.5897,-3.5889,-3.5889,-3.5889,-3.5889,-3.5894,-3.5884,-3.5825,-3.1879,-3.1161,-3.1157,-3.114,-3.1161,-3.1295,-3.1306,-3.1137,-2.9989,-2.9505,-2.963,-3.0336,-3.0715,-3.0793,-3.069,-3.0665,-3.0706,-3.0533,-3.0513,-3.0628,-3.0626,-3.0684,-3.0801,-3.0801,-3.0801,-3.0801,-3.0801,-3.0841,-3.0899,-3.0899,-3.088,-3.0897,-3.0833,-3.0765,-3.073,-3.084,-3.0788,-3.0618,-2.9929,-2.963,-2.9669,-2.884,-2.7955,-2.706,-2.6872,-2.5905,-2.4214,-2.4796,-2.4829,-2.4085,-2.4046,-2.477,-2.6312,-2.5763,-2.6015,-2.7403,-2.7464,-2.7547,-2.7908,-2.8456,-2.9259,-3.031,-3.0555,-3.0131,-2.9133,-2.9975,-3.0618,-3.0611,-3.0712,-3.0794,-3.0786,-3.0782,-3.0798,-3.0789,-3.0784,-3.0784,-3.0784,-3.0794,-3.0798,-3.0793,-3.0799,-3.079,-3.0784,-3.0824,-3.1129,-3.1708,-3.1873,-3.2167,-3.266,-3.2377,-3.2346,-3.3095,-3.3879,-3.4374,-3.4752,-3.536,-3.5724,-3.5864,-3.5903,-3.5899,-3.5899,-3.5889,-3.5883,-3.5883,-3.5883,-3.5883,-3.5883,-3.5883,-3.5894,-3.5894,-3.5894,-3.5894,-3.5894,-3.5904,-3.5885,-3.2735,-3.2026,-3.1884,-3.1635,-3.1329,-3.145,-3.1763,-3.2164,-3.1555,-3.0787,-3.0113,-3.047,-3.0691,-3.0745,-3.0303,-3.0144,-3.0177,-2.9669,-2.9691,-3.0121,-3.0157,-3.0389,-3.0762,-3.0801,-3.0821,-3.086,-3.086,-3.086,-3.0899,-3.0923,-3.0905,-3.0905,-3.0862,-3.0821,-3.0703,-3.0838,-3.0862,-3.0739,-3.0427,-3.0239,-3.0196,-2.978,-2.9343,-2.89,-2.8513,-2.7897,-2.7098,-2.7051,-2.6877,-2.6477,-2.6479,-2.7093,-2.8303,-2.8047,-2.8379,-2.9533,-2.924,-2.9184,-2.9638,-2.9999,-3.0382,-3.0774,-3.0802,-3.065,-3.0248,-3.0564,-3.0798,-3.0793,-3.0798,-3.0798,-3.0789,-3.0789,-3.0789,-3.0799,-3.0798,-3.0794,-3.0798,-3.0796,-3.0784,-3.0796,-3.0794,-3.0788,-3.08,-3.1211,-3.16,-3.207,-3.2459,-3.3135,-3.3986,-3.3776,-3.3633,-3.405,-3.4462,-3.4875,-3.531,-3.5701,-3.5971,-3.5962,-3.5962,-3.5958,-3.5947,-3.5942,-3.589,-3.589,-3.589,-3.589,-3.589,-3.5942,-3.5947,-3.5947,-3.5951,-3.5951,-3.5947,-3.5947,-3.5942,-3.3504,-3.2724,-3.2651,-3.2324,-3.1897,-3.1968,-3.2401,-3.2971,-3.2972,-3.2273,-3.1255,-3.1023,-3.0998,-3.0957,-3.0118,-2.9784,-2.9748,-2.9155,-2.9238,-2.9826,-2.9882,-3.0214,-3.0782,-3.0821,-3.086,-3.0899,-3.0921,-3.0921,-3.0919,-3.0925,-3.0886,-3.0855,-3.0846,-3.0804,-3.0678,-3.0795,-3.0801,-3.0709,-3.0923,-3.0969,-3.0762,-3.089,-3.0855,-3.0616,-3.0222,-2.9953,-2.994,-2.9401,-2.9074,-2.9104,-2.9322,-2.9611,-2.9865,-3.006,-3.037,-3.0723,-3.0216,-3.0157,-3.0723,-3.0795,-3.0799,-3.0794,-3.0788,-3.0788,-3.0789,-3.0789,-3.0789,-3.0804,-3.0804,-3.0799,-3.0799,-3.0799,-3.0784,-3.0793,-3.0798,-3.0794,-3.0801,-3.0793,-3.0798,-3.0797,-3.0799,-3.08,-3.0945,-3.1558,-3.2248,-3.2767,-3.3445,-3.4259,-3.4861,-3.4998,-3.4998,-3.4998,-3.4998,-3.5252,-3.5913,-3.5991,-3.6007,-3.5985,-3.5988,-3.5958,-3.5931,-3.5895,-3.5899,-3.5895,-3.5895,-3.5903,-3.5931,-3.5962,-3.5988,-3.6007,-3.6007,-3.601,-3.6007,-3.5991,-3.5988,-3.3942,-3.3329,-3.3412,-3.3697,-3.3942,-3.4016,-3.4079,-3.4105,-3.3431,-3.3037,-3.2808,-3.2048,-3.1748,-3.1687,-3.089,-3.0536,-3.0613,-3.056,-3.0565,-3.0645,-3.0684,-3.0782,-3.088,-3.088,-3.088,-3.0899,-3.0888,-3.0907,-3.0894,-3.0899,-3.0859,-3.0739,-3.0715,-3.0679,-3.0626,-3.0696,-3.0719,-3.0721,-3.1418,-3.1402,-3.0722,-3.1382,-3.1381,-3.0559,-3.1288,-3.1681,-3.1607,-3.1701,-3.1724,-3.1792,-3.2423,-3.2226,-3.1075,-3.1465,-3.1563,-3.0958,-3.0743,-3.0743,-3.0801,-3.0795,-3.0801,-3.0796,-3.0795,-3.0786,-3.0798,-3.0794,-3.0798,-3.0789,-3.0799,-3.0784,-3.0799,-3.0784,-3.0802,-3.0785,-3.0794,-3.0799,-3.0795,-3.08,-3.0801,-3.0797,-3.0799,-3.0804,-3.0977,-3.1733,-3.2809,-3.4161,-3.4923,-3.5506,-3.5681,-3.5737,-3.5757,-3.5818,-3.5874,-3.5854,-3.601,-3.601,-3.5978,-3.5934,-3.597,-3.5919,-3.5833,-3.5827,-3.5894,-3.5864,-3.5869,-3.5904,-3.5951,-3.601,-3.5988,-3.5958,-3.5962,-3.5991,-3.601,-3.601,-3.5991,-3.4333,-3.406,-3.402,-3.4225,-3.4527,-3.412,-3.4273,-3.4754,-3.4569,-3.4461,-3.4364,-3.3662,-3.3103,-3.2619,-3.1759,-3.1394,-3.1421,-3.0957,-3.0755,-3.074,-3.0735,-3.0754,-3.0784,-3.0834,-3.0833,-3.0794,-3.0859,-3.0849,-3.0813,-3.0781,-3.0728,-3.0658,-3.0681,-3.0645,-3.0552,-3.0664,-3.0895,-3.136,-3.1699,-3.1942,-3.2094,-3.2425,-3.2444,-3.2125,-3.2416,-3.2638,-3.2677,-3.2761,-3.281,-3.2834,-3.321,-3.3117,-3.2432,-3.2707,-3.2489,-3.1682,-3.1133,-3.086,-3.086,-3.0866,-3.0852,-3.0797,-3.0797,-3.08,-3.08,-3.0796,-3.0798,-3.0789,-3.0782,-3.0801,-3.0794,-3.0796,-3.0801,-3.079,-3.0796,-3.08,-3.0801,-3.0797,-3.0793,-3.0796,-3.079,-3.1016,-3.1638,-3.277,-3.4078,-3.523,-3.5835,-3.5991,-3.601,-3.601,-3.601,-3.601,-3.601,-3.601,-3.601,-3.5974,-3.5934,-3.5914,-3.5852,-3.5774,-3.5725,-3.5718,-3.5787,-3.5787,-3.5787,-3.5794,-3.5795,-3.5807,-3.5813,-3.5839,-3.5909,-3.5947,-3.6007,-3.601,-3.601,-3.4498,-3.4526,-3.4505,-3.4734,-3.4992,-3.4419,-3.4592,-3.523,-3.5411,-3.5472,-3.5433,-3.4977,-3.4292,-3.3432,-3.2387,-3.1796,-3.1549,-3.0954,-3.0661,-3.0676,-3.069,-3.0707,-3.0704,-3.0765,-3.0754,-3.0722,-3.0812,-3.0803,-3.0704,-3.0684,-3.0639,-3.0603,-3.0625,-3.0608,-3.0559,-3.0636,-3.0946,-3.1487,-3.1952,-3.256,-3.3121,-3.3585,-3.3594,-3.3167,-3.3362,-3.3508,-3.3555,-3.3634,-3.3654,-3.3646,-3.3932,-3.3885,-3.3416,-3.3611,-3.3276,-3.2211,-3.155,-3.1122,-3.0946,-3.0925,-3.0882,-3.0841,-3.0843,-3.0827,-3.0795,-3.0795,-3.0801,-3.0782,-3.0785,-3.0801,-3.0795,-3.0798,-3.0798,-3.0799,-3.0801,-3.0799,-3.0796,-3.0788,-3.0801,-3.0801,-3.0801,-3.1248,-3.2341,-3.3512,-3.4588,-3.5678,-3.5991,-3.601,-3.601,-3.601,-3.5991,-3.5981,-3.5978,-3.5958,-3.5958,-3.5938,-3.5889,-3.582,-3.5729,-3.5693,-3.5669,-3.565,-3.5678,-3.5697,-3.5678,-3.5685,-3.5725,-3.5718,-3.5693,-3.5729,-3.5801,-3.5894,-3.5966,-3.5981,-3.601,-3.434,-3.4458,-3.4794,-3.5209,-3.5631,-3.5554,-3.5585,-3.562,-3.5665,-3.5684,-3.5665,-3.5626,-3.5143,-3.4167,-3.257,-3.141,-3.0781,-3.0656,-3.0607,-3.0623,-3.0681,-3.0711,-3.0694,-3.0703,-3.0707,-3.0697,-3.0719,-3.0715,-3.0695,-3.0637,-3.0608,-3.0618,-3.0549,-3.0559,-3.0569,-3.0598,-3.0675,-3.1023,-3.2251,-3.3169,-3.3467,-3.4765,-3.4659,-3.3476,-3.3991,-3.4438,-3.4457,-3.4555,-3.4604,-3.4534,-3.533,-3.5117,-3.373,-3.4199,-3.3846,-3.2389,-3.2048,-3.168,-3.1016,-3.0916,-3.0911,-3.0884,-3.0889,-3.0876,-3.082,-3.08,-3.0818,-3.0801,-3.0796,-3.0806,-3.0817,-3.08,-3.0801,-3.082,-3.08,-3.0796,-3.0784,-3.0823,-3.0801,-3.0821,-3.0958,-3.1658,-3.308,-3.3395,-3.4432,-3.5542,-3.601,-3.601,-3.601,-3.601,-3.5981,-3.5938,-3.5924,-3.5894,-3.5914,-3.5866,-3.5791,-3.5715,-3.5679,-3.567,-3.5604,-3.5572,-3.5593,-3.5618,-3.5618,-3.563,-3.5687,-3.5704,-3.5696,-3.5713,-3.5779,-3.5846,-3.5883,-3.5951,-3.5981,-3.4588,-3.4693,-3.4942,-3.5159,-3.5321,-3.547,-3.5586,-3.5704,-3.5704,-3.5704,-3.5704,-3.5704,-3.4911,-3.3538,-3.2928,-3.2174,-3.1371,-3.083,-3.0617,-3.0617,-3.0617,-3.0636,-3.0636,-3.0636,-3.0645,-3.0637,-3.0673,-3.0684,-3.0626,-3.0559,-3.054,-3.052,-3.053,-3.0521,-3.054,-3.0578,-3.0868,-3.1468,-3.2174,-3.2957,-3.3933,-3.4659,-3.4842,-3.4872,-3.5143,-3.5336,-3.5394,-3.5435,-3.5471,-3.5494,-3.582,-3.5742,-3.5137,-3.4824,-3.418,-3.3064,-3.2441,-3.1797,-3.1035,-3.0918,-3.0917,-3.0916,-3.0917,-3.0898,-3.0879,-3.0879,-3.0878,-3.0866,-3.086,-3.0868,-3.0879,-3.0858,-3.0857,-3.0871,-3.087,-3.0866,-3.0862,-3.086,-3.0841,-3.0977,-3.168,-3.277,-3.3375,-3.4351,-3.5291,-3.5854,-3.601,-3.601,-3.601,-3.601,-3.5988,-3.5978,-3.5955,-3.5914,-3.5787,-3.5732,-3.567,-3.5629,-3.5585,-3.5558,-3.5528,-3.5528,-3.554,-3.5553,-3.554,-3.5553,-3.5596,-3.5596,-3.5607,-3.565,-3.5706,-3.5757,-3.5772,-3.5858,-3.5909,-3.487,-3.5015,-3.513,-3.5243,-3.5307,-3.5441,-3.5566,-3.5704,-3.5704,-3.5704,-3.5704,-3.5704,-3.4891,-3.3634,-3.3228,-3.2638,-3.1768,-3.0984,-3.0617,-3.0617,-3.0617,-3.0617,-3.0617,-3.0617,-3.0617,-3.0617,-3.0636,-3.0646,-3.0608,-3.055,-3.0521,-3.054,-3.0521,-3.052,-3.054,-3.0578,-3.0926,-3.1468,-3.1845,-3.2609,-3.3625,-3.4007,-3.4554,-3.529,-3.5447,-3.5607,-3.5869,-3.5909,-3.5953,-3.5996,-3.6016,-3.6016,-3.5937,-3.5449,-3.459,-3.3516,-3.291,-3.207,-3.1094,-3.0918,-3.0918,-3.0918,-3.0918,-3.0918,-3.0918,-3.0918,-3.0918,-3.0912,-3.0909,-3.0915,-3.0918,-3.0916,-3.0914,-3.0909,-3.0907,-3.0925,-3.0923,-3.0921,-3.1016,-3.1348,-3.2148,-3.3046,-3.3805,-3.4842,-3.5525,-3.5913,-3.601,-3.601,-3.601,-3.601,-3.5988,-3.5978,-3.5914,-3.582,-3.5704,-3.5639,-3.5604,-3.5565,-3.5553,-3.5515,-3.5507,-3.5507,-3.5507,-3.5507,-3.5507,-3.5507,-3.5507,-3.5507,-3.5522,-3.5558,-3.5618,-3.567,-3.5715,-3.5764,-3.5814,-3.5102,-3.5364,-3.5391,-3.5496,-3.5608,-3.5651,-3.5693,-3.5704,-3.5704,-3.5704,-3.5704,-3.5704,-3.5182,-3.4311,-3.3546,-3.2696,-3.1913,-3.1101,-3.0675,-3.0617,-3.0617,-3.0617,-3.0617,-3.0617,-3.0617,-3.0617,-3.0617,-3.0617,-3.0598,-3.0598,-3.0598,-3.0598,-3.0598,-3.0598,-3.0617,-3.0617,-3.0656,-3.0917,-3.1526,-3.2028,-3.2193,-3.2996,-3.379,-3.4576,-3.4724,-3.5117,-3.5795,-3.5947,-3.5996,-3.5996,-3.6016,-3.6016,-3.6016,-3.5918,-3.5215,-3.3809,-3.3379,-3.2559,-3.1211,-3.0957,-3.0918,-3.0918,-3.0918,-3.0918,-3.0918,-3.0918,-3.0918,-3.0918,-3.0918,-3.0918,-3.0918,-3.0918,-3.0918,-3.0918,-3.0916,-3.0914,-3.0912,-3.0945,-3.1211,-3.1856,-3.2365,-3.2929,-3.4137,-3.4901,-3.533,-3.5837,-3.601,-3.601,-3.601,-3.601,-3.5958,-3.5924,-3.5852,-3.576,-3.565,-3.5553,-3.5522,-3.5488,-3.5501,-3.5507,-3.5507,-3.5507,-3.5507,-3.5507,-3.5507,-3.5507,-3.5507,-3.5507,-3.5507,-3.5534,-3.5577,-3.5604,-3.5629,-3.5689,-3.5764,-3.5307,-3.5424,-3.5553,-3.5565,-3.5521,-3.5631,-3.5704,-3.5704,-3.5704,-3.5704,-3.5704,-3.5704,-3.5201,-3.4505,-3.4069,-3.3508,-3.2667,-3.1826,-3.1129,-3.0675,-3.0617,-3.0617,-3.0617,-3.0617,-3.0617,-3.0617,-3.0617,-3.0617,-3.0617,-3.0617,-3.0617,-3.0617,-3.0598,-3.0636,-3.0655,-3.0714,-3.0752,-3.0808,-3.1081,-3.151,-3.2101,-3.2422,-3.2988,-3.3768,-3.4378,-3.4827,-3.5084,-3.566,-3.5996,-3.6016,-3.6016,-3.6016,-3.6016,-3.6016,-3.5469,-3.4434,-3.3711,-3.2988,-3.1934,-3.123,-3.0937,-3.0918,-3.0918,-3.0918,-3.0918,-3.0918,-3.0918,-3.0918,-3.0918,-3.0918,-3.0918,-3.0918,-3.0918,-3.0918,-3.0918,-3.0918,-3.0976,-3.1363,-3.1788,-3.2172,-3.3153,-3.409,-3.4647,-3.5115,-3.5642,-3.5893,-3.601,-3.601,-3.601,-3.601,-3.601,-3.5974,-3.5864,-3.5764,-3.5679,-3.5581,-3.5515,-3.5507,-3.5507,-3.5507,-3.5507,-3.5507,-3.5507,-3.5507,-3.5507,-3.5507,-3.5507,-3.5507,-3.5507,-3.5507,-3.5522,-3.5547,-3.5547,-3.5593,-3.567,-3.5438,-3.5538,-3.5635,-3.5643,-3.5514,-3.5662,-3.5704,-3.5704,-3.5704,-3.5704,-3.5704,-3.5704,-3.5394,-3.4891,-3.4571,-3.3923,-3.3063,-3.2193,-3.1362,-3.0694,-3.0617,-3.0617,-3.0616,-3.0618,-3.062,-3.0633,-3.0649,-3.0636,-3.0636,-3.0636,-3.0636,-3.0626,-3.0644,-3.0645,-3.0691,-3.0729,-3.0773,-3.0806,-3.0851,-3.1133,-3.1582,-3.1719,-3.2109,-3.2949,-3.3789,-3.4355,-3.4726,-3.5547,-3.6016,-3.6016,-3.6016,-3.6016,-3.6016,-3.5976,-3.5605,-3.4805,-3.418,-3.3418,-3.2344,-3.1699,-3.1211,-3.0996,-3.0918,-3.0918,-3.0918,-3.0918,-3.0918,-3.0918,-3.0918,-3.0918,-3.0918,-3.0918,-3.0918,-3.0918,-3.0918,-3.0918,-3.0996,-3.162,-3.2264,-3.2749,-3.3806,-3.4664,-3.5247,-3.5552,-3.5999,-3.6013,-3.601,-3.601,-3.601,-3.601,-3.6013,-3.5978,-3.5858,-3.576,-3.5693,-3.5618,-3.5534,-3.5507,-3.5507,-3.5507,-3.5507,-3.5507,-3.5507,-3.5507,-3.5507,-3.5507,-3.5507,-3.5507,-3.5507,-3.5507,-3.5507,-3.5501,-3.5528,-3.5534,-3.5593,-3.5535,-3.5699,-3.5698,-3.5707,-3.5697,-3.5715,-3.5704,-3.5704,-3.5704,-3.5704,-3.5704,-3.5704,-3.5607,-3.5394,-3.4676,-3.3923,-3.3063,-3.2201,-3.1477,-3.0917,-3.0694,-3.0626,-3.0602,-3.067,-3.0707,-3.0691,-3.0703,-3.0699,-3.069,-3.0694,-3.0714,-3.0703,-3.0712,-3.0723,-3.0723,-3.0729,-3.0773,-3.0804,-3.0808,-3.0896,-3.0996,-3.0957,-3.1289,-3.2148,-3.3027,-3.3828,-3.4512,-3.5449,-3.6016,-3.6016,-3.6016,-3.6016,-3.6016,-3.6016,-3.5625,-3.4922,-3.4766,-3.3809,-3.2695,-3.2148,-3.1738,-3.0996,-3.0918,-3.0918,-3.0918,-3.0918,-3.0918,-3.0918,-3.0918,-3.0918,-3.0918,-3.0918,-3.0918,-3.0918,-3.0918,-3.0918,-3.0976,-3.1719,-3.2559,-3.332,-3.418,-3.5039,-3.5781,-3.5955,-3.5989,-3.6021,-3.6016,-3.6013,-3.6016,-3.6018,-3.6016,-3.5955,-3.5875,-3.5787,-3.5713,-3.5623,-3.5559,-3.5554,-3.5509,-3.5488,-3.5488,-3.5507,-3.5507,-3.5507,-3.5507,-3.5507,-3.5507,-3.5507,-3.5507,-3.5507,-3.5507,-3.5507,-3.5501,-3.5515,-3.554,-3.5658,-3.5699,-3.5698,-3.5707,-3.5707,-3.5695,-3.5684,-3.5684,-3.5665,-3.5568,-3.5665,-3.5704,-3.5259,-3.4737,-3.4502,-3.3923,-3.3024,-3.2242,-3.1826,-3.1506,-3.0975,-3.0723,-3.0631,-3.0716,-3.0758,-3.0722,-3.0742,-3.0755,-3.0703,-3.0704,-3.0741,-3.0771,-3.0781,-3.0781,-3.084,-3.084,-3.0852,-3.086,-3.0879,-3.0879,-3.0898,-3.0918,-3.0996,-3.1309,-3.2637,-3.3437,-3.3887,-3.5215,-3.6016,-3.6016,-3.6016,-3.6016,-3.6016,-3.5976,-3.5781,-3.5508,-3.4941,-3.4238,-3.3223,-3.25,-3.1816,-3.1035,-3.0918,-3.0918,-3.0918,-3.0918,-3.0918,-3.0918,-3.0918,-3.0918,-3.0918,-3.0918,-3.0918,-3.0918,-3.0918,-3.0918,-3.1133,-3.2187,-3.3184,-3.3496,-3.4707,-3.5586,-3.5898,-3.6016,-3.6016,-3.6016,-3.6007,-3.6018,-3.6005,-3.601,-3.601,-3.5979,-3.5908,-3.582,-3.5735,-3.5628,-3.5566,-3.5565,-3.554,-3.5488,-3.5488,-3.5507,-3.5507,-3.5507,-3.5507,-3.5507,-3.5507,-3.5507,-3.5507,-3.5507,-3.5507,-3.5507,-3.5507,-3.5501,-3.5547,-3.4865,-3.5165,-3.4807,-3.4633,-3.4652,-3.4612,-3.461,-3.4599,-3.4618,-3.461,-3.4601,-3.4621,-3.4331,-3.3886,-3.3837,-3.3372,-3.2551,-3.2068,-3.1678,-3.1293,-3.0905,-3.0737,-3.0711,-3.0769,-3.0777,-3.0762,-3.0762,-3.0781,-3.0777,-3.0784,-3.0803,-3.0823,-3.0849,-3.0859,-3.0898,-3.0918,-3.0918,-3.0918,-3.0918,-3.0918,-3.0918,-3.0918,-3.0918,-3.1133,-3.2226,-3.3008,-3.3535,-3.4726,-3.5586,-3.5898,-3.6016,-3.6016,-3.5976,-3.5625,-3.5469,-3.541,-3.4648,-3.3769,-3.3027,-3.2422,-3.1816,-3.1113,-3.0918,-3.0918,-3.0918,-3.0918,-3.0918,-3.0918,-3.0918,-3.0918,-3.0918,-3.0918,-3.0918,-3.0918,-3.0918,-3.0918,-3.0918,-3.2383,-3.3242,-3.3789,-3.4844,-3.6016,-3.6016,-3.6016,-3.6016,-3.6016,-3.6016,-3.6012,-3.6013,-3.6016,-3.6016,-3.5976,-3.5957,-3.5869,-3.5794,-3.5698,-3.5639,-3.5607,-3.5585,-3.554,-3.5488,-3.5507,-3.5507,-3.5507,-3.5507,-3.5507,-3.5507,-3.5507,-3.5507,-3.5507,-3.5507,-3.5507,-3.5507,-3.5507,-3.5522,-3.3643,-3.429,-3.3507,-3.3208,-3.3267,-3.3161,-3.3304,-3.3167,-3.3283,-3.3265,-3.3267,-3.317,-3.3209,-3.2986,-3.2966,-3.2502,-3.17,-3.1632,-3.128,-3.0936,-3.0717,-3.0758,-3.077,-3.0776,-3.08,-3.0801,-3.0801,-3.084,-3.0879,-3.0898,-3.0898,-3.0898,-3.0898,-3.0898,-3.0918,-3.0918,-3.0918,-3.0918,-3.0918,-3.0918,-3.0918,-3.0918,-3.0918,-3.1055,-3.1797,-3.2695,-3.3379,-3.4199,-3.4883,-3.5644,-3.5723,-3.5566,-3.5527,-3.4883,-3.4609,-3.4492,-3.3906,-3.3164,-3.2402,-3.2246,-3.1836,-3.1113,-3.0918,-3.0918,-3.0918,-3.0918,-3.0918,-3.0918,-3.0918,-3.0918,-3.0918,-3.0918,-3.0918,-3.0918,-3.0918,-3.0918,-3.1309,-3.2441,-3.3379,-3.3516,-3.4961,-3.582,-3.6016,-3.6016,-3.6016,-3.6016,-3.6016,-3.6016,-3.6016,-3.6016,-3.6016,-3.6016,-3.5957,-3.5929,-3.5851,-3.5749,-3.5688,-3.567,-3.565,-3.5596,-3.5515,-3.5507,-3.5507,-3.5507,-3.5507,-3.5507,-3.5507,-3.5507,-3.5507,-3.5507,-3.5507,-3.5507,-3.5507,-3.5507,-3.5515,-3.3324,-3.3477,-3.3285,-3.3199,-3.32,-3.3141,-3.3082,-3.3063,-3.3063,-3.2957,-3.3064,-3.3074,-3.2706,-3.2145,-3.2125,-3.17,-3.1071,-3.1051,-3.0912,-3.0911,-3.0852,-3.0828,-3.0812,-3.0808,-3.0804,-3.0806,-3.0866,-3.0879,-3.0898,-3.0918,-3.0918,-3.0918,-3.0918,-3.0918,-3.0918,-3.0918,-3.0918,-3.0918,-3.0918,-3.0918,-3.0918,-3.0918,-3.0918,-3.0996,-3.1738,-3.2539,-3.3223,-3.3574,-3.3769,-3.3906,-3.3965,-3.3984,-3.4062,-3.3867,-3.3691,-3.3633,-3.3476,-3.2969,-3.2363,-3.207,-3.1836,-3.1035,-3.0918,-3.0918,-3.0918,-3.0918,-3.0918,-3.0918,-3.0918,-3.0918,-3.0918,-3.0918,-3.0918,-3.0918,-3.0918,-3.1172,-3.1894,-3.2773,-3.332,-3.3789,-3.4922,-3.6016,-3.6016,-3.6016,-3.6016,-3.6016,-3.6016,-3.6016,-3.6016,-3.6016,-3.6016,-3.6016,-3.5996,-3.5957,-3.5899,-3.5825,-3.5787,-3.5732,-3.5697,-3.565,-3.557,-3.5515,-3.5515,-3.5501,-3.5507,-3.5507,-3.5507,-3.5507,-3.5507,-3.5507,-3.5507,-3.5507,-3.5507,-3.5507,-3.5507,-3.223,-3.2559,-3.2152,-3.1969,-3.197,-3.1942,-3.1932,-3.1932,-3.1932,-3.1923,-3.1932,-3.198,-3.1729,-3.1371,-3.1333,-3.1079,-3.0808,-3.0778,-3.0814,-3.084,-3.0859,-3.0866,-3.0864,-3.0852,-3.0813,-3.0799,-3.0808,-3.0846,-3.0898,-3.0918,-3.0918,-3.0918,-3.0918,-3.0918,-3.0918,-3.0918,-3.0918,-3.0918,-3.0918,-3.0918,-3.0918,-3.0918,-3.0918,-3.1074,-3.168,-3.2305,-3.2207,-3.2656,-3.2559,-3.2344,-3.2246,-3.2637,-3.3164,-3.3047,-3.2851,-3.2812,-3.2383,-3.2109,-3.166,-3.1582,-3.1387,-3.0957,-3.0918,-3.0918,-3.0918,-3.0918,-3.0918,-3.0918,-3.0918,-3.0918,-3.0918,-3.0918,-3.0918,-3.0918,-3.0918,-3.1289,-3.209,-3.291,-3.3613,-3.4082,-3.5215,-3.5801,-3.6016,-3.6016,-3.6016,-3.6016,-3.6016,-3.6016,-3.6016,-3.6016,-3.6016,-3.6016,-3.6016,-3.5996,-3.5957,-3.591,-3.585,-3.5794,-3.576,-3.5715,-3.565,-3.5593,-3.5547,-3.5522,-3.5528,-3.5488,-3.5507,-3.5507,-3.5507,-3.5507,-3.5507,-3.5507,-3.5507,-3.5507,-3.5507,-3.103,-3.166,-3.0923,-3.0613,-3.0615,-3.0665,-3.0733,-3.0675,-3.0617,-3.0845,-3.0665,-3.0684,-3.0894,-3.0752,-3.0791,-3.0734,-3.0745,-3.0781,-3.0849,-3.084,-3.0879,-3.0898,-3.0898,-3.0898,-3.0859,-3.082,-3.0821,-3.0852,-3.0898,-3.0918,-3.0898,-3.0898,-3.0898,-3.0879,-3.0879,-3.0879,-3.0859,-3.0859,-3.0859,-3.0879,-3.0879,-3.0879,-3.0898,-3.1055,-3.1445,-3.1621,-3.1387,-3.1601,-3.1699,-3.0976,-3.0918,-3.166,-3.2383,-3.248,-3.2012,-3.1973,-3.1426,-3.1172,-3.1113,-3.1016,-3.0976,-3.0918,-3.0918,-3.0918,-3.0918,-3.0918,-3.0918,-3.0918,-3.0918,-3.0918,-3.0918,-3.0918,-3.0918,-3.0918,-3.0918,-3.1387,-3.2246,-3.3027,-3.3691,-3.457,-3.5332,-3.5918,-3.6016,-3.6016,-3.6016,-3.6016,-3.6016,-3.6016,-3.6016,-3.6016,-3.6016,-3.6016,-3.6016,-3.6016,-3.5976,-3.5937,-3.5879,-3.587,-3.5827,-3.5784,-3.5737,-3.571,-3.5669,-3.5558,-3.5547,-3.5509,-3.5501,-3.5501,-3.5501,-3.5488,-3.5507,-3.5507,-3.5507,-3.5507,-3.5507,-3.0683,-3.08,-3.074,-3.0653,-3.0607,-3.0636,-3.0684,-3.0694,-3.0675,-3.0685,-3.0684,-3.0712,-3.074,-3.077,-3.0781,-3.0808,-3.086,-3.0879,-3.0898,-3.0898,-3.0898,-3.0918,-3.0918,-3.0918,-3.0898,-3.0879,-3.0868,-3.0874,-3.0898,-3.0918,-3.0859,-3.082,-3.0818,-3.08,-3.0763,-3.0739,-3.0751,-3.0771,-3.0751,-3.0791,-3.0801,-3.082,-3.084,-3.0879,-3.1152,-3.1094,-3.1016,-3.1035,-3.1035,-3.0918,-3.0918,-3.1094,-3.1387,-3.1309,-3.123,-3.1172,-3.1074,-3.0918,-3.0918,-3.0918,-3.0918,-3.0918,-3.0918,-3.0918,-3.0918,-3.0918,-3.0918,-3.0918,-3.0918,-3.0918,-3.0918,-3.0918,-3.0918,-3.0918,-3.1016,-3.1465,-3.2656,-3.3301,-3.375,-3.4609,-3.5391,-3.6016,-3.6016,-3.6016,-3.6016,-3.6016,-3.6016,-3.6016,-3.6016,-3.6016,-3.6016,-3.6016,-3.6016,-3.6016,-3.5996,-3.5957,-3.5898,-3.5898,-3.5869,-3.5846,-3.5813,-3.5836,-3.5786,-3.5713,-3.5615,-3.5547,-3.5534,-3.5541,-3.5501,-3.5507,-3.5507,-3.5507,-3.5507,-3.5507,-3.5507,-3.0606,-3.0598,-3.0673,-3.0665,-3.0671,-3.0678,-3.0704,-3.0704,-3.0742,-3.0761,-3.0781,-3.0801,-3.0832,-3.0845,-3.0847,-3.0877,-3.0898,-3.0918,-3.0918,-3.0918,-3.0918,-3.0918,-3.0918,-3.0918,-3.0918,-3.0898,-3.0898,-3.0866,-3.0859,-3.0859,-3.0807,-3.0749,-3.0743,-3.0733,-3.0713,-3.0711,-3.071,-3.069,-3.0697,-3.0704,-3.075,-3.0742,-3.0788,-3.082,-3.084,-3.0859,-3.0898,-3.0918,-3.0918,-3.0918,-3.0918,-3.0918,-3.0918,-3.0918,-3.0918,-3.0918,-3.0918,-3.0918,-3.0918,-3.0918,-3.0918,-3.0918,-3.0918,-3.0918,-3.0918,-3.0918,-3.0918,-3.0918,-3.0918,-3.0918,-3.0918,-3.0918,-3.0918,-3.0918,-3.0918,-3.1523,-3.2461,-3.3086,-3.3809,-3.4551,-3.5371,-3.5859,-3.6016,-3.6016,-3.6016,-3.6016,-3.6016,-3.6016,-3.6016,-3.6016,-3.6016,-3.6016,-3.6016,-3.6016,-3.6016,-3.5976,-3.5937,-3.5937,-3.5929,-3.5896,-3.5884,-3.589,-3.5903,-3.5866,-3.5764,-3.5615,-3.5565,-3.5572,-3.5522,-3.5488,-3.5501,-3.5501,-3.5488,-3.5507,-3.5507,-3.0616,-3.0617,-3.0683,-3.0707,-3.0734,-3.0743,-3.0735,-3.0761,-3.0819,-3.0808,-3.082,-3.0859,-3.0898,-3.0898,-3.0898,-3.0918,-3.0879,-3.0898,-3.0898,-3.0898,-3.0879,-3.0879,-3.0918,-3.0918,-3.0918,-3.0918,-3.0918,-3.0859,-3.0856,-3.0847,-3.0788,-3.0735,-3.07,-3.0694,-3.0684,-3.0674,-3.0675,-3.0675,-3.0694,-3.0694,-3.0681,-3.0697,-3.0711,-3.0788,-3.0795,-3.0801,-3.084,-3.084,-3.084,-3.0859,-3.0859,-3.0879,-3.0879,-3.0879,-3.0898,-3.0918,-3.0918,-3.0918,-3.0918,-3.0918,-3.0918,-3.0918,-3.0918,-3.0918,-3.0918,-3.0918,-3.0918,-3.0918,-3.0918,-3.0918,-3.0918,-3.0918,-3.0918,-3.0918,-3.0957,-3.123,-3.207,-3.2812,-3.3594,-3.4394,-3.5273,-3.5723,-3.5859,-3.6016,-3.6016,-3.6016,-3.6016,-3.6016,-3.6016,-3.6016,-3.6016,-3.6016,-3.6016,-3.6016,-3.6016,-3.6016,-3.5996,-3.5976,-3.5976,-3.597,-3.5945,-3.5947,-3.5938,-3.5942,-3.5846,-3.5708,-3.5639,-3.5604,-3.5581,-3.5546,-3.5534,-3.5515,-3.5488,-3.5488,-3.5507,-3.0675,-3.0694,-3.0762,-3.079,-3.0797,-3.084,-3.0879,-3.0879,-3.0879,-3.0876,-3.0879,-3.0898,-3.0918,-3.0918,-3.0918,-3.0918,-3.0898,-3.0859,-3.0859,-3.0879,-3.084,-3.084,-3.0898,-3.0918,-3.0918,-3.0918,-3.0918,-3.0898,-3.0882,-3.0877,-3.0817,-3.0731,-3.0684,-3.0656,-3.0636,-3.0636,-3.0617,-3.0617,-3.0617,-3.0617,-3.0626,-3.0673,-3.0687,-3.0722,-3.0714,-3.0724,-3.0743,-3.0743,-3.0743,-3.0732,-3.0792,-3.0801,-3.082,-3.0859,-3.0898,-3.0918,-3.0918,-3.0918,-3.0918,-3.0918,-3.0918,-3.0918,-3.0918,-3.0918,-3.0918,-3.0918,-3.0918,-3.0918,-3.0918,-3.0918,-3.0918,-3.0918,-3.0918,-3.0918,-3.0937,-3.1309,-3.1973,-3.2363,-3.3164,-3.3926,-3.4687,-3.5332,-3.5723,-3.5879,-3.6016,-3.6016,-3.6016,-3.6016,-3.6016,-3.6016,-3.6016,-3.6016,-3.6016,-3.6016,-3.6016,-3.6016,-3.6016,-3.6016,-3.6016,-3.6016,-3.5995,-3.5972,-3.5986,-3.5965,-3.5869,-3.5833,-3.5806,-3.5741,-3.566,-3.5599,-3.557,-3.5547,-3.5501,-3.5488,-3.5507,-3.0797,-3.0752,-3.0791,-3.0819,-3.0864,-3.0875,-3.0918,-3.0918,-3.0918,-3.0918,-3.0918,-3.0918,-3.0918,-3.0918,-3.0918,-3.0918,-3.0898,-3.0859,-3.0879,-3.0879,-3.0859,-3.0859,-3.0898,-3.0918,-3.0918,-3.0898,-3.0918,-3.0918,-3.0885,-3.0818,-3.0723,-3.0664,-3.0632,-3.0636,-3.0617,-3.0617,-3.0617,-3.0617,-3.0617,-3.0617,-3.0617,-3.0617,-3.0636,-3.0636,-3.0645,-3.0656,-3.0683,-3.0695,-3.0695,-3.071,-3.0728,-3.0742,-3.0762,-3.0801,-3.084,-3.084,-3.0879,-3.0898,-3.0918,-3.0918,-3.0918,-3.0918,-3.0918,-3.0918,-3.0918,-3.0918,-3.0918,-3.0918,-3.0918,-3.0918,-3.0918,-3.0918,-3.0918,-3.0918,-3.0918,-3.1074,-3.1523,-3.2031,-3.2617,-3.3359,-3.4101,-3.4766,-3.543,-3.5801,-3.5957,-3.6016,-3.6016,-3.6016,-3.6016,-3.6016,-3.6016,-3.6016,-3.6016,-3.6016,-3.6016,-3.6016,-3.6016,-3.6016,-3.6016,-3.6016,-3.6016,-3.6014,-3.601,-3.6003,-3.5958,-3.5942,-3.5923,-3.5833,-3.5713,-3.565,-3.5618,-3.557,-3.5534,-3.5488,-3.5507,-3.0857,-3.0826,-3.0807,-3.0856,-3.0898,-3.0918,-3.0918,-3.0918,-3.0918,-3.0918,-3.0898,-3.0879,-3.0879,-3.0859,-3.0859,-3.084,-3.082,-3.0839,-3.084,-3.0838,-3.0847,-3.084,-3.084,-3.084,-3.084,-3.0843,-3.0859,-3.086,-3.0818,-3.0769,-3.0717,-3.0625,-3.0613,-3.0607,-3.0617,-3.0617,-3.0617,-3.0617,-3.0617,-3.0617,-3.0617,-3.0617,-3.0617,-3.0617,-3.0617,-3.0617,-3.0675,-3.0665,-3.0665,-3.0674,-3.0664,-3.0688,-3.0689,-3.0742,-3.0762,-3.0781,-3.082,-3.0859,-3.0879,-3.0898,-3.0918,-3.0918,-3.0918,-3.0918,-3.0918,-3.0918,-3.0918,-3.0918,-3.0918,-3.0918,-3.0918,-3.0918,-3.0918,-3.0918,-3.0918,-3.0918,-3.0996,-3.1484,-3.2051,-3.2754,-3.3516,-3.4277,-3.4941,-3.5605,-3.5898,-3.5976,-3.6016,-3.6016,-3.6016,-3.6016,-3.6016,-3.6016,-3.6016,-3.6016,-3.6016,-3.6016,-3.6016,-3.6016,-3.6016,-3.6016,-3.6016,-3.6016,-3.6014,-3.6009,-3.6021,-3.5996,-3.5971,-3.586,-3.5767,-3.5755,-3.5733,-3.5669,-3.5608,-3.5541,-3.5515,-3.0839,-3.0878,-3.0898,-3.0898,-3.0918,-3.0918,-3.0918,-3.0918,-3.0918,-3.0898,-3.0879,-3.0837,-3.0801,-3.0797,-3.0759,-3.0739,-3.0724,-3.0658,-3.0687,-3.0689,-3.0646,-3.0701,-3.0742,-3.0758,-3.0739,-3.075,-3.0802,-3.0808,-3.0734,-3.0766,-3.0726,-3.0694,-3.0616,-3.0607,-3.0617,-3.0617,-3.0617,-3.0617,-3.0617,-3.0617,-3.0617,-3.0617,-3.0617,-3.0617,-3.0617,-3.0617,-3.0617,-3.0617,-3.0617,-3.0636,-3.0636,-3.0636,-3.0637,-3.068,-3.0691,-3.0735,-3.0796,-3.082,-3.082,-3.0879,-3.0918,-3.0918,-3.0918,-3.0918,-3.0918,-3.0918,-3.0918,-3.0918,-3.0918,-3.0918,-3.0918,-3.0918,-3.0918,-3.0918,-3.0918,-3.0918,-3.0918,-3.0957,-3.1523,-3.2187,-3.2969,-3.3828,-3.4648,-3.5351,-3.5879,-3.5996,-3.6016,-3.6016,-3.6016,-3.6016,-3.6016,-3.6016,-3.6016,-3.6016,-3.6016,-3.6016,-3.6016,-3.6016,-3.6016,-3.6016,-3.6016,-3.6016,-3.6016,-3.6015,-3.6011,-3.601,-3.6007,-3.5942,-3.5884,-3.5884,-3.5845,-3.5753,-3.5648,-3.5579,-3.556,-3.0879,-3.0898,-3.0918,-3.0918,-3.0918,-3.0918,-3.0918,-3.0918,-3.0898,-3.086,-3.0826,-3.0784,-3.0733,-3.0722,-3.0709,-3.0707,-3.0688,-3.0678,-3.0672,-3.0676,-3.0687,-3.0692,-3.0737,-3.075,-3.0793,-3.0806,-3.0853,-3.086,-3.0856,-3.0777,-3.0726,-3.0681,-3.0636,-3.0617,-3.0617,-3.0617,-3.0617,-3.0617,-3.0617,-3.0617,-3.0617,-3.0617,-3.0617,-3.0617,-3.0617,-3.0617,-3.0617,-3.0617,-3.0617,-3.0617,-3.0617,-3.0617,-3.0617,-3.0636,-3.0643,-3.0668,-3.0748,-3.0794,-3.0801,-3.0859,-3.0918,-3.0918,-3.0918,-3.0918,-3.0918,-3.0918,-3.0918,-3.0918,-3.0918,-3.0918,-3.0918,-3.0918,-3.0918,-3.0918,-3.0918,-3.0918,-3.0918,-3.0918,-3.1016,-3.166,-3.2598,-3.3535,-3.4336,-3.5137,-3.5625,-3.6016,-3.6016,-3.6016,-3.6016,-3.6016,-3.6016,-3.6016,-3.6016,-3.6016,-3.6016,-3.6016,-3.6016,-3.6016,-3.6016,-3.6016,-3.6016,-3.6016,-3.6016,-3.6016,-3.6016,-3.6014,-3.6011,-3.6009,-3.5986,-3.5964,-3.5907,-3.5816,-3.5713,-3.5623,-3.5623,-3.0889,-3.0898,-3.0918,-3.0918,-3.0918,-3.0918,-3.0918,-3.0918,-3.0918,-3.0879,-3.082,-3.0733,-3.0694,-3.0694,-3.0684,-3.0665,-3.0674,-3.0664,-3.0674,-3.0665,-3.0665,-3.0694,-3.0714,-3.0732,-3.0729,-3.0815,-3.0839,-3.0808,-3.0804,-3.0773,-3.0775,-3.0748,-3.0694,-3.0656,-3.0617,-3.0617,-3.0617,-3.0617,-3.0636,-3.0636,-3.0636,-3.0636,-3.0636,-3.0636,-3.0636,-3.0636,-3.0656,-3.0656,-3.0636,-3.0636,-3.0636,-3.0617,-3.0617,-3.0617,-3.0617,-3.0636,-3.0692,-3.0788,-3.0791,-3.0859,-3.0918,-3.0918,-3.0918,-3.0918,-3.0918,-3.0918,-3.0918,-3.0918,-3.0918,-3.0918,-3.0918,-3.0918,-3.0918,-3.0918,-3.0918,-3.0918,-3.0918,-3.0918,-3.0918,-3.1152,-3.2109,-3.3008,-3.3652,-3.4453,-3.543,-3.5859,-3.6016,-3.6016,-3.6016,-3.6016,-3.6016,-3.6016,-3.6016,-3.6016,-3.6016,-3.6016,-3.6016,-3.6016,-3.6016,-3.6016,-3.6016,-3.6016,-3.6016,-3.6016,-3.6016,-3.6016,-3.6016,-3.6016,-3.6016,-3.6007,-3.5937,-3.5859,-3.5841,-3.5764,-3.5708,-3.0826,-3.0898,-3.0898,-3.0898,-3.0957,-3.0918,-3.0918,-3.0898,-3.0898,-3.0885,-3.0859,-3.0748,-3.0694,-3.0684,-3.0656,-3.0636,-3.0636,-3.0636,-3.0635,-3.0634,-3.0626,-3.0626,-3.0636,-3.0655,-3.0718,-3.0656,-3.0728,-3.0782,-3.0745,-3.0798,-3.0853,-3.0843,-3.078,-3.0694,-3.0617,-3.0617,-3.0617,-3.0626,-3.0655,-3.0683,-3.0675,-3.0674,-3.069,-3.0673,-3.0679,-3.0679,-3.0679,-3.0679,-3.0679,-3.0679,-3.0674,-3.0655,-3.0623,-3.0616,-3.0617,-3.0617,-3.0675,-3.07,-3.0715,-3.0831,-3.0898,-3.0918,-3.0918,-3.0918,-3.0918,-3.0918,-3.0918,-3.0918,-3.0918,-3.0918,-3.0918,-3.0918,-3.0918,-3.0918,-3.0918,-3.0918,-3.0918,-3.0918,-3.0918,-3.1016,-3.1641,-3.2363,-3.293,-3.3691,-3.498,-3.5644,-3.5918,-3.6016,-3.6016,-3.6016,-3.6016,-3.6016,-3.6016,-3.6016,-3.6016,-3.6016,-3.6016,-3.6016,-3.6016,-3.6016,-3.6016,-3.6016,-3.6016,-3.6016,-3.6016,-3.6016,-3.6016,-3.6016,-3.6016,-3.6016,-3.5957,-3.5898,-3.5898,-3.5879,-3.582,-3.0752,-3.1448,-3.0923,-3.1016,-3.1406,-3.1055,-3.0918,-3.0898,-3.084,-3.084,-3.0833,-3.0726,-3.0697,-3.0696,-3.0675,-3.0665,-3.0665,-3.0684,-3.0673,-3.0665,-3.0657,-3.0684,-3.0704,-3.072,-3.0737,-3.0793,-3.0824,-3.0833,-3.085,-3.0847,-3.0839,-3.0833,-3.0789,-3.0723,-3.0675,-3.0646,-3.0604,-3.0652,-3.0685,-3.069,-3.0692,-3.0695,-3.07,-3.0712,-3.0706,-3.071,-3.071,-3.071,-3.073,-3.0717,-3.0715,-3.0704,-3.0664,-3.0649,-3.0655,-3.0665,-3.0732,-3.0782,-3.0804,-3.0898,-3.0918,-3.0918,-3.0918,-3.0918,-3.0918,-3.0918,-3.0918,-3.0918,-3.0918,-3.0918,-3.0918,-3.0918,-3.0918,-3.0918,-3.0918,-3.0918,-3.0918,-3.0918,-3.0937,-3.1152,-3.1601,-3.2695,-3.3437,-3.3633,-3.4629,-3.5508,-3.584,-3.5976,-3.6016,-3.6016,-3.6016,-3.6016,-3.6016,-3.6016,-3.6016,-3.6016,-3.6016,-3.6016,-3.6016,-3.6016,-3.6016,-3.6016,-3.6016,-3.6016,-3.6016,-3.6016,-3.6016,-3.6016,-3.6016,-3.5996,-3.5957,-3.5957,-3.5957,-3.5918,-3.5879,-3.1096,-3.1619,-3.1122,-3.1109,-3.1387,-3.1055,-3.0918,-3.0898,-3.0859,-3.084,-3.084,-3.0781,-3.0747,-3.0748,-3.0718,-3.0707,-3.0711,-3.0724,-3.0707,-3.0714,-3.0714,-3.0728,-3.0761,-3.0787,-3.0749,-3.0826,-3.0862,-3.0853,-3.086,-3.0828,-3.0837,-3.0828,-3.0767,-3.0761,-3.0746,-3.0713,-3.0681,-3.0737,-3.0773,-3.079,-3.0789,-3.079,-3.0784,-3.0775,-3.0788,-3.0788,-3.0771,-3.0762,-3.0781,-3.0762,-3.0762,-3.0762,-3.0742,-3.0734,-3.0727,-3.0731,-3.0748,-3.082,-3.0866,-3.0898,-3.0918,-3.0918,-3.0918,-3.0918,-3.0918,-3.0918,-3.0918,-3.0918,-3.0918,-3.0918,-3.0918,-3.0918,-3.0918,-3.0918,-3.0918,-3.0918,-3.0918,-3.0918,-3.0937,-3.1152,-3.1367,-3.2598,-3.3633,-3.4004,-3.4375,-3.5098,-3.5781,-3.5898,-3.6016,-3.6016,-3.6016,-3.6016,-3.6016,-3.6016,-3.6016,-3.6016,-3.6016,-3.6016,-3.6016,-3.6016,-3.6016,-3.6016,-3.6016,-3.6016,-3.6016,-3.6016,-3.6016,-3.6016,-3.6016,-3.6016,-3.5996,-3.5996,-3.6016,-3.5976,-3.5918,-3.1718,-3.1468,-3.1402,-3.1117,-3.0879,-3.084,-3.0879,-3.0879,-3.0898,-3.0898,-3.0898,-3.082,-3.0801,-3.0801,-3.0749,-3.0717,-3.0726,-3.0769,-3.0771,-3.0764,-3.0781,-3.0762,-3.0742,-3.0746,-3.0765,-3.0778,-3.0789,-3.0853,-3.082,-3.0841,-3.0875,-3.0885,-3.0823,-3.0841,-3.0834,-3.0817,-3.0793,-3.0806,-3.0846,-3.0859,-3.0859,-3.0879,-3.0879,-3.0879,-3.0879,-3.0879,-3.0879,-3.0879,-3.0879,-3.0898,-3.0898,-3.0859,-3.082,-3.0801,-3.0767,-3.0745,-3.078,-3.0837,-3.0898,-3.0918,-3.0918,-3.0918,-3.0918,-3.0918,-3.0918,-3.0918,-3.0918,-3.0918,-3.0918,-3.0918,-3.0918,-3.0918,-3.0918,-3.0918,-3.0918,-3.0918,-3.0918,-3.0918,-3.0918,-3.0976,-3.0976,-3.1719,-3.2578,-3.3144,-3.4023,-3.4863,-3.5527,-3.5918,-3.6016,-3.6016,-3.6016,-3.6016,-3.6016,-3.6016,-3.6016,-3.6016,-3.6016,-3.6016,-3.6016,-3.6016,-3.6016,-3.6016,-3.6016,-3.6016,-3.6016,-3.6016,-3.6016,-3.6016,-3.6016,-3.6016,-3.6016,-3.6016,-3.6016,-3.6016,-3.5976,-2.9233,-2.9505,-2.9397,-2.9658,-3.0123,-3.0352,-3.0625,-3.0898,-3.0918,-3.0918,-3.0879,-3.0879,-3.084,-3.0859,-3.0847,-3.084,-3.084,-3.0857,-3.0875,-3.0879,-3.0859,-3.0859,-3.084,-3.084,-3.084,-3.084,-3.0859,-3.0859,-3.0879,-3.0898,-3.0898,-3.0896,-3.0879,-3.0898,-3.0898,-3.0884,-3.087,-3.0859,-3.0898,-3.0898,-3.0918,-3.0918,-3.0918,-3.0918,-3.0918,-3.0918,-3.0918,-3.0918,-3.0918,-3.0918,-3.0918,-3.0898,-3.0879,-3.0857,-3.0853,-3.0853,-3.0864,-3.0879,-3.0918,-3.0918,-3.0898,-3.0898,-3.0898,-3.0918,-3.0918,-3.0898,-3.0898,-3.0879,-3.0898,-3.0898,-3.0879,-3.0879,-3.0879,-3.0879,-3.0879,-3.0879,-3.0879,-3.0879,-3.0879,-3.0898,-3.0898,-3.1172,-3.1973,-3.2773,-3.3672,-3.457,-3.5254,-3.5703,-3.6016,-3.6016,-3.6016,-3.6016,-3.6016,-3.6016,-3.6016,-3.6016,-3.6016,-3.6016,-3.6016,-3.6016,-3.6016,-3.6016,-3.6016,-3.6016,-3.6016,-3.6016,-3.6016,-3.6016,-3.6016,-3.6016,-3.6016,-3.6016,-3.6016,-3.6016,-3.6016,-2.7735,-2.8544,-2.8536,-2.871,-2.9033,-2.9508,-2.9855,-3.0078,-3.0469,-3.0664,-3.0664,-3.0644,-3.0742,-3.0898,-3.0898,-3.0898,-3.0898,-3.0898,-3.0898,-3.0898,-3.0918,-3.0898,-3.0918,-3.0918,-3.0898,-3.0918,-3.0918,-3.0898,-3.0918,-3.0918,-3.0918,-3.0918,-3.0918,-3.0918,-3.0918,-3.0902,-3.0905,-3.0918,-3.0918,-3.0918,-3.0918,-3.0898,-3.0898,-3.0898,-3.0898,-3.0897,-3.0918,-3.0898,-3.0898,-3.0918,-3.0918,-3.0914,-3.0896,-3.0897,-3.0879,-3.0859,-3.0855,-3.0839,-3.084,-3.0859,-3.0859,-3.0849,-3.0859,-3.084,-3.084,-3.082,-3.082,-3.082,-3.084,-3.0859,-3.084,-3.082,-3.082,-3.082,-3.082,-3.082,-3.082,-3.082,-3.084,-3.0859,-3.0957,-3.1133,-3.1719,-3.25,-3.3242,-3.3984,-3.4766,-3.5449,-3.582,-3.6016,-3.6016,-3.6016,-3.6016,-3.6016,-3.6016,-3.6016,-3.6016,-3.6016,-3.6016,-3.6016,-3.6016,-3.6016,-3.6016,-3.6016,-3.6016,-3.6016,-3.6016,-3.6016,-3.6016,-3.6016,-3.6016,-3.6016,-3.6016,-3.6016,-3.6016,-2.6326,-2.7474,-2.7763,-2.7378,-2.7594,-2.8047,-2.8376,-2.8642,-2.9473,-3.0098,-3.0176,-3.0273,-3.043,-3.0605,-3.0684,-3.0703,-3.0742,-3.0781,-3.084,-3.0879,-3.0898,-3.0898,-3.0918,-3.0918,-3.0918,-3.0918,-3.0918,-3.0918,-3.0918,-3.0918,-3.0918,-3.0918,-3.0918,-3.0898,-3.0879,-3.0871,-3.0874,-3.084,-3.0859,-3.0879,-3.0879,-3.0879,-3.0876,-3.0859,-3.0864,-3.0864,-3.0877,-3.0879,-3.0879,-3.0897,-3.0889,-3.0875,-3.0872,-3.0868,-3.0836,-3.0806,-3.079,-3.0774,-3.078,-3.0801,-3.0781,-3.0782,-3.079,-3.0761,-3.0737,-3.0756,-3.0775,-3.0745,-3.0782,-3.0771,-3.0755,-3.0778,-3.0781,-3.0759,-3.075,-3.0755,-3.0755,-3.076,-3.0762,-3.0781,-3.082,-3.0996,-3.1211,-3.1973,-3.2871,-3.3496,-3.4277,-3.5117,-3.5664,-3.5976,-3.6016,-3.6016,-3.6016,-3.6016,-3.6016,-3.6016,-3.6016,-3.6016,-3.6016,-3.6016,-3.6016,-3.6016,-3.6016,-3.6016,-3.6016,-3.6016,-3.6016,-3.6016,-3.6016,-3.6016,-3.6016,-3.6016,-3.6016,-3.6016,-3.6016,-2.1077,-2.1036,-2.1589,-2.2857,-2.4634,-2.5079,-2.5967,-2.71,-2.7567,-2.854,-2.9645,-2.9814,-2.9882,-2.9989,-3.0131,-3.0182,-3.0296,-3.0508,-3.0644,-3.0684,-3.0723,-3.0742,-3.0859,-3.0781,-3.0859,-3.0918,-3.0918,-3.0898,-3.0918,-3.0918,-3.0918,-3.0898,-3.0898,-3.0879,-3.0833,-3.0827,-3.0798,-3.0774,-3.0778,-3.0819,-3.0873,-3.0828,-3.0824,-3.078,-3.0749,-3.0759,-3.0777,-3.0756,-3.0817,-3.0855,-3.0771,-3.073,-3.0684,-3.0742,-3.0723,-3.0672,-3.0691,-3.0704,-3.0724,-3.0721,-3.072,-3.073,-3.0718,-3.0664,-3.0655,-3.0704,-3.0722,-3.0715,-3.0703,-3.0697,-3.0703,-3.0711,-3.0713,-3.0709,-3.0704,-3.0704,-3.0704,-3.0692,-3.0707,-3.071,-3.073,-3.084,-3.0996,-3.1523,-3.2441,-3.332,-3.418,-3.498,-3.5625,-3.6016,-3.6016,-3.6016,-3.6016,-3.6016,-3.6016,-3.6016,-3.6016,-3.6016,-3.6016,-3.6016,-3.6016,-3.6016,-3.6016,-3.6016,-3.6016,-3.6016,-3.6016,-3.6016,-3.6016,-3.6016,-3.6016,-3.6016,-3.6016,-3.6016,-3.6016,-1.6053,-1.6752,-1.8561,-2.0117,-2.1366,-2.1831,-2.3066,-2.4646,-2.5177,-2.6466,-2.8159,-2.8456,-2.873,-2.9119,-2.9365,-2.9597,-2.9751,-3.0083,-3.0137,-3.0234,-3.03,-3.0351,-3.0442,-3.0495,-3.0488,-3.0566,-3.0723,-3.0781,-3.0859,-3.0918,-3.0898,-3.0879,-3.0884,-3.0831,-3.0791,-3.0762,-3.0748,-3.0704,-3.0691,-3.0734,-3.0817,-3.0776,-3.075,-3.0701,-3.0707,-3.0704,-3.0691,-3.0687,-3.07,-3.0747,-3.0697,-3.0658,-3.0639,-3.0653,-3.0653,-3.0639,-3.0626,-3.0636,-3.0656,-3.0651,-3.0644,-3.0649,-3.0653,-3.0617,-3.0569,-3.0617,-3.0646,-3.0634,-3.0643,-3.0642,-3.0642,-3.0664,-3.0665,-3.0645,-3.0653,-3.0653,-3.0653,-3.0643,-3.0643,-3.0649,-3.0664,-3.0703,-3.084,-3.0957,-3.1934,-3.3144,-3.4023,-3.4844,-3.5488,-3.5996,-3.5996,-3.6016,-3.6016,-3.6016,-3.6016,-3.6016,-3.6016,-3.6016,-3.6016,-3.6016,-3.6016,-3.6016,-3.6016,-3.6016,-3.6016,-3.6016,-3.6016,-3.6016,-3.6016,-3.6016,-3.6016,-3.6016,-3.6016,-3.6016,-3.6016,-1.0988,-1.3023,-1.552,-1.6833,-1.7207,-1.7945,-1.9375,-2.1239,-2.2292,-2.3633,-2.4972,-2.5394,-2.6662,-2.8035,-2.8478,-2.8883,-2.9097,-2.9064,-2.9229,-2.9513,-2.9568,-2.9814,-2.9916,-2.9932,-3.0086,-3.0236,-3.0391,-3.0586,-3.0742,-3.0742,-3.0762,-3.082,-3.0808,-3.0762,-3.0762,-3.0724,-3.0684,-3.0645,-3.0645,-3.0674,-3.0696,-3.0697,-3.0684,-3.069,-3.0683,-3.0666,-3.0646,-3.0643,-3.0607,-3.0614,-3.0618,-3.0582,-3.0571,-3.0554,-3.0547,-3.054,-3.0558,-3.0558,-3.0574,-3.0567,-3.0558,-3.0557,-3.0574,-3.0565,-3.0518,-3.0519,-3.0559,-3.0569,-3.0579,-3.0598,-3.0598,-3.0607,-3.0598,-3.0617,-3.0617,-3.0598,-3.0598,-3.0598,-3.0588,-3.0588,-3.0598,-3.0607,-3.0678,-3.0781,-3.1606,-3.2807,-3.3769,-3.4629,-3.5351,-3.5742,-3.5976,-3.5996,-3.6016,-3.6016,-3.6016,-3.6016,-3.6016,-3.6016,-3.6016,-3.6016,-3.6003,-3.6003,-3.6005,-3.6016,-3.6016,-3.6016,-3.6016,-3.6016,-3.6016,-3.6016,-3.6016,-3.6016,-3.6016,-3.6016,-3.6016,-0.5201,-0.5624,-0.6115,-0.726,-0.9085,-1.1423,-1.3596,-1.5793,-1.8197,-1.9619,-1.9974,-2.0059,-2.1883,-2.686,-2.705,-2.7191,-2.7162,-2.7583,-2.8223,-2.8563,-2.8657,-2.9132,-2.9434,-2.9338,-2.9794,-2.9984,-3.0089,-3.0214,-3.0431,-3.0449,-3.0469,-3.0566,-3.0571,-3.0563,-3.0625,-3.0595,-3.0557,-3.0539,-3.053,-3.0559,-3.0569,-3.0586,-3.0626,-3.0608,-3.0568,-3.0559,-3.054,-3.0539,-3.056,-3.0591,-3.0583,-3.0519,-3.051,-3.0498,-3.0488,-3.0472,-3.0479,-3.0466,-3.0471,-3.0505,-3.0505,-3.0455,-3.0475,-3.0486,-3.0488,-3.0469,-3.049,-3.0519,-3.053,-3.053,-3.054,-3.0569,-3.0588,-3.0598,-3.0617,-3.0598,-3.0598,-3.0559,-3.052,-3.052,-3.053,-3.055,-3.0616,-3.0911,-3.1482,-3.2518,-3.3244,-3.4164,-3.5497,-3.5759,-3.594,-3.5945,-3.5968,-3.6016,-3.6016,-3.6016,-3.6016,-3.6016,-3.6003,-3.6021,-3.6021,-3.6018,-3.6018,-3.6021,-3.6003,-3.6016,-3.6016,-3.6016,-3.6016,-3.6016,-3.6016,-3.6016,-3.6016,-3.6016,-3.6016]}]]